Darstellungsparameter: Aktuell verwendete Einstellungen:
Skalierung der Graphiken ... ?
xyx+y,   Skalierungsfaktor:      Skalierung: Modus: x, Faktor: 1
Darstellungszeitraum ... ?
Vom - - bis: - -   Zeitraum: 15.07.2019 - 14.08.2019
Min/Max/Avg-Anzeige ... ?
Zeige MMA aktuell
Zeige MMA Monat
Zeige MMA alles
Zeige --A aktuell
Zeige --A Monat
Zeige --A alles
Keine MMA-Anzeige
MMA:
Keine MMA-Graphiken
MMA-Basis: 15.07.2019 - 14.08.2019
Quicknavigation für Darstellung... ?
Tage:      1T, 2T, 3T, 5T -1T -2T -3T -5T +1T +2T +3T +5T
Wochen: 1W, 2W, 3W -1W -2W -3W +1W +2W +3W
Monate: 1M, 3M, 6M -1M -3M -6M +1M +3M +6M
Jahre:    1J, 3J, 5J, 10J -1J -3J -5J -10J +1J +3J +5J +10J
Nutze für die Darstellung ... ?
Originaldaten oder Mittelwerte auf ...
Stundenbasis Tagesbasis Wochenbasis
Monatsbasis Jahresbasis      Datenbasis: Original-Daten
Darstellen als:
Statistik (Auto) Statistik J:M      Darstellung:
Zur Graphik,    zurück zur Übersicht aller Sensoren.
 
Tabellarische Datenbersicht: ?
 
Sensor: Nr:Datum:Temp:Feuchte:Taupunkt:
Aussen-T/F 1 15-07-2019 00:00:00 16.4 C 76 % 12.16 C
2 15-07-2019 00:05:00 16.3 C 74 % 11.66 C
3 15-07-2019 00:10:00 16.3 C 76 % 12.07 C
4 15-07-2019 00:15:00 16.2 C 74 % 11.56 C
5 15-07-2019 00:20:00 16.2 C 75 % 11.77 C
6 15-07-2019 00:25:00 16.2 C 77 % 12.17 C
7 15-07-2019 00:30:00 16.1 C 77 % 12.07 C
8 15-07-2019 00:35:00 16 C 78 % 12.17 C
9 15-07-2019 00:40:00 15.9 C 78 % 12.07 C
10 15-07-2019 00:45:00 15.8 C 78 % 11.97 C
11 15-07-2019 00:50:00 15.7 C 79 % 12.07 C
12 15-07-2019 00:55:00 15.7 C 79 % 12.07 C
13 15-07-2019 01:00:00 15.6 C 80 % 12.16 C
14 15-07-2019 01:05:00 15.5 C 80 % 12.07 C
15 15-07-2019 01:10:00 15.4 C 80 % 11.97 C
16 15-07-2019 01:15:00 15.4 C 81 % 12.16 C
17 15-07-2019 01:20:00 15.4 C 81 % 12.16 C
18 15-07-2019 01:25:00 15.4 C 79 % 11.78 C
19 15-07-2019 01:30:00 15.6 C 78 % 11.78 C
20 15-07-2019 01:35:00 15.8 C 77 % 11.78 C
21 15-07-2019 01:40:00 15.8 C 77 % 11.78 C
22 15-07-2019 01:45:00 15.9 C 78 % 12.07 C
23 15-07-2019 01:50:00 15.9 C 77 % 11.88 C
24 15-07-2019 01:55:00 15.9 C 77 % 11.88 C
25 15-07-2019 02:00:00 15.8 C 77 % 11.78 C
Sensor: Nr:Datum:Temp:Feuchte:Taupunkt:
Aussen-T/F 26 15-07-2019 02:05:00 15.8 C 78 % 11.97 C
27 15-07-2019 02:10:00 15.8 C 79 % 12.17 C
28 15-07-2019 02:15:00 15.8 C 80 % 12.36 C
29 15-07-2019 02:20:00 15.7 C 80 % 12.26 C
30 15-07-2019 02:25:00 15.7 C 81 % 12.45 C
31 15-07-2019 02:30:00 15.6 C 81 % 12.35 C
32 15-07-2019 02:35:00 15.4 C 81 % 12.16 C
33 15-07-2019 02:40:00 15.4 C 81 % 12.16 C
34 15-07-2019 02:45:00 15.3 C 82 % 12.25 C
35 15-07-2019 02:50:00 15.2 C 82 % 12.15 C
36 15-07-2019 02:55:00 15.2 C 82 % 12.15 C
37 15-07-2019 03:00:00 15.2 C 83 % 12.33 C
38 15-07-2019 03:05:00 15.1 C 83 % 12.24 C
39 15-07-2019 03:10:00 15.1 C 83 % 12.24 C
40 15-07-2019 03:15:00 15.1 C 83 % 12.24 C
41 15-07-2019 03:20:00 15 C 84 % 12.32 C
42 15-07-2019 03:25:00 15 C 83 % 12.14 C
43 15-07-2019 03:30:00 14.9 C 84 % 12.22 C
44 15-07-2019 03:35:00 14.9 C 84 % 12.22 C
45 15-07-2019 03:40:00 14.9 C 84 % 12.22 C
46 15-07-2019 03:45:00 14.9 C 83 % 12.04 C
47 15-07-2019 03:50:00 14.9 C 84 % 12.22 C
48 15-07-2019 03:55:00 14.9 C 84 % 12.22 C
49 15-07-2019 04:00:00 14.8 C 82 % 11.76 C
50 15-07-2019 04:05:00 14.8 C 80 % 11.39 C
Sensor: Nr:Datum:Temp:Feuchte:Taupunkt:
Aussen-T/F 51 15-07-2019 04:10:00 14.9 C 78 % 11.1 C
52 15-07-2019 04:15:00 15.2 C 77 % 11.2 C
53 15-07-2019 04:20:00 15.3 C 78 % 11.49 C
54 15-07-2019 04:25:00 15.4 C 78 % 11.59 C
55 15-07-2019 04:30:00 15.5 C 78 % 11.68 C
56 15-07-2019 04:35:00 15.5 C 78 % 11.68 C
57 15-07-2019 04:40:00 15.5 C 78 % 11.68 C
58 15-07-2019 04:45:00 15.6 C 78 % 11.78 C
59 15-07-2019 04:50:00 15.6 C 77 % 11.59 C
60 15-07-2019 04:55:00 15.6 C 77 % 11.59 C
61 15-07-2019 05:00:00 15.6 C 75 % 11.19 C
62 15-07-2019 05:05:00 15.7 C 75 % 11.28 C
63 15-07-2019 05:10:00 15.7 C 74 % 11.08 C
64 15-07-2019 05:15:00 15.7 C 74 % 11.08 C
65 15-07-2019 05:20:00 15.7 C 74 % 11.08 C
66 15-07-2019 05:25:00 15.7 C 75 % 11.28 C
67 15-07-2019 05:30:00 15.7 C 76 % 11.48 C
68 15-07-2019 05:35:00 15.6 C 75 % 11.19 C
69 15-07-2019 05:40:00 15.6 C 74 % 10.99 C
70 15-07-2019 05:45:00 15.6 C 74 % 10.99 C
71 15-07-2019 05:50:00 15.6 C 74 % 10.99 C
72 15-07-2019 05:55:00 15.6 C 73 % 10.78 C
73 15-07-2019 06:00:00 15.6 C 74 % 10.99 C
74 15-07-2019 06:05:00 15.6 C 74 % 10.99 C
75 15-07-2019 06:10:00 15.6 C 74 % 10.99 C
Sensor: Nr:Datum:Temp:Feuchte:Taupunkt:
Aussen-T/F 76 15-07-2019 06:15:00 15.6 C 74 % 10.99 C
77 15-07-2019 06:20:00 15.6 C 74 % 10.99 C
78 15-07-2019 06:25:00 15.6 C 74 % 10.99 C
79 15-07-2019 06:30:00 15.6 C 74 % 10.99 C
80 15-07-2019 06:35:00 15.6 C 74 % 10.99 C
81 15-07-2019 06:40:00 15.6 C 74 % 10.99 C
82 15-07-2019 06:45:00 15.6 C 74 % 10.99 C
83 15-07-2019 06:50:00 15.6 C 75 % 11.19 C
84 15-07-2019 06:55:00 15.6 C 75 % 11.19 C
85 15-07-2019 07:00:00 15.6 C 75 % 11.19 C
86 15-07-2019 07:05:00 15.7 C 75 % 11.28 C
87 15-07-2019 07:10:00 15.7 C 75 % 11.28 C
88 15-07-2019 07:15:00 15.7 C 74 % 11.08 C
89 15-07-2019 07:20:00 15.7 C 75 % 11.28 C
90 15-07-2019 07:25:00 15.7 C 74 % 11.08 C
91 15-07-2019 07:30:00 15.7 C 73 % 10.88 C
92 15-07-2019 07:35:00 15.7 C 73 % 10.88 C
93 15-07-2019 07:40:00 15.7 C 73 % 10.88 C
94 15-07-2019 07:45:00 15.7 C 73 % 10.88 C
95 15-07-2019 07:50:00 15.7 C 74 % 11.08 C
96 15-07-2019 07:55:00 15.7 C 74 % 11.08 C
97 15-07-2019 08:00:00 15.7 C 74 % 11.08 C
98 15-07-2019 08:05:00 15.7 C 74 % 11.08 C
99 15-07-2019 08:10:00 15.7 C 75 % 11.28 C
100 15-07-2019 08:15:00 15.7 C 74 % 11.08 C
Sensor: Nr:Datum:Temp:Feuchte:Taupunkt:
Aussen-T/F 101 15-07-2019 08:20:00 15.7 C 74 % 11.08 C
102 15-07-2019 08:25:00 15.7 C 74 % 11.08 C
103 15-07-2019 08:30:00 15.8 C 74 % 11.18 C
104 15-07-2019 08:35:00 15.8 C 75 % 11.38 C
105 15-07-2019 08:40:00 15.9 C 74 % 11.28 C
106 15-07-2019 08:45:00 16 C 74 % 11.37 C
107 15-07-2019 08:50:00 16.1 C 73 % 11.26 C
108 15-07-2019 08:55:00 16.2 C 74 % 11.56 C
109 15-07-2019 09:00:00 16.3 C 73 % 11.46 C
110 15-07-2019 09:05:00 16.3 C 73 % 11.46 C
111 15-07-2019 09:10:00 16.3 C 72 % 11.25 C
112 15-07-2019 09:15:00 16.4 C 72 % 11.34 C
113 15-07-2019 09:20:00 16.4 C 71 % 11.13 C
114 15-07-2019 09:25:00 16.5 C 72 % 11.44 C
115 15-07-2019 09:30:00 16.6 C 72 % 11.54 C
116 15-07-2019 09:35:00 16.7 C 70 % 11.21 C
117 15-07-2019 09:40:00 16.7 C 70 % 11.21 C
118 15-07-2019 09:45:00 16.7 C 72 % 11.63 C
119 15-07-2019 09:50:00 16.7 C 70 % 11.21 C
120 15-07-2019 09:55:00 16.8 C 70 % 11.3 C
121 15-07-2019 10:00:00 16.8 C 70 % 11.3 C
122 15-07-2019 10:05:00 16.8 C 70 % 11.3 C
123 15-07-2019 10:10:00 16.8 C 69 % 11.09 C
124 15-07-2019 10:15:00 16.8 C 69 % 11.09 C
125 15-07-2019 10:20:00 16.8 C 70 % 11.3 C
Sensor: Nr:Datum:Temp:Feuchte:Taupunkt:
Aussen-T/F 126 15-07-2019 10:25:00 16.8 C 72 % 11.73 C
127 15-07-2019 10:30:00 16.8 C 74 % 12.14 C
128 15-07-2019 10:35:00 16.8 C 74 % 12.14 C
129 15-07-2019 10:40:00 16.8 C 74 % 12.14 C
130 15-07-2019 10:45:00 16.8 C 75 % 12.35 C
131 15-07-2019 10:50:00 16.8 C 75 % 12.35 C
132 15-07-2019 10:55:00 16.8 C 74 % 12.14 C
133 15-07-2019 11:00:00 16.8 C 75 % 12.35 C
134 15-07-2019 11:05:00 16.8 C 74 % 12.14 C
135 15-07-2019 11:10:00 16.8 C 74 % 12.14 C
136 15-07-2019 11:15:00 16.8 C 75 % 12.35 C
137 15-07-2019 11:20:00 16.8 C 74 % 12.14 C
138 15-07-2019 11:25:00 16.8 C 74 % 12.14 C
139 15-07-2019 11:30:00 16.8 C 74 % 12.14 C
140 15-07-2019 11:35:00 16.8 C 74 % 12.14 C
141 15-07-2019 11:40:00 16.9 C 75 % 12.44 C
142 15-07-2019 11:45:00 16.9 C 75 % 12.44 C
143 15-07-2019 11:50:00 16.9 C 75 % 12.44 C
144 15-07-2019 11:55:00 17 C 74 % 12.34 C
145 15-07-2019 12:00:00 17 C 74 % 12.34 C
146 15-07-2019 12:05:00 17 C 74 % 12.34 C
147 15-07-2019 12:10:00 17.1 C 73 % 12.23 C
148 15-07-2019 12:15:00 17 C 72 % 11.92 C
149 15-07-2019 12:20:00 17.1 C 72 % 12.02 C
150 15-07-2019 12:25:00 17.1 C 73 % 12.23 C
Sensor: Nr:Datum:Temp:Feuchte:Taupunkt:
Aussen-T/F 151 15-07-2019 12:30:00 17.1 C 73 % 12.23 C
152 15-07-2019 12:35:00 17.2 C 73 % 12.32 C
153 15-07-2019 12:40:00 17.2 C 72 % 12.11 C
154 15-07-2019 12:45:00 17.2 C 72 % 12.11 C
155 15-07-2019 12:50:00 17.2 C 73 % 12.32 C
156 15-07-2019 12:55:00 17.1 C 73 % 12.23 C
157 15-07-2019 13:00:00 17.2 C 72 % 12.11 C
158 15-07-2019 13:05:00 17.2 C 71 % 11.9 C
159 15-07-2019 13:10:00 17.2 C 72 % 12.11 C
160 15-07-2019 13:15:00 17.3 C 70 % 11.78 C
161 15-07-2019 13:20:00 17.3 C 70 % 11.78 C
162 15-07-2019 13:25:00 17.4 C 70 % 11.88 C
163 15-07-2019 13:30:00 17.6 C 70 % 12.07 C
164 15-07-2019 13:35:00 17.6 C 69 % 11.85 C
165 15-07-2019 13:40:00 17.7 C 69 % 11.95 C
166 15-07-2019 13:45:00 17.8 C 68 % 11.82 C
167 15-07-2019 13:50:00 17.8 C 68 % 11.82 C
168 15-07-2019 13:55:00 17.8 C 68 % 11.82 C
169 15-07-2019 14:00:00 17.9 C 68 % 11.91 C
170 15-07-2019 14:05:00 17.9 C 67 % 11.69 C
171 15-07-2019 14:10:00 18.1 C 66 % 11.65 C
172 15-07-2019 14:15:00 18.1 C 66 % 11.65 C
173 15-07-2019 14:20:00 18.2 C 66 % 11.75 C
174 15-07-2019 14:25:00 18.1 C 66 % 11.65 C
175 15-07-2019 14:30:00 18.2 C 66 % 11.75 C
Sensor: Nr:Datum:Temp:Feuchte:Taupunkt:
Aussen-T/F 176 15-07-2019 14:35:00 18.2 C 66 % 11.75 C
177 15-07-2019 14:40:00 18.2 C 66 % 11.75 C
178 15-07-2019 14:45:00 18.1 C 66 % 11.65 C
179 15-07-2019 14:50:00 18.1 C 66 % 11.65 C
180 15-07-2019 14:55:00 18 C 67 % 11.79 C
181 15-07-2019 15:00:00 18.1 C 67 % 11.88 C
182 15-07-2019 15:05:00 18.1 C 66 % 11.65 C
183 15-07-2019 15:10:00 17.9 C 67 % 11.69 C
184 15-07-2019 15:15:00 17.9 C 67 % 11.69 C
185 15-07-2019 15:20:00 17.7 C 68 % 11.72 C
186 15-07-2019 15:25:00 17.7 C 68 % 11.72 C
187 15-07-2019 15:30:00 17.6 C 67 % 11.4 C
188 15-07-2019 15:35:00 17.6 C 68 % 11.63 C
189 15-07-2019 15:40:00 17.4 C 68 % 11.44 C
190 15-07-2019 15:45:00 17.4 C 69 % 11.66 C
191 15-07-2019 15:50:00 17.4 C 70 % 11.88 C
192 15-07-2019 15:55:00 17.4 C 70 % 11.88 C
193 15-07-2019 16:00:00 17.4 C 69 % 11.66 C
194 15-07-2019 16:05:00 17.3 C 69 % 11.56 C
195 15-07-2019 16:10:00 17.3 C 70 % 11.78 C
196 15-07-2019 16:15:00 17.2 C 70 % 11.68 C
197 15-07-2019 16:20:00 17.2 C 70 % 11.68 C
198 15-07-2019 16:25:00 17.1 C 71 % 11.8 C
199 15-07-2019 16:30:00 17.1 C 71 % 11.8 C
200 15-07-2019 16:35:00 17.1 C 71 % 11.8 C
Sensor: Nr:Datum:Temp:Feuchte:Taupunkt:
Aussen-T/F 201 15-07-2019 16:40:00 17 C 71 % 11.71 C
202 15-07-2019 16:45:00 16.9 C 71 % 11.61 C
203 15-07-2019 16:50:00 16.9 C 71 % 11.61 C
204 15-07-2019 16:55:00 16.9 C 72 % 11.82 C
205 15-07-2019 17:00:00 16.9 C 71 % 11.61 C
206 15-07-2019 17:05:00 16.9 C 71 % 11.61 C
207 15-07-2019 17:10:00 16.9 C 71 % 11.61 C
208 15-07-2019 17:15:00 16.9 C 72 % 11.82 C
209 15-07-2019 17:20:00 16.8 C 71 % 11.52 C
210 15-07-2019 17:25:00 16.8 C 72 % 11.73 C
211 15-07-2019 17:30:00 16.8 C 72 % 11.73 C
212 15-07-2019 17:35:00 16.7 C 72 % 11.63 C
213 15-07-2019 17:40:00 16.7 C 72 % 11.63 C
214 15-07-2019 17:45:00 16.7 C 72 % 11.63 C
215 15-07-2019 17:50:00 16.6 C 72 % 11.54 C
216 15-07-2019 17:55:00 16.6 C 72 % 11.54 C
217 15-07-2019 18:00:00 16.6 C 72 % 11.54 C
218 15-07-2019 18:05:00 16.7 C 72 % 11.63 C
219 15-07-2019 18:10:00 16.6 C 72 % 11.54 C
220 15-07-2019 18:15:00 16.6 C 72 % 11.54 C
221 15-07-2019 18:20:00 16.6 C 72 % 11.54 C
222 15-07-2019 18:25:00 16.6 C 72 % 11.54 C
223 15-07-2019 18:30:00 16.7 C 72 % 11.63 C
224 15-07-2019 18:35:00 16.7 C 71 % 11.42 C
225 15-07-2019 18:40:00 16.7 C 71 % 11.42 C
Sensor: Nr:Datum:Temp:Feuchte:Taupunkt:
Aussen-T/F 226 15-07-2019 18:45:00 16.8 C 71 % 11.52 C
227 15-07-2019 18:50:00 16.8 C 71 % 11.52 C
228 15-07-2019 18:55:00 16.9 C 71 % 11.61 C
229 15-07-2019 19:00:00 16.9 C 70 % 11.4 C
230 15-07-2019 19:05:00 16.9 C 71 % 11.61 C
231 15-07-2019 19:10:00 16.8 C 71 % 11.52 C
232 15-07-2019 19:15:00 16.8 C 71 % 11.52 C
233 15-07-2019 19:20:00 16.8 C 71 % 11.52 C
234 15-07-2019 19:25:00 16.8 C 72 % 11.73 C
235 15-07-2019 19:30:00 16.8 C 71 % 11.52 C
236 15-07-2019 19:35:00 16.8 C 71 % 11.52 C
237 15-07-2019 19:40:00 16.7 C 71 % 11.42 C
238 15-07-2019 19:45:00 16.7 C 71 % 11.42 C
239 15-07-2019 19:50:00 16.7 C 71 % 11.42 C
240 15-07-2019 19:55:00 16.7 C 71 % 11.42 C
241 15-07-2019 20:00:00 16.7 C 70 % 11.21 C
242 15-07-2019 20:05:00 16.7 C 71 % 11.42 C
243 15-07-2019 20:10:00 16.7 C 71 % 11.42 C
244 15-07-2019 20:15:00 16.7 C 71 % 11.42 C
245 15-07-2019 20:20:00 16.7 C 71 % 11.42 C
246 15-07-2019 20:25:00 16.7 C 71 % 11.42 C
247 15-07-2019 20:30:00 16.7 C 71 % 11.42 C
248 15-07-2019 20:35:00 16.7 C 71 % 11.42 C
249 15-07-2019 20:40:00 16.7 C 72 % 11.63 C
250 15-07-2019 20:45:00 16.7 C 71 % 11.42 C
Sensor: Nr:Datum:Temp:Feuchte:Taupunkt:
Aussen-T/F 251 15-07-2019 20:50:00 16.7 C 71 % 11.42 C
252 15-07-2019 20:55:00 16.6 C 72 % 11.54 C
253 15-07-2019 21:00:00 16.6 C 72 % 11.54 C
254 15-07-2019 21:05:00 16.5 C 72 % 11.44 C
255 15-07-2019 21:10:00 16.4 C 72 % 11.34 C
256 15-07-2019 21:15:00 16.4 C 73 % 11.55 C
257 15-07-2019 21:20:00 16.4 C 73 % 11.55 C
258 15-07-2019 21:25:00 16.3 C 73 % 11.46 C
259 15-07-2019 21:30:00 16.3 C 73 % 11.46 C
260 15-07-2019 21:35:00 16.3 C 73 % 11.46 C
261 15-07-2019 21:40:00 16.3 C 76 % 12.07 C
262 15-07-2019 21:45:00 16.3 C 77 % 12.26 C
263 15-07-2019 21:50:00 16.2 C 77 % 12.17 C
264 15-07-2019 21:55:00 16.1 C 76 % 11.87 C
265 15-07-2019 22:00:00 16 C 77 % 11.97 C
266 15-07-2019 22:05:00 15.9 C 78 % 12.07 C
267 15-07-2019 22:10:00 15.8 C 78 % 11.97 C
268 15-07-2019 22:15:00 15.8 C 79 % 12.17 C
269 15-07-2019 22:20:00 15.7 C 80 % 12.26 C
270 15-07-2019 22:25:00 15.6 C 80 % 12.16 C
271 15-07-2019 22:30:00 15.6 C 80 % 12.16 C
272 15-07-2019 22:35:00 15.5 C 81 % 12.26 C
273 15-07-2019 22:40:00 15.4 C 80 % 11.97 C
274 15-07-2019 22:45:00 15.4 C 81 % 12.16 C
275 15-07-2019 22:50:00 15.4 C 81 % 12.16 C
Sensor: Nr:Datum:Temp:Feuchte:Taupunkt:
Aussen-T/F 276 15-07-2019 22:55:00 15.3 C 79 % 11.68 C
277 15-07-2019 23:00:00 15.3 C 79 % 11.68 C
278 15-07-2019 23:05:00 15.3 C 78 % 11.49 C
279 15-07-2019 23:10:00 15.4 C 77 % 11.39 C
280 15-07-2019 23:15:00 15.5 C 77 % 11.49 C
281 15-07-2019 23:20:00 15.6 C 77 % 11.59 C
282 15-07-2019 23:25:00 15.6 C 77 % 11.59 C
283 15-07-2019 23:30:00 15.6 C 77 % 11.59 C
284 15-07-2019 23:35:00 15.6 C 76 % 11.39 C
285 15-07-2019 23:40:00 15.5 C 77 % 11.49 C
286 15-07-2019 23:45:00 15.4 C 77 % 11.39 C
287 15-07-2019 23:50:00 15.3 C 77 % 11.3 C
288 15-07-2019 23:55:00 15.2 C 78 % 11.39 C
289 16-07-2019 00:00:00 15.1 C 79 % 11.49 C
290 16-07-2019 00:05:00 15 C 80 % 11.58 C
291 16-07-2019 00:10:00 14.9 C 79 % 11.29 C
292 16-07-2019 00:15:00 14.8 C 80 % 11.39 C
293 16-07-2019 00:20:00 14.8 C 80 % 11.39 C
294 16-07-2019 00:25:00 14.7 C 80 % 11.29 C
295 16-07-2019 00:30:00 14.7 C 79 % 11.1 C
296 16-07-2019 00:35:00 14.7 C 81 % 11.48 C
297 16-07-2019 00:40:00 14.6 C 80 % 11.19 C
298 16-07-2019 00:45:00 14.6 C 80 % 11.19 C
299 16-07-2019 00:50:00 14.6 C 80 % 11.19 C
300 16-07-2019 00:55:00 14.5 C 80 % 11.09 C
Sensor: Nr:Datum:Temp:Feuchte:Taupunkt:
Aussen-T/F 301 16-07-2019 01:00:00 14.4 C 79 % 10.81 C
302 16-07-2019 01:05:00 14.3 C 79 % 10.71 C
303 16-07-2019 01:10:00 14.2 C 79 % 10.61 C
304 16-07-2019 01:15:00 14 C 79 % 10.42 C
305 16-07-2019 01:20:00 13.9 C 79 % 10.32 C
306 16-07-2019 01:25:00 13.7 C 80 % 10.32 C
307 16-07-2019 01:30:00 13.6 C 81 % 10.4 C
308 16-07-2019 01:35:00 13.4 C 81 % 10.21 C
309 16-07-2019 01:40:00 13.3 C 81 % 10.11 C
310 16-07-2019 01:45:00 13.2 C 82 % 10.2 C
311 16-07-2019 01:50:00 13.1 C 82 % 10.1 C
312 16-07-2019 01:55:00 13 C 82 % 10 C
313 16-07-2019 02:00:00 12.9 C 83 % 10.09 C
314 16-07-2019 02:05:00 12.8 C 83 % 9.99 C
315 16-07-2019 02:10:00 12.7 C 84 % 10.07 C
316 16-07-2019 02:15:00 12.6 C 84 % 9.97 C
317 16-07-2019 02:20:00 12.5 C 85 % 10.05 C
318 16-07-2019 02:25:00 12.4 C 85 % 9.95 C
319 16-07-2019 02:30:00 12.2 C 86 % 9.93 C
320 16-07-2019 02:35:00 12.1 C 86 % 9.83 C
321 16-07-2019 02:40:00 11.9 C 87 % 9.81 C
322 16-07-2019 02:45:00 11.7 C 87 % 9.61 C
323 16-07-2019 02:50:00 11.6 C 88 % 9.68 C
324 16-07-2019 02:55:00 11.4 C 88 % 9.49 C
325 16-07-2019 03:00:00 11.3 C 88 % 9.39 C
Sensor: Nr:Datum:Temp:Feuchte:Taupunkt:
Aussen-T/F 326 16-07-2019 03:05:00 11.2 C 89 % 9.46 C
327 16-07-2019 03:10:00 11.2 C 90 % 9.62 C
328 16-07-2019 03:15:00 11.1 C 90 % 9.52 C
329 16-07-2019 03:20:00 10.9 C 90 % 9.33 C
330 16-07-2019 03:25:00 10.9 C 90 % 9.33 C
331 16-07-2019 03:30:00 10.8 C 91 % 9.39 C
332 16-07-2019 03:35:00 10.8 C 91 % 9.39 C
333 16-07-2019 03:40:00 10.7 C 91 % 9.29 C
334 16-07-2019 03:45:00 10.7 C 91 % 9.29 C
335 16-07-2019 03:50:00 10.6 C 91 % 9.19 C
336 16-07-2019 03:55:00 10.6 C 91 % 9.19 C
337 16-07-2019 04:00:00 10.6 C 92 % 9.36 C
338 16-07-2019 04:05:00 10.5 C 92 % 9.26 C
339 16-07-2019 04:10:00 10.5 C 92 % 9.26 C
340 16-07-2019 04:15:00 10.4 C 92 % 9.16 C
341 16-07-2019 04:20:00 10.3 C 92 % 9.06 C
342 16-07-2019 04:25:00 10.3 C 92 % 9.06 C
343 16-07-2019 04:30:00 10.2 C 92 % 8.96 C
344 16-07-2019 04:35:00 10.2 C 92 % 8.96 C
345 16-07-2019 04:40:00 10.1 C 92 % 8.86 C
346 16-07-2019 04:45:00 10.1 C 93 % 9.02 C
347 16-07-2019 04:50:00 10.1 C 93 % 9.02 C
348 16-07-2019 04:55:00 10.1 C 93 % 9.02 C
349 16-07-2019 05:00:00 10.1 C 93 % 9.02 C
350 16-07-2019 05:05:00 10.2 C 93 % 9.12 C
Sensor: Nr:Datum:Temp:Feuchte:Taupunkt:
Aussen-T/F 351 16-07-2019 05:10:00 10.1 C 93 % 9.02 C
352 16-07-2019 05:15:00 10.1 C 93 % 9.02 C
353 16-07-2019 05:20:00 10.1 C 93 % 9.02 C
354 16-07-2019 05:25:00 10 C 93 % 8.92 C
355 16-07-2019 05:30:00 10 C 93 % 8.92 C
356 16-07-2019 05:35:00 9.9 C 93 % 8.82 C
357 16-07-2019 05:40:00 9.9 C 93 % 8.82 C
358 16-07-2019 05:45:00 9.8 C 93 % 8.72 C
359 16-07-2019 05:50:00 9.8 C 94 % 8.88 C
360 16-07-2019 05:55:00 9.8 C 94 % 8.88 C
361 16-07-2019 06:00:00 9.9 C 94 % 8.98 C
362 16-07-2019 06:05:00 9.9 C 94 % 8.98 C
363 16-07-2019 06:10:00 9.9 C 94 % 8.98 C
364 16-07-2019 06:15:00 9.9 C 94 % 8.98 C
365 16-07-2019 06:20:00 9.9 C 94 % 8.98 C
366 16-07-2019 06:25:00 10 C 94 % 9.08 C
367 16-07-2019 06:30:00 10.1 C 94 % 9.18 C
368 16-07-2019 06:35:00 10.1 C 95 % 9.34 C
369 16-07-2019 06:40:00 10.3 C 95 % 9.54 C
370 16-07-2019 06:45:00 10.4 C 95 % 9.63 C
371 16-07-2019 06:50:00 10.5 C 95 % 9.73 C
372 16-07-2019 06:55:00 10.6 C 95 % 9.83 C
373 16-07-2019 07:00:00 10.6 C 94 % 9.68 C
374 16-07-2019 07:05:00 10.7 C 94 % 9.77 C
375 16-07-2019 07:10:00 10.7 C 94 % 9.77 C
Sensor: Nr:Datum:Temp:Feuchte:Taupunkt:
Aussen-T/F 376 16-07-2019 07:15:00 10.8 C 94 % 9.87 C
377 16-07-2019 07:20:00 10.8 C 94 % 9.87 C
378 16-07-2019 07:25:00 10.9 C 94 % 9.97 C
379 16-07-2019 07:30:00 11 C 94 % 10.07 C
380 16-07-2019 07:35:00 11.2 C 94 % 10.27 C
381 16-07-2019 07:40:00 11.2 C 94 % 10.27 C
382 16-07-2019 07:45:00 11.3 C 93 % 10.21 C
383 16-07-2019 07:50:00 11.4 C 93 % 10.31 C
384 16-07-2019 07:55:00 11.6 C 93 % 10.51 C
385 16-07-2019 08:00:00 11.7 C 93 % 10.61 C
386 16-07-2019 08:05:00 11.8 C 93 % 10.71 C
387 16-07-2019 08:10:00 11.9 C 92 % 10.64 C
388 16-07-2019 08:15:00 12.1 C 92 % 10.84 C
389 16-07-2019 08:20:00 12.3 C 92 % 11.04 C
390 16-07-2019 08:25:00 12.4 C 91 % 10.97 C
391 16-07-2019 08:30:00 12.7 C 91 % 11.27 C
392 16-07-2019 08:35:00 12.8 C 90 % 11.2 C
393 16-07-2019 08:40:00 13.1 C 90 % 11.5 C
394 16-07-2019 08:45:00 13.3 C 89 % 11.53 C
395 16-07-2019 08:50:00 13.6 C 88 % 11.65 C
396 16-07-2019 08:55:00 13.8 C 88 % 11.85 C
397 16-07-2019 09:00:00 13.9 C 87 % 11.77 C
398 16-07-2019 09:05:00 14 C 86 % 11.7 C
399 16-07-2019 09:10:00 14.2 C 86 % 11.89 C
400 16-07-2019 09:15:00 14.3 C 86 % 11.99 C
Sensor: Nr:Datum:Temp:Feuchte:Taupunkt:
Aussen-T/F 401 16-07-2019 09:20:00 14.5 C 86 % 12.19 C
402 16-07-2019 09:25:00 14.7 C 84 % 12.03 C
403 16-07-2019 09:30:00 14.8 C 84 % 12.12 C
404 16-07-2019 09:35:00 14.8 C 83 % 11.94 C
405 16-07-2019 09:40:00 14.9 C 83 % 12.04 C
406 16-07-2019 09:45:00 14.9 C 83 % 12.04 C
407 16-07-2019 09:50:00 15 C 81 % 11.77 C
408 16-07-2019 09:55:00 15 C 81 % 11.77 C
409 16-07-2019 10:00:00 15.1 C 80 % 11.68 C
410 16-07-2019 10:05:00 15.3 C 80 % 11.87 C
411 16-07-2019 10:10:00 15.4 C 78 % 11.59 C
412 16-07-2019 10:15:00 15.4 C 78 % 11.59 C
413 16-07-2019 10:20:00 15.4 C 78 % 11.59 C
414 16-07-2019 10:25:00 15.5 C 77 % 11.49 C
415 16-07-2019 10:30:00 15.5 C 76 % 11.29 C
416 16-07-2019 10:35:00 15.6 C 77 % 11.59 C
417 16-07-2019 10:40:00 15.7 C 77 % 11.68 C
418 16-07-2019 10:45:00 15.7 C 77 % 11.68 C
419 16-07-2019 10:50:00 15.8 C 76 % 11.58 C
420 16-07-2019 10:55:00 15.8 C 76 % 11.58 C
421 16-07-2019 11:00:00 15.9 C 75 % 11.48 C
422 16-07-2019 11:05:00 15.9 C 75 % 11.48 C
423 16-07-2019 11:10:00 16 C 75 % 11.57 C
424 16-07-2019 11:15:00 16 C 75 % 11.57 C
425 16-07-2019 11:20:00 16.1 C 75 % 11.67 C
Sensor: Nr:Datum:Temp:Feuchte:Taupunkt:
Aussen-T/F 426 16-07-2019 11:25:00 16.1 C 75 % 11.67 C
427 16-07-2019 11:30:00 15.9 C 75 % 11.48 C
428 16-07-2019 11:35:00 15.8 C 75 % 11.38 C
429 16-07-2019 11:40:00 15.9 C 75 % 11.48 C
430 16-07-2019 11:45:00 16 C 74 % 11.37 C
431 16-07-2019 11:50:00 16.1 C 73 % 11.26 C
432 16-07-2019 11:55:00 16.2 C 74 % 11.56 C
433 16-07-2019 12:00:00 16.3 C 73 % 11.46 C
434 16-07-2019 12:05:00 16.3 C 73 % 11.46 C
435 16-07-2019 12:10:00 16.4 C 73 % 11.55 C
436 16-07-2019 12:15:00 16.5 C 73 % 11.65 C
437 16-07-2019 12:20:00 16.6 C 73 % 11.74 C
438 16-07-2019 12:25:00 16.7 C 72 % 11.63 C
439 16-07-2019 12:30:00 16.8 C 71 % 11.52 C
440 16-07-2019 12:35:00 16.9 C 71 % 11.61 C
441 16-07-2019 12:40:00 17 C 71 % 11.71 C
442 16-07-2019 12:45:00 17 C 71 % 11.71 C
443 16-07-2019 12:50:00 17.1 C 71 % 11.8 C
444 16-07-2019 12:55:00 17.1 C 70 % 11.59 C
445 16-07-2019 13:00:00 17.2 C 70 % 11.68 C
446 16-07-2019 13:05:00 17.2 C 71 % 11.9 C
447 16-07-2019 13:10:00 17.3 C 70 % 11.78 C
448 16-07-2019 13:15:00 17.3 C 70 % 11.78 C
449 16-07-2019 13:20:00 17.3 C 69 % 11.56 C
450 16-07-2019 13:25:00 17.2 C 70 % 11.68 C
Sensor: Nr:Datum:Temp:Feuchte:Taupunkt:
Aussen-T/F 451 16-07-2019 13:30:00 17.3 C 71 % 12 C
452 16-07-2019 13:35:00 17.7 C 70 % 12.16 C
453 16-07-2019 13:40:00 17.7 C 68 % 11.72 C
454 16-07-2019 13:45:00 17.6 C 67 % 11.4 C
455 16-07-2019 13:50:00 17.5 C 69 % 11.75 C
456 16-07-2019 13:55:00 17.6 C 68 % 11.63 C
457 16-07-2019 14:00:00 17.6 C 70 % 12.07 C
458 16-07-2019 14:05:00 17.7 C 68 % 11.72 C
459 16-07-2019 14:10:00 17.9 C 68 % 11.91 C
460 16-07-2019 14:15:00 18 C 68 % 12.01 C
461 16-07-2019 14:20:00 18.2 C 67 % 11.98 C
462 16-07-2019 14:25:00 18.3 C 66 % 11.84 C
463 16-07-2019 14:30:00 18.4 C 65 % 11.71 C
464 16-07-2019 14:35:00 18.6 C 65 % 11.9 C
465 16-07-2019 14:40:00 18.8 C 66 % 12.32 C
466 16-07-2019 14:45:00 18.9 C 65 % 12.18 C
467 16-07-2019 14:50:00 19 C 65 % 12.28 C
468 16-07-2019 14:55:00 19.2 C 65 % 12.47 C
469 16-07-2019 15:00:00 19.3 C 64 % 12.32 C
470 16-07-2019 15:05:00 19.4 C 64 % 12.42 C
471 16-07-2019 15:10:00 19.6 C 63 % 12.37 C
472 16-07-2019 15:15:00 19.6 C 62 % 12.13 C
473 16-07-2019 15:20:00 19.7 C 62 % 12.22 C
474 16-07-2019 15:25:00 20 C 61 % 12.26 C
475 16-07-2019 15:30:00 20.4 C 62 % 12.88 C
Sensor: Nr:Datum:Temp:Feuchte:Taupunkt:
Aussen-T/F 476 16-07-2019 15:35:00 20.8 C 60 % 12.76 C
477 16-07-2019 15:40:00 21.2 C 60 % 13.13 C
478 16-07-2019 15:45:00 21.3 C 57 % 12.44 C
479 16-07-2019 15:50:00 21.2 C 59 % 12.87 C
480 16-07-2019 15:55:00 21.4 C 57 % 12.53 C
481 16-07-2019 16:00:00 21.7 C 58 % 13.08 C
482 16-07-2019 16:05:00 22.1 C 58 % 13.45 C
483 16-07-2019 16:10:00 22.2 C 55 % 12.73 C
484 16-07-2019 16:15:00 22.3 C 55 % 12.83 C
485 16-07-2019 16:20:00 22.5 C 55 % 13.01 C
486 16-07-2019 16:25:00 22.7 C 54 % 12.92 C
487 16-07-2019 16:30:00 22.7 C 53 % 12.63 C
488 16-07-2019 16:35:00 22.6 C 52 % 12.25 C
489 16-07-2019 16:40:00 22.3 C 54 % 12.55 C
490 16-07-2019 16:45:00 22.1 C 55 % 12.64 C
491 16-07-2019 16:50:00 22.2 C 55 % 12.73 C
492 16-07-2019 16:55:00 22.4 C 54 % 12.64 C
493 16-07-2019 17:00:00 22.5 C 54 % 12.73 C
494 16-07-2019 17:05:00 22.7 C 53 % 12.63 C
495 16-07-2019 17:10:00 22.8 C 52 % 12.43 C
496 16-07-2019 17:15:00 22.7 C 53 % 12.63 C
497 16-07-2019 17:20:00 22.6 C 53 % 12.54 C
498 16-07-2019 17:25:00 22.7 C 54 % 12.92 C
499 16-07-2019 17:30:00 22.9 C 54 % 13.1 C
500 16-07-2019 17:35:00 23 C 53 % 12.91 C
Sensor: Nr:Datum:Temp:Feuchte:Taupunkt:
Aussen-T/F 501 16-07-2019 17:40:00 23 C 53 % 12.91 C
502 16-07-2019 17:45:00 22.9 C 53 % 12.82 C
503 16-07-2019 17:50:00 22.9 C 52 % 12.53 C
504 16-07-2019 17:55:00 22.9 C 53 % 12.82 C
505 16-07-2019 18:00:00 22.8 C 53 % 12.73 C
506 16-07-2019 18:05:00 22.8 C 53 % 12.73 C
507 16-07-2019 18:10:00 22.8 C 52 % 12.43 C
508 16-07-2019 18:15:00 22.9 C 53 % 12.82 C
509 16-07-2019 18:20:00 23.2 C 52 % 12.8 C
510 16-07-2019 18:25:00 23.3 C 51 % 12.6 C
511 16-07-2019 18:30:00 23.4 C 50 % 12.39 C
512 16-07-2019 18:35:00 23.3 C 51 % 12.6 C
513 16-07-2019 18:40:00 23.2 C 52 % 12.8 C
514 16-07-2019 18:45:00 23.2 C 52 % 12.8 C
515 16-07-2019 18:50:00 23.1 C 52 % 12.71 C
516 16-07-2019 18:55:00 22.9 C 53 % 12.82 C
517 16-07-2019 19:00:00 23 C 52 % 12.62 C
518 16-07-2019 19:05:00 23 C 53 % 12.91 C
519 16-07-2019 19:10:00 22.9 C 52 % 12.53 C
520 16-07-2019 19:15:00 22.8 C 52 % 12.43 C
521 16-07-2019 19:20:00 22.4 C 53 % 12.36 C
522 16-07-2019 19:25:00 22.1 C 54 % 12.36 C
523 16-07-2019 19:30:00 21.9 C 55 % 12.46 C
524 16-07-2019 19:35:00 21.7 C 55 % 12.27 C
525 16-07-2019 19:40:00 21.5 C 55 % 12.08 C
Sensor: Nr:Datum:Temp:Feuchte:Taupunkt:
Aussen-T/F 526 16-07-2019 19:45:00 21.4 C 56 % 12.27 C
527 16-07-2019 19:50:00 21.4 C 56 % 12.27 C
528 16-07-2019 19:55:00 21.4 C 57 % 12.53 C
529 16-07-2019 20:00:00 21.4 C 56 % 12.27 C
530 16-07-2019 20:05:00 21.4 C 57 % 12.53 C
531 16-07-2019 20:10:00 21.3 C 56 % 12.17 C
532 16-07-2019 20:15:00 21.3 C 57 % 12.44 C
533 16-07-2019 20:20:00 21.1 C 57 % 12.25 C
534 16-07-2019 20:25:00 21 C 58 % 12.43 C
535 16-07-2019 20:30:00 20.8 C 58 % 12.24 C
536 16-07-2019 20:35:00 20.6 C 59 % 12.31 C
537 16-07-2019 20:40:00 20.4 C 59 % 12.12 C
538 16-07-2019 20:45:00 20.3 C 60 % 12.29 C
539 16-07-2019 20:50:00 20.2 C 61 % 12.44 C
540 16-07-2019 20:55:00 20 C 62 % 12.5 C
541 16-07-2019 21:00:00 19.9 C 64 % 12.89 C
542 16-07-2019 21:05:00 19.7 C 65 % 12.94 C
543 16-07-2019 21:10:00 19.6 C 66 % 13.08 C
544 16-07-2019 21:15:00 19.2 C 67 % 12.93 C
545 16-07-2019 21:20:00 18.8 C 69 % 13 C
546 16-07-2019 21:25:00 18.4 C 70 % 12.83 C
547 16-07-2019 21:30:00 18.1 C 71 % 12.76 C
548 16-07-2019 21:35:00 17.8 C 72 % 12.69 C
549 16-07-2019 21:40:00 17.4 C 73 % 12.51 C
550 16-07-2019 21:45:00 17.2 C 74 % 12.53 C
Sensor: Nr:Datum:Temp:Feuchte:Taupunkt:
Aussen-T/F 551 16-07-2019 21:50:00 16.9 C 75 % 12.44 C
552 16-07-2019 21:55:00 16.7 C 76 % 12.45 C
553 16-07-2019 22:00:00 16.5 C 76 % 12.26 C
554 16-07-2019 22:05:00 16.3 C 77 % 12.26 C
555 16-07-2019 22:10:00 16.2 C 78 % 12.36 C
556 16-07-2019 22:15:00 16.1 C 78 % 12.27 C
557 16-07-2019 22:20:00 15.9 C 78 % 12.07 C
558 16-07-2019 22:25:00 15.8 C 79 % 12.17 C
559 16-07-2019 22:30:00 15.7 C 79 % 12.07 C
560 16-07-2019 22:35:00 15.7 C 80 % 12.26 C
561 16-07-2019 22:40:00 15.6 C 80 % 12.16 C
562 16-07-2019 22:45:00 15.6 C 80 % 12.16 C
563 16-07-2019 22:50:00 15.4 C 81 % 12.16 C
564 16-07-2019 22:55:00 15.4 C 80 % 11.97 C
565 16-07-2019 23:00:00 15.4 C 81 % 12.16 C
566 16-07-2019 23:05:00 15.4 C 81 % 12.16 C
567 16-07-2019 23:10:00 15.3 C 81 % 12.06 C
568 16-07-2019 23:15:00 15.3 C 81 % 12.06 C
569 16-07-2019 23:20:00 15.2 C 81 % 11.96 C
570 16-07-2019 23:25:00 15.1 C 81 % 11.87 C
571 16-07-2019 23:30:00 15.1 C 82 % 12.05 C
572 16-07-2019 23:35:00 15 C 82 % 11.95 C
573 16-07-2019 23:40:00 14.9 C 82 % 11.86 C
574 16-07-2019 23:45:00 14.8 C 83 % 11.94 C
575 16-07-2019 23:50:00 14.8 C 83 % 11.94 C
Sensor: Nr:Datum:Temp:Feuchte:Taupunkt:
Aussen-T/F 576 16-07-2019 23:55:00 14.7 C 83 % 11.85 C
577 17-07-2019 00:00:00 14.7 C 83 % 11.85 C
578 17-07-2019 00:05:00 14.6 C 83 % 11.75 C
579 17-07-2019 00:10:00 14.4 C 83 % 11.55 C
580 17-07-2019 00:15:00 14.3 C 83 % 11.45 C
581 17-07-2019 00:20:00 14.3 C 84 % 11.64 C
582 17-07-2019 00:25:00 14.1 C 84 % 11.44 C
583 17-07-2019 00:30:00 14 C 84 % 11.34 C
584 17-07-2019 00:35:00 13.9 C 85 % 11.42 C
585 17-07-2019 00:40:00 13.8 C 85 % 11.32 C
586 17-07-2019 00:45:00 13.7 C 86 % 11.4 C
587 17-07-2019 00:50:00 13.7 C 86 % 11.4 C
588 17-07-2019 00:55:00 13.6 C 86 % 11.3 C
589 17-07-2019 01:00:00 13.4 C 87 % 11.28 C
590 17-07-2019 01:05:00 13.3 C 87 % 11.18 C
591 17-07-2019 01:10:00 13.2 C 87 % 11.09 C
592 17-07-2019 01:15:00 13.2 C 88 % 11.26 C
593 17-07-2019 01:20:00 13.1 C 88 % 11.16 C
594 17-07-2019 01:25:00 13.1 C 88 % 11.16 C
595 17-07-2019 01:30:00 13.1 C 89 % 11.33 C
596 17-07-2019 01:35:00 13 C 89 % 11.23 C
597 17-07-2019 01:40:00 13 C 89 % 11.23 C
598 17-07-2019 01:45:00 12.9 C 89 % 11.13 C
599 17-07-2019 01:50:00 12.9 C 89 % 11.13 C
600 17-07-2019 01:55:00 12.8 C 89 % 11.03 C
Sensor: Nr:Datum:Temp:Feuchte:Taupunkt:
Aussen-T/F 601 17-07-2019 02:00:00 12.8 C 89 % 11.03 C
602 17-07-2019 02:05:00 12.7 C 89 % 10.94 C
603 17-07-2019 02:10:00 12.7 C 89 % 10.94 C
604 17-07-2019 02:15:00 12.6 C 89 % 10.84 C
605 17-07-2019 02:20:00 12.5 C 90 % 10.91 C
606 17-07-2019 02:25:00 12.4 C 90 % 10.81 C
607 17-07-2019 02:30:00 12.3 C 90 % 10.71 C
608 17-07-2019 02:35:00 12.3 C 90 % 10.71 C
609 17-07-2019 02:40:00 12.3 C 90 % 10.71 C
610 17-07-2019 02:45:00 12.2 C 90 % 10.61 C
611 17-07-2019 02:50:00 12.1 C 91 % 10.68 C
612 17-07-2019 02:55:00 12 C 90 % 10.41 C
613 17-07-2019 03:00:00 11.9 C 91 % 10.48 C
614 17-07-2019 03:05:00 11.8 C 91 % 10.38 C
615 17-07-2019 03:10:00 11.8 C 91 % 10.38 C
616 17-07-2019 03:15:00 11.7 C 91 % 10.28 C
617 17-07-2019 03:20:00 11.6 C 91 % 10.18 C
618 17-07-2019 03:25:00 11.6 C 92 % 10.35 C
619 17-07-2019 03:30:00 11.6 C 92 % 10.35 C
620 17-07-2019 03:35:00 11.6 C 92 % 10.35 C
621 17-07-2019 03:40:00 11.6 C 92 % 10.35 C
622 17-07-2019 03:45:00 11.5 C 92 % 10.25 C
623 17-07-2019 03:50:00 11.5 C 92 % 10.25 C
624 17-07-2019 03:55:00 11.5 C 92 % 10.25 C
625 17-07-2019 04:00:00 11.4 C 92 % 10.15 C
Sensor: Nr:Datum:Temp:Feuchte:Taupunkt:
Aussen-T/F 626 17-07-2019 04:05:00 11.4 C 93 % 10.31 C
627 17-07-2019 04:10:00 11.4 C 93 % 10.31 C
628 17-07-2019 04:15:00 11.3 C 93 % 10.21 C
629 17-07-2019 04:20:00 11.2 C 92 % 9.95 C
630 17-07-2019 04:25:00 11.2 C 93 % 10.11 C
631 17-07-2019 04:30:00 11.2 C 93 % 10.11 C
632 17-07-2019 04:35:00 11.2 C 93 % 10.11 C
633 17-07-2019 04:40:00 11.2 C 93 % 10.11 C
634 17-07-2019 04:45:00 11.1 C 93 % 10.01 C
635 17-07-2019 04:50:00 11.1 C 93 % 10.01 C
636 17-07-2019 04:55:00 11 C 93 % 9.91 C
637 17-07-2019 05:00:00 10.9 C 93 % 9.81 C
638 17-07-2019 05:05:00 10.9 C 93 % 9.81 C
639 17-07-2019 05:10:00 10.9 C 93 % 9.81 C
640 17-07-2019 05:15:00 10.9 C 94 % 9.97 C
641 17-07-2019 05:20:00 10.9 C 94 % 9.97 C
642 17-07-2019 05:25:00 10.9 C 94 % 9.97 C
643 17-07-2019 05:30:00 10.9 C 94 % 9.97 C
644 17-07-2019 05:35:00 10.8 C 94 % 9.87 C
645 17-07-2019 05:40:00 10.8 C 94 % 9.87 C
646 17-07-2019 05:45:00 10.7 C 94 % 9.77 C
647 17-07-2019 05:50:00 10.7 C 94 % 9.77 C
648 17-07-2019 05:55:00 10.7 C 94 % 9.77 C
649 17-07-2019 06:00:00 10.7 C 94 % 9.77 C
650 17-07-2019 06:05:00 10.7 C 94 % 9.77 C
Sensor: Nr:Datum:Temp:Feuchte:Taupunkt:
Aussen-T/F 651 17-07-2019 06:10:00 10.6 C 94 % 9.68 C
652 17-07-2019 06:15:00 10.6 C 94 % 9.68 C
653 17-07-2019 06:20:00 10.6 C 94 % 9.68 C
654 17-07-2019 06:25:00 10.7 C 94 % 9.77 C
655 17-07-2019 06:30:00 10.7 C 95 % 9.93 C
656 17-07-2019 06:35:00 10.7 C 95 % 9.93 C
657 17-07-2019 06:40:00 10.8 C 95 % 10.03 C
658 17-07-2019 06:45:00 10.9 C 95 % 10.13 C
659 17-07-2019 06:50:00 10.9 C 95 % 10.13 C
660 17-07-2019 06:55:00 11 C 95 % 10.23 C
661 17-07-2019 07:00:00 11.1 C 95 % 10.33 C
662 17-07-2019 07:05:00 11.1 C 95 % 10.33 C
663 17-07-2019 07:10:00 11.2 C 95 % 10.43 C
664 17-07-2019 07:15:00 11.2 C 95 % 10.43 C
665 17-07-2019 07:20:00 11.3 C 95 % 10.53 C
666 17-07-2019 07:25:00 11.4 C 95 % 10.63 C
667 17-07-2019 07:30:00 11.6 C 95 % 10.83 C
668 17-07-2019 07:35:00 11.7 C 95 % 10.93 C
669 17-07-2019 07:40:00 11.8 C 95 % 11.03 C
670 17-07-2019 07:45:00 11.8 C 96 % 11.18 C
671 17-07-2019 07:50:00 11.9 C 95 % 11.13 C
672 17-07-2019 07:55:00 12.1 C 95 % 11.32 C
673 17-07-2019 08:00:00 12.2 C 96 % 11.58 C
674 17-07-2019 08:05:00 12.3 C 95 % 11.52 C
675 17-07-2019 08:10:00 12.4 C 95 % 11.62 C
Sensor: Nr:Datum:Temp:Feuchte:Taupunkt:
Aussen-T/F 676 17-07-2019 08:15:00 12.6 C 95 % 11.82 C
677 17-07-2019 08:20:00 12.6 C 95 % 11.82 C
678 17-07-2019 08:25:00 12.7 C 95 % 11.92 C
679 17-07-2019 08:30:00 12.8 C 95 % 12.02 C
680 17-07-2019 08:35:00 12.9 C 94 % 11.96 C
681 17-07-2019 08:40:00 13.1 C 94 % 12.16 C
682 17-07-2019 08:45:00 13.2 C 94 % 12.26 C
683 17-07-2019 08:50:00 13.3 C 93 % 12.19 C
684 17-07-2019 08:55:00 13.4 C 93 % 12.29 C
685 17-07-2019 09:00:00 13.7 C 93 % 12.59 C
686 17-07-2019 09:05:00 13.8 C 92 % 12.52 C
687 17-07-2019 09:10:00 14.1 C 92 % 12.82 C
688 17-07-2019 09:15:00 14.3 C 90 % 12.68 C
689 17-07-2019 09:20:00 14.5 C 90 % 12.88 C
690 17-07-2019 09:25:00 14.7 C 89 % 12.91 C
691 17-07-2019 09:30:00 15 C 88 % 13.03 C
692 17-07-2019 09:35:00 15.3 C 87 % 13.15 C
693 17-07-2019 09:40:00 15.5 C 87 % 13.35 C
694 17-07-2019 09:45:00 15.7 C 86 % 13.37 C
695 17-07-2019 09:50:00 15.8 C 85 % 13.28 C
696 17-07-2019 09:55:00 15.9 C 84 % 13.2 C
697 17-07-2019 10:00:00 16.1 C 83 % 13.21 C
698 17-07-2019 10:05:00 16.3 C 82 % 13.22 C
699 17-07-2019 10:10:00 16.4 C 81 % 13.13 C
700 17-07-2019 10:15:00 16.6 C 81 % 13.33 C
Sensor: Nr:Datum:Temp:Feuchte:Taupunkt:
Aussen-T/F 701 17-07-2019 10:20:00 16.8 C 80 % 13.33 C
702 17-07-2019 10:25:00 17.2 C 77 % 13.14 C
703 17-07-2019 10:30:00 17.5 C 76 % 13.23 C
704 17-07-2019 10:35:00 17.8 C 75 % 13.31 C
705 17-07-2019 10:40:00 17.9 C 74 % 13.2 C
706 17-07-2019 10:45:00 18 C 73 % 13.09 C
707 17-07-2019 10:50:00 18.1 C 74 % 13.4 C
708 17-07-2019 10:55:00 18.1 C 73 % 13.19 C
709 17-07-2019 11:00:00 18.2 C 73 % 13.28 C
710 17-07-2019 11:05:00 18.1 C 73 % 13.19 C
711 17-07-2019 11:10:00 18.2 C 73 % 13.28 C
712 17-07-2019 11:15:00 18.3 C 72 % 13.17 C
713 17-07-2019 11:20:00 18.5 C 72 % 13.36 C
714 17-07-2019 11:25:00 18.6 C 71 % 13.24 C
715 17-07-2019 11:30:00 18.7 C 72 % 13.55 C
716 17-07-2019 11:35:00 18.7 C 71 % 13.34 C
717 17-07-2019 11:40:00 18.7 C 71 % 13.34 C
718 17-07-2019 11:45:00 18.8 C 71 % 13.43 C
719 17-07-2019 11:50:00 19 C 71 % 13.63 C
720 17-07-2019 11:55:00 19.2 C 70 % 13.6 C
721 17-07-2019 12:00:00 19.1 C 69 % 13.28 C
722 17-07-2019 12:05:00 19.1 C 70 % 13.5 C
723 17-07-2019 12:10:00 19.2 C 70 % 13.6 C
724 17-07-2019 12:15:00 19.2 C 70 % 13.6 C
725 17-07-2019 12:20:00 19.3 C 70 % 13.69 C
Sensor: Nr:Datum:Temp:Feuchte:Taupunkt:
Aussen-T/F 726 17-07-2019 12:25:00 19.3 C 70 % 13.69 C
727 17-07-2019 12:30:00 19.4 C 69 % 13.57 C
728 17-07-2019 12:35:00 19.4 C 68 % 13.34 C
729 17-07-2019 12:40:00 19.6 C 68 % 13.54 C
730 17-07-2019 12:45:00 19.6 C 67 % 13.31 C
731 17-07-2019 12:50:00 19.7 C 67 % 13.4 C
732 17-07-2019 12:55:00 19.8 C 67 % 13.5 C
733 17-07-2019 13:00:00 19.8 C 67 % 13.5 C
734 17-07-2019 13:05:00 19.8 C 66 % 13.27 C
735 17-07-2019 13:10:00 19.8 C 65 % 13.03 C
736 17-07-2019 13:15:00 20 C 65 % 13.22 C
737 17-07-2019 13:20:00 20.3 C 64 % 13.27 C
738 17-07-2019 13:25:00 20.6 C 64 % 13.55 C
739 17-07-2019 13:30:00 20.7 C 63 % 13.41 C
740 17-07-2019 13:35:00 20.9 C 61 % 13.1 C
741 17-07-2019 13:40:00 20.9 C 60 % 12.85 C
742 17-07-2019 13:45:00 20.9 C 60 % 12.85 C
743 17-07-2019 13:50:00 21.1 C 60 % 13.04 C
744 17-07-2019 13:55:00 21.2 C 60 % 13.13 C
745 17-07-2019 14:00:00 21.1 C 59 % 12.78 C
746 17-07-2019 14:05:00 21.1 C 60 % 13.04 C
747 17-07-2019 14:10:00 21.3 C 60 % 13.22 C
748 17-07-2019 14:15:00 21.5 C 57 % 12.63 C
749 17-07-2019 14:20:00 21.5 C 58 % 12.89 C
750 17-07-2019 14:25:00 21.7 C 60 % 13.6 C
Sensor: Nr:Datum:Temp:Feuchte:Taupunkt:
Aussen-T/F 751 17-07-2019 14:30:00 21.9 C 59 % 13.53 C
752 17-07-2019 14:35:00 21.9 C 60 % 13.79 C
753 17-07-2019 14:40:00 22.1 C 58 % 13.45 C
754 17-07-2019 14:45:00 22.1 C 58 % 13.45 C
755 17-07-2019 14:50:00 22 C 59 % 13.62 C
756 17-07-2019 14:55:00 22.1 C 59 % 13.72 C
757 17-07-2019 15:00:00 22.3 C 61 % 14.42 C
758 17-07-2019 15:05:00 22.3 C 58 % 13.64 C
759 17-07-2019 15:10:00 22.3 C 58 % 13.64 C
760 17-07-2019 15:15:00 22.3 C 60 % 14.16 C
761 17-07-2019 15:20:00 22.4 C 59 % 14 C
762 17-07-2019 15:25:00 22.7 C 58 % 14.01 C
763 17-07-2019 15:30:00 22.7 C 56 % 13.47 C
764 17-07-2019 15:35:00 22.8 C 58 % 14.11 C
765 17-07-2019 15:40:00 22.9 C 57 % 13.93 C
766 17-07-2019 15:45:00 23.1 C 57 % 14.12 C
767 17-07-2019 15:50:00 23.2 C 56 % 13.94 C
768 17-07-2019 15:55:00 23.3 C 58 % 14.58 C
769 17-07-2019 16:00:00 23.3 C 55 % 13.76 C
770 17-07-2019 16:05:00 23.3 C 57 % 14.31 C
771 17-07-2019 16:10:00 23.2 C 56 % 13.94 C
772 17-07-2019 16:15:00 23.1 C 56 % 13.85 C
773 17-07-2019 16:20:00 23.2 C 58 % 14.48 C
774 17-07-2019 16:25:00 23.7 C 55 % 14.13 C
775 17-07-2019 16:30:00 23.9 C 54 % 14.03 C
Sensor: Nr:Datum:Temp:Feuchte:Taupunkt:
Aussen-T/F 776 17-07-2019 16:35:00 24.1 C 54 % 14.21 C
777 17-07-2019 16:40:00 24.1 C 53 % 13.93 C
778 17-07-2019 16:45:00 24.1 C 54 % 14.21 C
779 17-07-2019 16:50:00 24.2 C 53 % 14.02 C
780 17-07-2019 16:55:00 23.9 C 54 % 14.03 C
781 17-07-2019 17:00:00 23.7 C 55 % 14.13 C
782 17-07-2019 17:05:00 24 C 54 % 14.12 C
783 17-07-2019 17:10:00 24.3 C 54 % 14.4 C
784 17-07-2019 17:15:00 24.6 C 54 % 14.68 C
785 17-07-2019 17:20:00 24.6 C 52 % 14.09 C
786 17-07-2019 17:25:00 24.7 C 53 % 14.48 C
787 17-07-2019 17:30:00 24.8 C 53 % 14.57 C
788 17-07-2019 17:35:00 24.8 C 52 % 14.28 C
789 17-07-2019 17:40:00 24.7 C 52 % 14.19 C
790 17-07-2019 17:45:00 24.9 C 53 % 14.66 C
791 17-07-2019 17:50:00 25 C 51 % 14.16 C
792 17-07-2019 17:55:00 24.8 C 53 % 14.57 C
793 17-07-2019 18:00:00 24.8 C 53 % 14.57 C
794 17-07-2019 18:05:00 24.7 C 53 % 14.48 C
795 17-07-2019 18:10:00 24.7 C 52 % 14.19 C
796 17-07-2019 18:15:00 24.6 C 53 % 14.39 C
797 17-07-2019 18:20:00 24.4 C 53 % 14.2 C
798 17-07-2019 18:25:00 24.2 C 54 % 14.31 C
799 17-07-2019 18:30:00 24.1 C 55 % 14.5 C
800 17-07-2019 18:35:00 23.9 C 55 % 14.31 C
Sensor: Nr:Datum:Temp:Feuchte:Taupunkt:
Aussen-T/F 801 17-07-2019 18:40:00 23.8 C 56 % 14.5 C
802 17-07-2019 18:45:00 23.9 C 56 % 14.59 C
803 17-07-2019 18:50:00 23.9 C 55 % 14.31 C
804 17-07-2019 18:55:00 23.9 C 55 % 14.31 C
805 17-07-2019 19:00:00 23.7 C 57 % 14.68 C
806 17-07-2019 19:05:00 23.7 C 57 % 14.68 C
807 17-07-2019 19:10:00 23.9 C 56 % 14.59 C
808 17-07-2019 19:15:00 23.7 C 57 % 14.68 C
809 17-07-2019 19:20:00 23.6 C 58 % 14.86 C
810 17-07-2019 19:25:00 23.6 C 57 % 14.59 C
811 17-07-2019 19:30:00 23.3 C 58 % 14.58 C
812 17-07-2019 19:35:00 23.1 C 59 % 14.65 C
813 17-07-2019 19:40:00 22.7 C 60 % 14.54 C
814 17-07-2019 19:45:00 22.5 C 60 % 14.35 C
815 17-07-2019 19:50:00 22.4 C 61 % 14.51 C
816 17-07-2019 19:55:00 22.3 C 62 % 14.67 C
817 17-07-2019 20:00:00 22.2 C 61 % 14.32 C
818 17-07-2019 20:05:00 22.2 C 61 % 14.32 C
819 17-07-2019 20:10:00 22.1 C 62 % 14.48 C
820 17-07-2019 20:15:00 21.9 C 63 % 14.54 C
821 17-07-2019 20:20:00 21.8 C 64 % 14.69 C
822 17-07-2019 20:25:00 21.6 C 65 % 14.74 C
823 17-07-2019 20:30:00 21.4 C 65 % 14.55 C
824 17-07-2019 20:35:00 21.3 C 65 % 14.46 C
825 17-07-2019 20:40:00 21.2 C 65 % 14.36 C
Sensor: Nr:Datum:Temp:Feuchte:Taupunkt:
Aussen-T/F 826 17-07-2019 20:45:00 21 C 66 % 14.41 C
827 17-07-2019 20:50:00 20.9 C 67 % 14.55 C
828 17-07-2019 20:55:00 20.7 C 67 % 14.36 C
829 17-07-2019 21:00:00 20.6 C 68 % 14.49 C
830 17-07-2019 21:05:00 20.4 C 68 % 14.3 C
831 17-07-2019 21:10:00 20.3 C 68 % 14.2 C
832 17-07-2019 21:15:00 20.2 C 69 % 14.33 C
833 17-07-2019 21:20:00 20.1 C 69 % 14.24 C
834 17-07-2019 21:25:00 20.1 C 70 % 14.46 C
835 17-07-2019 21:30:00 19.9 C 71 % 14.49 C
836 17-07-2019 21:35:00 19.6 C 71 % 14.2 C
837 17-07-2019 21:40:00 19.3 C 72 % 14.13 C
838 17-07-2019 21:45:00 18.9 C 73 % 13.96 C
839 17-07-2019 21:50:00 18.6 C 74 % 13.88 C
840 17-07-2019 21:55:00 18.3 C 75 % 13.79 C
841 17-07-2019 22:00:00 18 C 76 % 13.71 C
842 17-07-2019 22:05:00 17.7 C 77 % 13.62 C
843 17-07-2019 22:10:00 17.5 C 78 % 13.62 C
844 17-07-2019 22:15:00 17.3 C 79 % 13.63 C
845 17-07-2019 22:20:00 17.2 C 80 % 13.72 C
846 17-07-2019 22:25:00 17.1 C 80 % 13.62 C
847 17-07-2019 22:30:00 16.9 C 81 % 13.62 C
848 17-07-2019 22:35:00 16.8 C 81 % 13.52 C
849 17-07-2019 22:40:00 16.7 C 81 % 13.43 C
850 17-07-2019 22:45:00 16.6 C 82 % 13.52 C
Sensor: Nr:Datum:Temp:Feuchte:Taupunkt:
Aussen-T/F 851 17-07-2019 22:50:00 16.4 C 82 % 13.32 C
852 17-07-2019 22:55:00 16.4 C 83 % 13.51 C
853 17-07-2019 23:00:00 16.3 C 84 % 13.59 C
854 17-07-2019 23:05:00 16.3 C 84 % 13.59 C
855 17-07-2019 23:10:00 16.3 C 84 % 13.59 C
856 17-07-2019 23:15:00 16.2 C 84 % 13.5 C
857 17-07-2019 23:20:00 16.2 C 84 % 13.5 C
858 17-07-2019 23:25:00 16.1 C 84 % 13.4 C
859 17-07-2019 23:30:00 16 C 85 % 13.48 C
860 17-07-2019 23:35:00 15.9 C 85 % 13.38 C
861 17-07-2019 23:40:00 15.8 C 85 % 13.28 C
862 17-07-2019 23:45:00 15.8 C 85 % 13.28 C
863 17-07-2019 23:50:00 15.7 C 85 % 13.19 C
864 17-07-2019 23:55:00 15.7 C 85 % 13.19 C
865 18-07-2019 00:00:00 15.6 C 85 % 13.09 C
866 18-07-2019 00:05:00 15.6 C 85 % 13.09 C
867 18-07-2019 00:10:00 15.5 C 86 % 13.17 C
868 18-07-2019 00:15:00 15.4 C 86 % 13.07 C
869 18-07-2019 00:20:00 15.4 C 86 % 13.07 C
870 18-07-2019 00:25:00 15.3 C 86 % 12.97 C
871 18-07-2019 00:30:00 15.3 C 86 % 12.97 C
872 18-07-2019 00:35:00 15.2 C 86 % 12.88 C
873 18-07-2019 00:40:00 15.2 C 86 % 12.88 C
874 18-07-2019 00:45:00 15.1 C 87 % 12.95 C
875 18-07-2019 00:50:00 15 C 87 % 12.86 C
Sensor: Nr:Datum:Temp:Feuchte:Taupunkt:
Aussen-T/F 876 18-07-2019 00:55:00 14.9 C 87 % 12.76 C
877 18-07-2019 01:00:00 14.8 C 87 % 12.66 C
878 18-07-2019 01:05:00 14.7 C 88 % 12.73 C
879 18-07-2019 01:10:00 14.7 C 88 % 12.73 C
880 18-07-2019 01:15:00 14.6 C 88 % 12.64 C
881 18-07-2019 01:20:00 14.4 C 88 % 12.44 C
882 18-07-2019 01:25:00 14.4 C 88 % 12.44 C
883 18-07-2019 01:30:00 14.3 C 88 % 12.34 C
884 18-07-2019 01:35:00 14.1 C 89 % 12.32 C
885 18-07-2019 01:40:00 14 C 89 % 12.22 C
886 18-07-2019 01:45:00 13.9 C 89 % 12.12 C
887 18-07-2019 01:50:00 13.8 C 90 % 12.19 C
888 18-07-2019 01:55:00 13.8 C 90 % 12.19 C
889 18-07-2019 02:00:00 13.8 C 90 % 12.19 C
890 18-07-2019 02:05:00 13.8 C 91 % 12.36 C
891 18-07-2019 02:10:00 13.7 C 91 % 12.26 C
892 18-07-2019 02:15:00 13.7 C 91 % 12.26 C
893 18-07-2019 02:20:00 13.7 C 91 % 12.26 C
894 18-07-2019 02:25:00 13.7 C 91 % 12.26 C
895 18-07-2019 02:30:00 13.6 C 91 % 12.16 C
896 18-07-2019 02:35:00 13.6 C 91 % 12.16 C
897 18-07-2019 02:40:00 13.7 C 92 % 12.42 C
898 18-07-2019 02:45:00 13.7 C 92 % 12.42 C
899 18-07-2019 02:50:00 13.7 C 92 % 12.42 C
900 18-07-2019 02:55:00 13.6 C 92 % 12.33 C
Sensor: Nr:Datum:Temp:Feuchte:Taupunkt:
Aussen-T/F 901 18-07-2019 03:00:00 13.6 C 92 % 12.33 C
902 18-07-2019 03:05:00 13.6 C 92 % 12.33 C
903 18-07-2019 03:10:00 13.5 C 92 % 12.23 C
904 18-07-2019 03:15:00 13.5 C 92 % 12.23 C
905 18-07-2019 03:20:00 13.5 C 92 % 12.23 C
906 18-07-2019 03:25:00 13.4 C 92 % 12.13 C
907 18-07-2019 03:30:00 13.4 C 92 % 12.13 C
908 18-07-2019 03:35:00 13.4 C 92 % 12.13 C
909 18-07-2019 03:40:00 13.4 C 92 % 12.13 C
910 18-07-2019 03:45:00 13.4 C 93 % 12.29 C
911 18-07-2019 03:50:00 13.4 C 93 % 12.29 C
912 18-07-2019 03:55:00 13.4 C 93 % 12.29 C
913 18-07-2019 04:00:00 13.4 C 93 % 12.29 C
914 18-07-2019 04:05:00 13.4 C 93 % 12.29 C
915 18-07-2019 04:10:00 13.4 C 93 % 12.29 C
916 18-07-2019 04:15:00 13.4 C 93 % 12.29 C
917 18-07-2019 04:20:00 13.3 C 93 % 12.19 C
918 18-07-2019 04:25:00 13.3 C 93 % 12.19 C
919 18-07-2019 04:30:00 13.3 C 93 % 12.19 C
920 18-07-2019 04:35:00 13.2 C 93 % 12.09 C
921 18-07-2019 04:40:00 13.2 C 93 % 12.09 C
922 18-07-2019 04:45:00 13.1 C 93 % 11.99 C
923 18-07-2019 04:50:00 13 C 92 % 11.73 C
924 18-07-2019 04:55:00 12.9 C 93 % 11.8 C
925 18-07-2019 05:00:00 12.9 C 93 % 11.8 C
Sensor: Nr:Datum:Temp:Feuchte:Taupunkt:
Aussen-T/F 926 18-07-2019 05:05:00 12.8 C 93 % 11.7 C
927 18-07-2019 05:10:00 12.8 C 93 % 11.7 C
928 18-07-2019 05:15:00 12.8 C 93 % 11.7 C
929 18-07-2019 05:20:00 12.8 C 93 % 11.7 C
930 18-07-2019 05:25:00 12.7 C 93 % 11.6 C
931 18-07-2019 05:30:00 12.7 C 93 % 11.6 C
932 18-07-2019 05:35:00 12.6 C 93 % 11.5 C
933 18-07-2019 05:40:00 12.6 C 93 % 11.5 C
934 18-07-2019 05:45:00 12.5 C 93 % 11.4 C
935 18-07-2019 05:50:00 12.5 C 93 % 11.4 C
936 18-07-2019 05:55:00 12.4 C 94 % 11.46 C
937 18-07-2019 06:00:00 12.4 C 94 % 11.46 C
938 18-07-2019 06:05:00 12.4 C 94 % 11.46 C
939 18-07-2019 06:10:00 12.4 C 94 % 11.46 C
940 18-07-2019 06:15:00 12.3 C 94 % 11.36 C
941 18-07-2019 06:20:00 12.4 C 94 % 11.46 C
942 18-07-2019 06:25:00 12.4 C 94 % 11.46 C
943 18-07-2019 06:30:00 12.4 C 94 % 11.46 C
944 18-07-2019 06:35:00 12.4 C 94 % 11.46 C
945 18-07-2019 06:40:00 12.5 C 95 % 11.72 C
946 18-07-2019 06:45:00 12.6 C 95 % 11.82 C
947 18-07-2019 06:50:00 12.6 C 95 % 11.82 C
948 18-07-2019 06:55:00 12.7 C 95 % 11.92 C
949 18-07-2019 07:00:00 12.8 C 95 % 12.02 C
950 18-07-2019 07:05:00 12.9 C 95 % 12.12 C
Sensor: Nr:Datum:Temp:Feuchte:Taupunkt:
Aussen-T/F 951 18-07-2019 07:10:00 13 C 95 % 12.22 C
952 18-07-2019 07:15:00 13.1 C 95 % 12.32 C
953 18-07-2019 07:20:00 13.2 C 95 % 12.42 C
954 18-07-2019 07:25:00 13.2 C 95 % 12.42 C
955 18-07-2019 07:30:00 13.3 C 95 % 12.52 C
956 18-07-2019 07:35:00 13.4 C 95 % 12.62 C
957 18-07-2019 07:40:00 13.4 C 95 % 12.62 C
958 18-07-2019 07:45:00 13.5 C 95 % 12.72 C
959 18-07-2019 07:50:00 13.6 C 95 % 12.81 C
960 18-07-2019 07:55:00 13.7 C 95 % 12.91 C
961 18-07-2019 08:00:00 13.7 C 94 % 12.75 C
962 18-07-2019 08:05:00 13.8 C 94 % 12.85 C
963 18-07-2019 08:10:00 13.9 C 94 % 12.95 C
964 18-07-2019 08:15:00 14 C 94 % 13.05 C
965 18-07-2019 08:20:00 14.1 C 94 % 13.15 C
966 18-07-2019 08:25:00 14.3 C 94 % 13.35 C
967 18-07-2019 08:30:00 14.3 C 93 % 13.18 C
968 18-07-2019 08:35:00 14.4 C 93 % 13.28 C
969 18-07-2019 08:40:00 14.6 C 92 % 13.32 C
970 18-07-2019 08:45:00 14.7 C 92 % 13.41 C
971 18-07-2019 08:50:00 14.9 C 92 % 13.61 C
972 18-07-2019 08:55:00 15.1 C 92 % 13.81 C
973 18-07-2019 09:00:00 15.2 C 92 % 13.91 C
974 18-07-2019 09:05:00 15.4 C 92 % 14.11 C
975 18-07-2019 09:10:00 15.6 C 91 % 14.14 C
Sensor: Nr:Datum:Temp:Feuchte:Taupunkt:
Aussen-T/F 976 18-07-2019 09:15:00 15.7 C 91 % 14.24 C
977 18-07-2019 09:20:00 15.9 C 91 % 14.43 C
978 18-07-2019 09:25:00 16.1 C 89 % 14.29 C
979 18-07-2019 09:30:00 16.3 C 88 % 14.31 C
980 18-07-2019 09:35:00 16.4 C 88 % 14.41 C
981 18-07-2019 09:40:00 16.7 C 88 % 14.7 C
982 18-07-2019 09:45:00 16.9 C 86 % 14.54 C
983 18-07-2019 09:50:00 17.1 C 86 % 14.74 C
984 18-07-2019 09:55:00 17.3 C 87 % 15.12 C
985 18-07-2019 10:00:00 17.4 C 87 % 15.21 C
986 18-07-2019 10:05:00 17.6 C 85 % 15.05 C
987 18-07-2019 10:10:00 17.7 C 85 % 15.15 C
988 18-07-2019 10:15:00 17.9 C 85 % 15.34 C
989 18-07-2019 10:20:00 18.2 C 84 % 15.45 C
990 18-07-2019 10:25:00 18.5 C 83 % 15.56 C
991 18-07-2019 10:30:00 18.9 C 80 % 15.38 C
992 18-07-2019 10:35:00 19.3 C 80 % 15.76 C
993 18-07-2019 10:40:00 19.7 C 78 % 15.76 C
994 18-07-2019 10:45:00 20 C 77 % 15.85 C
995 18-07-2019 10:50:00 20.3 C 77 % 16.14 C
996 18-07-2019 10:55:00 20.5 C 75 % 15.92 C
997 18-07-2019 11:00:00 20.7 C 76 % 16.32 C
998 18-07-2019 11:05:00 20.8 C 74 % 16 C
999 18-07-2019 11:10:00 20.9 C 73 % 15.88 C
1000 18-07-2019 11:15:00 21.1 C 68 % 14.97 C
Sensor: Nr:Datum:Temp:Feuchte:Taupunkt:
Aussen-T/F 1001 18-07-2019 11:20:00 21.3 C 64 % 14.22 C
1002 18-07-2019 11:25:00 21.7 C 62 % 14.1 C
1003 18-07-2019 11:30:00 22.1 C 62 % 14.48 C
1004 18-07-2019 11:35:00 22.3 C 60 % 14.16 C
1005 18-07-2019 11:40:00 22.6 C 60 % 14.44 C
1006 18-07-2019 11:45:00 22.9 C 58 % 14.2 C
1007 18-07-2019 11:50:00 23.1 C 58 % 14.39 C
1008 18-07-2019 11:55:00 23.2 C 58 % 14.48 C
1009 18-07-2019 12:00:00 23.3 C 59 % 14.84 C
1010 18-07-2019 12:05:00 23.4 C 57 % 14.4 C
1011 18-07-2019 12:10:00 23.6 C 55 % 14.03 C
1012 18-07-2019 12:15:00 23.8 C 56 % 14.5 C
1013 18-07-2019 12:20:00 23.9 C 54 % 14.03 C
1014 18-07-2019 12:25:00 24.3 C 54 % 14.4 C
1015 18-07-2019 12:30:00 24.5 C 54 % 14.58 C
1016 18-07-2019 12:35:00 24.7 C 53 % 14.48 C
1017 18-07-2019 12:40:00 24.7 C 52 % 14.19 C
1018 18-07-2019 12:45:00 24.7 C 52 % 14.19 C
1019 18-07-2019 12:50:00 24.7 C 54 % 14.77 C
1020 18-07-2019 12:55:00 24.6 C 50 % 13.49 C
1021 18-07-2019 13:00:00 24.8 C 51 % 13.98 C
1022 18-07-2019 13:05:00 24.9 C 50 % 13.77 C
1023 18-07-2019 13:10:00 25.1 C 50 % 13.95 C
1024 18-07-2019 13:15:00 25.2 C 50 % 14.04 C
1025 18-07-2019 13:20:00 25.4 C 50 % 14.22 C
Sensor: Nr:Datum:Temp:Feuchte:Taupunkt:
Aussen-T/F 1026 18-07-2019 13:25:00 25.6 C 49 % 14.1 C
1027 18-07-2019 13:30:00 25.8 C 49 % 14.28 C
1028 18-07-2019 13:35:00 26.1 C 50 % 14.87 C
1029 18-07-2019 13:40:00 26.3 C 50 % 15.05 C
1030 18-07-2019 13:45:00 26.3 C 47 % 14.09 C
1031 18-07-2019 13:50:00 26.4 C 49 % 14.83 C
1032 18-07-2019 13:55:00 26.7 C 44 % 13.44 C
1033 18-07-2019 14:00:00 26.8 C 42 % 12.82 C
1034 18-07-2019 14:05:00 27 C 45 % 14.06 C
1035 18-07-2019 14:10:00 27.3 C 42 % 13.27 C
1036 18-07-2019 14:15:00 27.4 C 41 % 12.99 C
1037 18-07-2019 14:20:00 27.6 C 40 % 12.79 C
1038 18-07-2019 14:25:00 27.5 C 39 % 12.31 C
1039 18-07-2019 14:30:00 27.3 C 41 % 12.9 C
1040 18-07-2019 14:35:00 27.2 C 42 % 13.18 C
1041 18-07-2019 14:40:00 27.2 C 40 % 12.43 C
1042 18-07-2019 14:45:00 27.2 C 42 % 13.18 C
1043 18-07-2019 14:50:00 27.1 C 39 % 11.96 C
1044 18-07-2019 14:55:00 26.9 C 40 % 12.16 C
1045 18-07-2019 15:00:00 26.8 C 39 % 11.69 C
1046 18-07-2019 15:05:00 26.8 C 45 % 13.87 C
1047 18-07-2019 15:10:00 26.6 C 42 % 12.64 C
1048 18-07-2019 15:15:00 26.3 C 44 % 13.08 C
1049 18-07-2019 15:20:00 26.1 C 44 % 12.9 C
1050 18-07-2019 15:25:00 25.9 C 48 % 14.05 C
Sensor: Nr:Datum:Temp:Feuchte:Taupunkt:
Aussen-T/F 1051 18-07-2019 15:30:00 25.8 C 50 % 14.59 C
1052 18-07-2019 15:35:00 25.7 C 43 % 12.19 C
1053 18-07-2019 15:40:00 25.7 C 44 % 12.54 C
1054 18-07-2019 15:45:00 25.6 C 43 % 12.1 C
1055 18-07-2019 15:50:00 25.6 C 45 % 12.79 C
1056 18-07-2019 15:55:00 25.6 C 52 % 15.02 C
1057 18-07-2019 16:00:00 25.5 C 52 % 14.92 C
1058 18-07-2019 16:05:00 25.2 C 51 % 14.35 C
1059 18-07-2019 16:10:00 24.9 C 53 % 14.66 C
1060 18-07-2019 16:15:00 24.7 C 55 % 15.05 C
1061 18-07-2019 16:20:00 24.5 C 57 % 15.42 C
1062 18-07-2019 16:25:00 24.6 C 51 % 13.79 C
1063 18-07-2019 16:30:00 24.6 C 50 % 13.49 C
1064 18-07-2019 16:35:00 24.6 C 50 % 13.49 C
1065 18-07-2019 16:40:00 24.5 C 52 % 14 C
1066 18-07-2019 16:45:00 24.6 C 52 % 14.09 C
1067 18-07-2019 16:50:00 24.7 C 51 % 13.89 C
1068 18-07-2019 16:55:00 24.8 C 55 % 15.15 C
1069 18-07-2019 17:00:00 24.9 C 50 % 13.77 C
1070 18-07-2019 17:05:00 24.9 C 50 % 13.77 C
1071 18-07-2019 17:10:00 24.9 C 53 % 14.66 C
1072 18-07-2019 17:15:00 24.8 C 54 % 14.86 C
1073 18-07-2019 17:20:00 24.8 C 57 % 15.7 C
1074 18-07-2019 17:25:00 24.8 C 55 % 15.15 C
1075 18-07-2019 17:30:00 24.8 C 55 % 15.15 C
Sensor: Nr:Datum:Temp:Feuchte:Taupunkt:
Aussen-T/F 1076 18-07-2019 17:35:00 24.9 C 57 % 15.8 C
1077 18-07-2019 17:40:00 24.9 C 58 % 16.07 C
1078 18-07-2019 17:45:00 24.8 C 59 % 16.24 C
1079 18-07-2019 17:50:00 24.8 C 62 % 17.02 C
1080 18-07-2019 17:55:00 24.8 C 63 % 17.28 C
1081 18-07-2019 18:00:00 24.7 C 56 % 15.33 C
1082 18-07-2019 18:05:00 24.8 C 61 % 16.77 C
1083 18-07-2019 18:10:00 24.8 C 60 % 16.51 C
1084 18-07-2019 18:15:00 24.8 C 52 % 14.28 C
1085 18-07-2019 18:20:00 24.7 C 54 % 14.77 C
1086 18-07-2019 18:25:00 24.7 C 51 % 13.89 C
1087 18-07-2019 18:30:00 24.6 C 66 % 17.83 C
1088 18-07-2019 18:35:00 24.2 C 66 % 17.45 C
1089 18-07-2019 18:40:00 23.5 C 70 % 17.71 C
1090 18-07-2019 18:45:00 22.8 C 71 % 17.27 C
1091 18-07-2019 18:50:00 22.3 C 73 % 17.23 C
1092 18-07-2019 18:55:00 21.8 C 73 % 16.75 C
1093 18-07-2019 19:00:00 21.6 C 74 % 16.77 C
1094 18-07-2019 19:05:00 21.4 C 75 % 16.79 C
1095 18-07-2019 19:10:00 21.3 C 76 % 16.9 C
1096 18-07-2019 19:15:00 21.2 C 75 % 16.59 C
1097 18-07-2019 19:20:00 21.2 C 76 % 16.8 C
1098 18-07-2019 19:25:00 21.1 C 75 % 16.5 C
1099 18-07-2019 19:30:00 21 C 75 % 16.4 C
1100 18-07-2019 19:35:00 20.9 C 75 % 16.3 C
Sensor: Nr:Datum:Temp:Feuchte:Taupunkt:
Aussen-T/F 1101 18-07-2019 19:40:00 20.9 C 74 % 16.09 C
1102 18-07-2019 19:45:00 20.8 C 73 % 15.78 C
1103 18-07-2019 19:50:00 20.7 C 72 % 15.47 C
1104 18-07-2019 19:55:00 20.7 C 71 % 15.25 C
1105 18-07-2019 20:00:00 20.7 C 72 % 15.47 C
1106 18-07-2019 20:05:00 20.7 C 71 % 15.25 C
1107 18-07-2019 20:10:00 20.8 C 72 % 15.57 C
1108 18-07-2019 20:15:00 20.8 C 71 % 15.35 C
1109 18-07-2019 20:20:00 20.9 C 70 % 15.23 C
1110 18-07-2019 20:25:00 21 C 70 % 15.32 C
1111 18-07-2019 20:30:00 21 C 69 % 15.1 C
1112 18-07-2019 20:35:00 21 C 69 % 15.1 C
1113 18-07-2019 20:40:00 21 C 69 % 15.1 C
1114 18-07-2019 20:45:00 20.9 C 69 % 15 C
1115 18-07-2019 20:50:00 20.8 C 69 % 14.91 C
1116 18-07-2019 20:55:00 20.8 C 69 % 14.91 C
1117 18-07-2019 21:00:00 20.8 C 68 % 14.68 C
1118 18-07-2019 21:05:00 20.7 C 68 % 14.58 C
1119 18-07-2019 21:10:00 20.6 C 69 % 14.71 C
1120 18-07-2019 21:15:00 20.6 C 68 % 14.49 C
1121 18-07-2019 21:20:00 20.4 C 69 % 14.52 C
1122 18-07-2019 21:25:00 20.4 C 69 % 14.52 C
1123 18-07-2019 21:30:00 20.3 C 69 % 14.43 C
1124 18-07-2019 21:35:00 20.2 C 69 % 14.33 C
1125 18-07-2019 21:40:00 20.2 C 70 % 14.56 C
Sensor: Nr:Datum:Temp:Feuchte:Taupunkt:
Aussen-T/F 1126 18-07-2019 21:45:00 20.1 C 70 % 14.46 C
1127 18-07-2019 21:50:00 20 C 70 % 14.36 C
1128 18-07-2019 21:55:00 19.9 C 70 % 14.27 C
1129 18-07-2019 22:00:00 19.8 C 70 % 14.17 C
1130 18-07-2019 22:05:00 19.8 C 71 % 14.39 C
1131 18-07-2019 22:10:00 19.8 C 71 % 14.39 C
1132 18-07-2019 22:15:00 19.7 C 71 % 14.3 C
1133 18-07-2019 22:20:00 19.7 C 71 % 14.3 C
1134 18-07-2019 22:25:00 19.7 C 72 % 14.51 C
1135 18-07-2019 22:30:00 19.7 C 73 % 14.73 C
1136 18-07-2019 22:35:00 19.7 C 73 % 14.73 C
1137 18-07-2019 22:40:00 19.6 C 72 % 14.42 C
1138 18-07-2019 22:45:00 19.6 C 72 % 14.42 C
1139 18-07-2019 22:50:00 19.5 C 72 % 14.32 C
1140 18-07-2019 22:55:00 19.4 C 72 % 14.22 C
1141 18-07-2019 23:00:00 19.4 C 72 % 14.22 C
1142 18-07-2019 23:05:00 19.4 C 72 % 14.22 C
1143 18-07-2019 23:10:00 19.4 C 72 % 14.22 C
1144 18-07-2019 23:15:00 19.3 C 72 % 14.13 C
1145 18-07-2019 23:20:00 19.3 C 73 % 14.34 C
1146 18-07-2019 23:25:00 19.3 C 73 % 14.34 C
1147 18-07-2019 23:30:00 19.3 C 73 % 14.34 C
1148 18-07-2019 23:35:00 19.3 C 73 % 14.34 C
1149 18-07-2019 23:40:00 19.3 C 72 % 14.13 C
1150 18-07-2019 23:45:00 19.4 C 73 % 14.44 C
Sensor: Nr:Datum:Temp:Feuchte:Taupunkt:
Aussen-T/F 1151 18-07-2019 23:50:00 19.4 C 73 % 14.44 C
1152 18-07-2019 23:55:00 19.5 C 72 % 14.32 C
1153 19-07-2019 00:00:00 19.6 C 72 % 14.42 C
1154 19-07-2019 00:05:00 19.6 C 73 % 14.63 C
1155 19-07-2019 00:10:00 19.5 C 73 % 14.53 C
1156 19-07-2019 00:15:00 19.5 C 74 % 14.74 C
1157 19-07-2019 00:20:00 19.4 C 74 % 14.65 C
1158 19-07-2019 00:25:00 19.3 C 74 % 14.55 C
1159 19-07-2019 00:30:00 19.3 C 74 % 14.55 C
1160 19-07-2019 00:35:00 19.2 C 74 % 14.46 C
1161 19-07-2019 00:40:00 19.2 C 74 % 14.46 C
1162 19-07-2019 00:45:00 19.2 C 75 % 14.66 C
1163 19-07-2019 00:50:00 19.1 C 76 % 14.77 C
1164 19-07-2019 00:55:00 19.1 C 76 % 14.77 C
1165 19-07-2019 01:00:00 19 C 76 % 14.68 C
1166 19-07-2019 01:05:00 18.9 C 77 % 14.78 C
1167 19-07-2019 01:10:00 18.9 C 78 % 14.98 C
1168 19-07-2019 01:15:00 18.9 C 79 % 15.18 C
1169 19-07-2019 01:20:00 18.8 C 81 % 15.47 C
1170 19-07-2019 01:25:00 18.7 C 83 % 15.75 C
1171 19-07-2019 01:30:00 18.5 C 84 % 15.75 C
1172 19-07-2019 01:35:00 18.3 C 84 % 15.55 C
1173 19-07-2019 01:40:00 18.1 C 85 % 15.54 C
1174 19-07-2019 01:45:00 17.9 C 87 % 15.71 C
1175 19-07-2019 01:50:00 17.8 C 87 % 15.61 C
Sensor: Nr:Datum:Temp:Feuchte:Taupunkt:
Aussen-T/F 1176 19-07-2019 01:55:00 17.7 C 88 % 15.69 C
1177 19-07-2019 02:00:00 17.6 C 88 % 15.59 C
1178 19-07-2019 02:05:00 17.4 C 89 % 15.57 C
1179 19-07-2019 02:10:00 17.3 C 89 % 15.47 C
1180 19-07-2019 02:15:00 17.2 C 89 % 15.37 C
1181 19-07-2019 02:20:00 17.1 C 89 % 15.27 C
1182 19-07-2019 02:25:00 17 C 90 % 15.35 C
1183 19-07-2019 02:30:00 16.9 C 90 % 15.25 C
1184 19-07-2019 02:35:00 16.9 C 91 % 15.42 C
1185 19-07-2019 02:40:00 16.9 C 91 % 15.42 C
1186 19-07-2019 02:45:00 16.8 C 91 % 15.32 C
1187 19-07-2019 02:50:00 16.8 C 91 % 15.32 C
1188 19-07-2019 02:55:00 16.8 C 91 % 15.32 C
1189 19-07-2019 03:00:00 16.7 C 91 % 15.22 C
1190 19-07-2019 03:05:00 16.7 C 91 % 15.22 C
1191 19-07-2019 03:10:00 16.7 C 92 % 15.39 C
1192 19-07-2019 03:15:00 16.7 C 92 % 15.39 C
1193 19-07-2019 03:20:00 16.6 C 92 % 15.3 C
1194 19-07-2019 03:25:00 16.6 C 92 % 15.3 C
1195 19-07-2019 03:30:00 16.6 C 93 % 15.46 C
1196 19-07-2019 03:35:00 16.6 C 93 % 15.46 C
1197 19-07-2019 03:40:00 16.6 C 93 % 15.46 C
1198 19-07-2019 03:45:00 16.5 C 93 % 15.36 C
1199 19-07-2019 03:50:00 16.5 C 93 % 15.36 C
1200 19-07-2019 03:55:00 16.5 C 93 % 15.36 C
Sensor: Nr:Datum:Temp:Feuchte:Taupunkt:
Aussen-T/F 1201 19-07-2019 04:00:00 16.5 C 93 % 15.36 C
1202 19-07-2019 04:05:00 16.4 C 93 % 15.27 C
1203 19-07-2019 04:10:00 16.4 C 93 % 15.27 C
1204 19-07-2019 04:15:00 16.4 C 93 % 15.27 C
1205 19-07-2019 04:20:00 16.4 C 93 % 15.27 C
1206 19-07-2019 04:25:00 16.4 C 93 % 15.27 C
1207 19-07-2019 04:30:00 16.4 C 93 % 15.27 C
1208 19-07-2019 04:35:00 16.4 C 94 % 15.43 C
1209 19-07-2019 04:40:00 16.3 C 94 % 15.33 C
1210 19-07-2019 04:45:00 16.3 C 94 % 15.33 C
1211 19-07-2019 04:50:00 16.3 C 94 % 15.33 C
1212 19-07-2019 04:55:00 16.3 C 94 % 15.33 C
1213 19-07-2019 05:00:00 16.3 C 94 % 15.33 C
1214 19-07-2019 05:05:00 16.3 C 94 % 15.33 C
1215 19-07-2019 05:10:00 16.3 C 94 % 15.33 C
1216 19-07-2019 05:15:00 16.3 C 94 % 15.33 C
1217 19-07-2019 05:20:00 16.3 C 94 % 15.33 C
1218 19-07-2019 05:25:00 16.3 C 94 % 15.33 C
1219 19-07-2019 05:30:00 16.3 C 94 % 15.33 C
1220 19-07-2019 05:35:00 16.3 C 94 % 15.33 C
1221 19-07-2019 05:40:00 16.3 C 94 % 15.33 C
1222 19-07-2019 05:45:00 16.3 C 94 % 15.33 C
1223 19-07-2019 05:50:00 16.3 C 95 % 15.5 C
1224 19-07-2019 05:55:00 16.3 C 95 % 15.5 C
1225 19-07-2019 06:00:00 16.3 C 95 % 15.5 C
Sensor: Nr:Datum:Temp:Feuchte:Taupunkt:
Aussen-T/F 1226 19-07-2019 06:05:00 16.3 C 95 % 15.5 C
1227 19-07-2019 06:10:00 16.3 C 95 % 15.5 C
1228 19-07-2019 06:15:00 16.3 C 95 % 15.5 C
1229 19-07-2019 06:20:00 16.3 C 95 % 15.5 C
1230 19-07-2019 06:25:00 16.3 C 95 % 15.5 C
1231 19-07-2019 06:30:00 16.4 C 95 % 15.6 C
1232 19-07-2019 06:35:00 16.4 C 95 % 15.6 C
1233 19-07-2019 06:40:00 16.4 C 95 % 15.6 C
1234 19-07-2019 06:45:00 16.4 C 95 % 15.6 C
1235 19-07-2019 06:50:00 16.4 C 95 % 15.6 C
1236 19-07-2019 06:55:00 16.4 C 95 % 15.6 C
1237 19-07-2019 07:00:00 16.5 C 95 % 15.7 C
1238 19-07-2019 07:05:00 16.6 C 95 % 15.8 C
1239 19-07-2019 07:10:00 16.6 C 95 % 15.8 C
1240 19-07-2019 07:15:00 16.6 C 95 % 15.8 C
1241 19-07-2019 07:20:00 16.6 C 95 % 15.8 C
1242 19-07-2019 07:25:00 16.7 C 95 % 15.9 C
1243 19-07-2019 07:30:00 16.7 C 95 % 15.9 C
1244 19-07-2019 07:35:00 16.7 C 95 % 15.9 C
1245 19-07-2019 07:40:00 16.8 C 95 % 15.99 C
1246 19-07-2019 07:45:00 16.8 C 96 % 16.16 C
1247 19-07-2019 07:50:00 16.9 C 96 % 16.26 C
1248 19-07-2019 07:55:00 16.9 C 96 % 16.26 C
1249 19-07-2019 08:00:00 16.9 C 96 % 16.26 C
1250 19-07-2019 08:05:00 16.9 C 96 % 16.26 C
Sensor: Nr:Datum:Temp:Feuchte:Taupunkt:
Aussen-T/F 1251 19-07-2019 08:10:00 17 C 96 % 16.36 C
1252 19-07-2019 08:15:00 17.1 C 96 % 16.46 C
1253 19-07-2019 08:20:00 17.1 C 96 % 16.46 C
1254 19-07-2019 08:25:00 17.2 C 96 % 16.56 C
1255 19-07-2019 08:30:00 17.3 C 96 % 16.66 C
1256 19-07-2019 08:35:00 17.4 C 96 % 16.76 C
1257 19-07-2019 08:40:00 17.4 C 96 % 16.76 C
1258 19-07-2019 08:45:00 17.4 C 96 % 16.76 C
1259 19-07-2019 08:50:00 17.5 C 96 % 16.85 C
1260 19-07-2019 08:55:00 17.6 C 96 % 16.95 C
1261 19-07-2019 09:00:00 17.7 C 96 % 17.05 C
1262 19-07-2019 09:05:00 17.8 C 96 % 17.15 C
1263 19-07-2019 09:10:00 17.8 C 96 % 17.15 C
1264 19-07-2019 09:15:00 17.8 C 95 % 16.99 C
1265 19-07-2019 09:20:00 17.9 C 95 % 17.09 C
1266 19-07-2019 09:25:00 17.9 C 95 % 17.09 C
1267 19-07-2019 09:30:00 18.1 C 95 % 17.29 C
1268 19-07-2019 09:35:00 18.1 C 95 % 17.29 C
1269 19-07-2019 09:40:00 18.2 C 94 % 17.22 C
1270 19-07-2019 09:45:00 18.3 C 94 % 17.32 C
1271 19-07-2019 09:50:00 18.3 C 94 % 17.32 C
1272 19-07-2019 09:55:00 18.4 C 93 % 17.25 C
1273 19-07-2019 10:00:00 18.6 C 93 % 17.45 C
1274 19-07-2019 10:05:00 18.8 C 94 % 17.81 C
1275 19-07-2019 10:10:00 18.9 C 92 % 17.57 C
Sensor: Nr:Datum:Temp:Feuchte:Taupunkt:
Aussen-T/F 1276 19-07-2019 10:15:00 19 C 92 % 17.67 C
1277 19-07-2019 10:20:00 19.1 C 91 % 17.6 C
1278 19-07-2019 10:25:00 19.1 C 90 % 17.42 C
1279 19-07-2019 10:30:00 19.3 C 90 % 17.62 C
1280 19-07-2019 10:35:00 19.5 C 89 % 17.64 C
1281 19-07-2019 10:40:00 19.6 C 89 % 17.74 C
1282 19-07-2019 10:45:00 19.7 C 88 % 17.66 C
1283 19-07-2019 10:50:00 19.8 C 89 % 17.93 C
1284 19-07-2019 10:55:00 19.9 C 87 % 17.67 C
1285 19-07-2019 11:00:00 19.9 C 87 % 17.67 C
1286 19-07-2019 11:05:00 20 C 87 % 17.77 C
1287 19-07-2019 11:10:00 20 C 85 % 17.4 C
1288 19-07-2019 11:15:00 20.1 C 85 % 17.5 C
1289 19-07-2019 11:20:00 20.3 C 85 % 17.7 C
1290 19-07-2019 11:25:00 20.6 C 84 % 17.8 C
1291 19-07-2019 11:30:00 20.8 C 83 % 17.81 C
1292 19-07-2019 11:35:00 20.9 C 83 % 17.9 C
1293 19-07-2019 11:40:00 20.9 C 81 % 17.52 C
1294 19-07-2019 11:45:00 20.8 C 81 % 17.42 C
1295 19-07-2019 11:50:00 20.7 C 82 % 17.52 C
1296 19-07-2019 11:55:00 20.7 C 81 % 17.32 C
1297 19-07-2019 12:00:00 20.4 C 83 % 17.42 C
1298 19-07-2019 12:05:00 20.2 C 84 % 17.41 C
1299 19-07-2019 12:10:00 20.1 C 86 % 17.68 C
1300 19-07-2019 12:15:00 20.1 C 88 % 18.05 C
Sensor: Nr:Datum:Temp:Feuchte:Taupunkt:
Aussen-T/F 1301 19-07-2019 12:20:00 19.9 C 88 % 17.85 C
1302 19-07-2019 12:25:00 19.8 C 87 % 17.57 C
1303 19-07-2019 12:30:00 19.7 C 88 % 17.66 C
1304 19-07-2019 12:35:00 19.7 C 87 % 17.47 C
1305 19-07-2019 12:40:00 19.8 C 87 % 17.57 C
1306 19-07-2019 12:45:00 20.1 C 87 % 17.87 C
1307 19-07-2019 12:50:00 20.3 C 85 % 17.7 C
1308 19-07-2019 12:55:00 20.4 C 84 % 17.61 C
1309 19-07-2019 13:00:00 20.6 C 85 % 17.99 C
1310 19-07-2019 13:05:00 20.7 C 85 % 18.09 C
1311 19-07-2019 13:10:00 20.9 C 83 % 17.9 C
1312 19-07-2019 13:15:00 21.2 C 78 % 17.21 C
1313 19-07-2019 13:20:00 21.6 C 76 % 17.19 C
1314 19-07-2019 13:25:00 22.1 C 75 % 17.46 C
1315 19-07-2019 13:30:00 22.5 C 74 % 17.63 C
1316 19-07-2019 13:35:00 22.8 C 70 % 17.04 C
1317 19-07-2019 13:40:00 22.9 C 69 % 16.91 C
1318 19-07-2019 13:45:00 22.9 C 67 % 16.45 C
1319 19-07-2019 13:50:00 22.8 C 67 % 16.35 C
1320 19-07-2019 13:55:00 22.7 C 69 % 16.72 C
1321 19-07-2019 14:00:00 22.7 C 71 % 17.17 C
1322 19-07-2019 14:05:00 22.7 C 69 % 16.72 C
1323 19-07-2019 14:10:00 22.7 C 69 % 16.72 C
1324 19-07-2019 14:15:00 22.8 C 71 % 17.27 C
1325 19-07-2019 14:20:00 23 C 62 % 15.33 C
Sensor: Nr:Datum:Temp:Feuchte:Taupunkt:
Aussen-T/F 1326 19-07-2019 14:25:00 23.4 C 62 % 15.71 C
1327 19-07-2019 14:30:00 23.8 C 56 % 14.5 C
1328 19-07-2019 14:35:00 23.9 C 56 % 14.59 C
1329 19-07-2019 14:40:00 24.2 C 57 % 15.14 C
1330 19-07-2019 14:45:00 24.4 C 51 % 13.61 C
1331 19-07-2019 14:50:00 24.3 C 54 % 14.4 C
1332 19-07-2019 14:55:00 24.4 C 53 % 14.2 C
1333 19-07-2019 15:00:00 24.5 C 54 % 14.58 C
1334 19-07-2019 15:05:00 24.6 C 51 % 13.79 C
1335 19-07-2019 15:10:00 24.6 C 54 % 14.68 C
1336 19-07-2019 15:15:00 24.8 C 54 % 14.86 C
1337 19-07-2019 15:20:00 25 C 54 % 15.05 C
1338 19-07-2019 15:25:00 24.9 C 53 % 14.66 C
1339 19-07-2019 15:30:00 24.9 C 51 % 14.07 C
1340 19-07-2019 15:35:00 25.1 C 52 % 14.55 C
1341 19-07-2019 15:40:00 25.2 C 54 % 15.23 C
1342 19-07-2019 15:45:00 25.1 C 53 % 14.85 C
1343 19-07-2019 15:50:00 24.9 C 53 % 14.66 C
1344 19-07-2019 15:55:00 24.9 C 51 % 14.07 C
1345 19-07-2019 16:00:00 24.9 C 52 % 14.37 C
1346 19-07-2019 16:05:00 24.9 C 50 % 13.77 C
1347 19-07-2019 16:10:00 24.9 C 51 % 14.07 C
1348 19-07-2019 16:15:00 24.9 C 50 % 13.77 C
1349 19-07-2019 16:20:00 25 C 52 % 14.46 C
1350 19-07-2019 16:25:00 25 C 51 % 14.16 C
Sensor: Nr:Datum:Temp:Feuchte:Taupunkt:
Aussen-T/F 1351 19-07-2019 16:30:00 25.2 C 50 % 14.04 C
1352 19-07-2019 16:35:00 25.4 C 50 % 14.22 C
1353 19-07-2019 16:40:00 25.7 C 50 % 14.5 C
1354 19-07-2019 16:45:00 25.8 C 50 % 14.59 C
1355 19-07-2019 16:50:00 25.6 C 51 % 14.71 C
1356 19-07-2019 16:55:00 25.3 C 50 % 14.13 C
1357 19-07-2019 17:00:00 25.5 C 51 % 14.62 C
1358 19-07-2019 17:05:00 25.9 C 51 % 14.99 C
1359 19-07-2019 17:10:00 26 C 51 % 15.08 C
1360 19-07-2019 17:15:00 26.1 C 49 % 14.55 C
1361 19-07-2019 17:20:00 26.3 C 48 % 14.42 C
1362 19-07-2019 17:25:00 26.5 C 46 % 13.94 C
1363 19-07-2019 17:30:00 26.2 C 47 % 14 C
1364 19-07-2019 17:35:00 26 C 49 % 14.46 C
1365 19-07-2019 17:40:00 25.8 C 48 % 13.96 C
1366 19-07-2019 17:45:00 25.6 C 51 % 14.71 C
1367 19-07-2019 17:50:00 25.4 C 53 % 15.13 C
1368 19-07-2019 17:55:00 25.7 C 51 % 14.81 C
1369 19-07-2019 18:00:00 25.9 C 50 % 14.68 C
1370 19-07-2019 18:05:00 25.9 C 50 % 14.68 C
1371 19-07-2019 18:10:00 25.7 C 49 % 14.19 C
1372 19-07-2019 18:15:00 25.7 C 49 % 14.19 C
1373 19-07-2019 18:20:00 25.6 C 50 % 14.41 C
1374 19-07-2019 18:25:00 25.4 C 49 % 13.91 C
1375 19-07-2019 18:30:00 25.3 C 50 % 14.13 C
Sensor: Nr:Datum:Temp:Feuchte:Taupunkt:
Aussen-T/F 1376 19-07-2019 18:35:00 25.3 C 50 % 14.13 C
1377 19-07-2019 18:40:00 25.2 C 54 % 15.23 C
1378 19-07-2019 18:45:00 25.2 C 52 % 14.65 C
1379 19-07-2019 18:50:00 25.1 C 58 % 16.26 C
1380 19-07-2019 18:55:00 24.9 C 52 % 14.37 C
1381 19-07-2019 19:00:00 24.8 C 53 % 14.57 C
1382 19-07-2019 19:05:00 24.9 C 59 % 16.34 C
1383 19-07-2019 19:10:00 24.9 C 60 % 16.6 C
1384 19-07-2019 19:15:00 25.1 C 52 % 14.55 C
1385 19-07-2019 19:20:00 25.2 C 63 % 17.65 C
1386 19-07-2019 19:25:00 25.1 C 60 % 16.79 C
1387 19-07-2019 19:30:00 24.9 C 63 % 17.37 C
1388 19-07-2019 19:35:00 24.8 C 63 % 17.28 C
1389 19-07-2019 19:40:00 24.7 C 62 % 16.93 C
1390 19-07-2019 19:45:00 24.5 C 60 % 16.23 C
1391 19-07-2019 19:50:00 24.3 C 62 % 16.55 C
1392 19-07-2019 19:55:00 24.2 C 65 % 17.2 C
1393 19-07-2019 20:00:00 24.1 C 64 % 16.86 C
1394 19-07-2019 20:05:00 23.9 C 64 % 16.68 C
1395 19-07-2019 20:10:00 23.8 C 63 % 16.33 C
1396 19-07-2019 20:15:00 23.7 C 63 % 16.24 C
1397 19-07-2019 20:20:00 23.7 C 65 % 16.73 C
1398 19-07-2019 20:25:00 23.5 C 63 % 16.05 C
1399 19-07-2019 20:30:00 23.3 C 63 % 15.86 C
1400 19-07-2019 20:35:00 23.1 C 63 % 15.67 C
Sensor: Nr:Datum:Temp:Feuchte:Taupunkt:
Aussen-T/F 1401 19-07-2019 20:40:00 22.8 C 64 % 15.64 C
1402 19-07-2019 20:45:00 22.6 C 66 % 15.93 C
1403 19-07-2019 20:50:00 22.4 C 66 % 15.74 C
1404 19-07-2019 20:55:00 22.2 C 67 % 15.78 C
1405 19-07-2019 21:00:00 22 C 67 % 15.59 C
1406 19-07-2019 21:05:00 21.8 C 68 % 15.63 C
1407 19-07-2019 21:10:00 21.6 C 69 % 15.67 C
1408 19-07-2019 21:15:00 21.3 C 70 % 15.61 C
1409 19-07-2019 21:20:00 21.1 C 70 % 15.42 C
1410 19-07-2019 21:25:00 20.9 C 72 % 15.66 C
1411 19-07-2019 21:30:00 20.8 C 72 % 15.57 C
1412 19-07-2019 21:35:00 20.7 C 73 % 15.69 C
1413 19-07-2019 21:40:00 20.4 C 73 % 15.4 C
1414 19-07-2019 21:45:00 20.3 C 74 % 15.51 C
1415 19-07-2019 21:50:00 20.1 C 75 % 15.53 C
1416 19-07-2019 21:55:00 19.9 C 76 % 15.54 C
1417 19-07-2019 22:00:00 19.8 C 76 % 15.45 C
1418 19-07-2019 22:05:00 19.6 C 77 % 15.46 C
1419 19-07-2019 22:10:00 19.5 C 78 % 15.56 C
1420 19-07-2019 22:15:00 19.3 C 78 % 15.37 C
1421 19-07-2019 22:20:00 19.2 C 79 % 15.47 C
1422 19-07-2019 22:25:00 19.2 C 79 % 15.47 C
1423 19-07-2019 22:30:00 19.1 C 80 % 15.57 C
1424 19-07-2019 22:35:00 19.1 C 80 % 15.57 C
1425 19-07-2019 22:40:00 19 C 80 % 15.47 C
Sensor: Nr:Datum:Temp:Feuchte:Taupunkt:
Aussen-T/F 1426 19-07-2019 22:45:00 18.9 C 80 % 15.38 C
1427 19-07-2019 22:50:00 18.9 C 81 % 15.57 C
1428 19-07-2019 22:55:00 18.9 C 81 % 15.57 C
1429 19-07-2019 23:00:00 18.8 C 81 % 15.47 C
1430 19-07-2019 23:05:00 18.8 C 82 % 15.66 C
1431 19-07-2019 23:10:00 18.8 C 82 % 15.66 C
1432 19-07-2019 23:15:00 18.7 C 82 % 15.57 C
1433 19-07-2019 23:20:00 18.7 C 82 % 15.57 C
1434 19-07-2019 23:25:00 18.6 C 83 % 15.66 C
1435 19-07-2019 23:30:00 18.5 C 83 % 15.56 C
1436 19-07-2019 23:35:00 18.4 C 83 % 15.46 C
1437 19-07-2019 23:40:00 18.4 C 84 % 15.65 C
1438 19-07-2019 23:45:00 18.3 C 84 % 15.55 C
1439 19-07-2019 23:50:00 18.2 C 84 % 15.45 C
1440 19-07-2019 23:55:00 18.1 C 85 % 15.54 C
1441 20-07-2019 00:00:00 17.9 C 85 % 15.34 C
1442 20-07-2019 00:05:00 17.8 C 86 % 15.43 C
1443 20-07-2019 00:10:00 17.7 C 85 % 15.15 C
1444 20-07-2019 00:15:00 17.6 C 85 % 15.05 C
1445 20-07-2019 00:20:00 17.5 C 86 % 15.13 C
1446 20-07-2019 00:25:00 17.4 C 86 % 15.03 C
1447 20-07-2019 00:30:00 17.3 C 86 % 14.94 C
1448 20-07-2019 00:35:00 17.2 C 87 % 15.02 C
1449 20-07-2019 00:40:00 17.2 C 87 % 15.02 C
1450 20-07-2019 00:45:00 17.1 C 87 % 14.92 C
Sensor: Nr:Datum:Temp:Feuchte:Taupunkt:
Aussen-T/F 1451 20-07-2019 00:50:00 17.1 C 87 % 14.92 C
1452 20-07-2019 00:55:00 16.9 C 87 % 14.72 C
1453 20-07-2019 01:00:00 17 C 87 % 14.82 C
1454 20-07-2019 01:05:00 16.9 C 87 % 14.72 C
1455 20-07-2019 01:10:00 16.9 C 87 % 14.72 C
1456 20-07-2019 01:15:00 16.8 C 88 % 14.8 C
1457 20-07-2019 01:20:00 16.7 C 88 % 14.7 C
1458 20-07-2019 01:25:00 16.6 C 88 % 14.6 C
1459 20-07-2019 01:30:00 16.5 C 89 % 14.68 C
1460 20-07-2019 01:35:00 16.4 C 89 % 14.58 C
1461 20-07-2019 01:40:00 16.4 C 89 % 14.58 C
1462 20-07-2019 01:45:00 16.4 C 89 % 14.58 C
1463 20-07-2019 01:50:00 16.3 C 89 % 14.48 C
1464 20-07-2019 01:55:00 16.3 C 89 % 14.48 C
1465 20-07-2019 02:00:00 16.2 C 90 % 14.56 C
1466 20-07-2019 02:05:00 16.2 C 90 % 14.56 C
1467 20-07-2019 02:10:00 16.1 C 90 % 14.46 C
1468 20-07-2019 02:15:00 15.9 C 90 % 14.26 C
1469 20-07-2019 02:20:00 15.9 C 90 % 14.26 C
1470 20-07-2019 02:25:00 15.8 C 90 % 14.16 C
1471 20-07-2019 02:30:00 15.7 C 90 % 14.06 C
1472 20-07-2019 02:35:00 15.6 C 91 % 14.14 C
1473 20-07-2019 02:40:00 15.5 C 91 % 14.04 C
1474 20-07-2019 02:45:00 15.4 C 91 % 13.94 C
1475 20-07-2019 02:50:00 15.3 C 91 % 13.84 C
Sensor: Nr:Datum:Temp:Feuchte:Taupunkt:
Aussen-T/F 1476 20-07-2019 02:55:00 15.3 C 92 % 14.01 C
1477 20-07-2019 03:00:00 15.3 C 92 % 14.01 C
1478 20-07-2019 03:05:00 15.2 C 92 % 13.91 C
1479 20-07-2019 03:10:00 15.2 C 92 % 13.91 C
1480 20-07-2019 03:15:00 15.2 C 92 % 13.91 C
1481 20-07-2019 03:20:00 15.1 C 92 % 13.81 C
1482 20-07-2019 03:25:00 15.1 C 92 % 13.81 C
1483 20-07-2019 03:30:00 15 C 93 % 13.88 C
1484 20-07-2019 03:35:00 14.9 C 92 % 13.61 C
1485 20-07-2019 03:40:00 14.9 C 93 % 13.78 C
1486 20-07-2019 03:45:00 14.8 C 93 % 13.68 C
1487 20-07-2019 03:50:00 14.8 C 93 % 13.68 C
1488 20-07-2019 03:55:00 14.8 C 93 % 13.68 C
1489 20-07-2019 04:00:00 14.8 C 93 % 13.68 C
1490 20-07-2019 04:05:00 14.7 C 93 % 13.58 C
1491 20-07-2019 04:10:00 14.7 C 93 % 13.58 C
1492 20-07-2019 04:15:00 14.7 C 93 % 13.58 C
1493 20-07-2019 04:20:00 14.6 C 93 % 13.48 C
1494 20-07-2019 04:25:00 14.6 C 93 % 13.48 C
1495 20-07-2019 04:30:00 14.6 C 93 % 13.48 C
1496 20-07-2019 04:35:00 14.5 C 94 % 13.55 C
1497 20-07-2019 04:40:00 14.4 C 94 % 13.45 C
1498 20-07-2019 04:45:00 14.4 C 94 % 13.45 C
1499 20-07-2019 04:50:00 14.4 C 94 % 13.45 C
1500 20-07-2019 04:55:00 14.3 C 94 % 13.35 C
Sensor: Nr:Datum:Temp:Feuchte:Taupunkt:
Aussen-T/F 1501 20-07-2019 05:00:00 14.3 C 94 % 13.35 C
1502 20-07-2019 05:05:00 14.3 C 94 % 13.35 C
1503 20-07-2019 05:10:00 14.3 C 94 % 13.35 C
1504 20-07-2019 05:15:00 14.2 C 94 % 13.25 C
1505 20-07-2019 05:20:00 14.2 C 94 % 13.25 C
1506 20-07-2019 05:25:00 14.2 C 95 % 13.41 C
1507 20-07-2019 05:30:00 14.2 C 94 % 13.25 C
1508 20-07-2019 05:35:00 14.2 C 94 % 13.25 C
1509 20-07-2019 05:40:00 14.1 C 94 % 13.15 C
1510 20-07-2019 05:45:00 14.1 C 94 % 13.15 C
1511 20-07-2019 05:50:00 14.1 C 94 % 13.15 C
1512 20-07-2019 05:55:00 14 C 94 % 13.05 C
1513 20-07-2019 06:00:00 14 C 94 % 13.05 C
1514 20-07-2019 06:05:00 13.9 C 95 % 13.11 C
1515 20-07-2019 06:10:00 13.9 C 95 % 13.11 C
1516 20-07-2019 06:15:00 13.9 C 95 % 13.11 C
1517 20-07-2019 06:20:00 13.9 C 95 % 13.11 C
1518 20-07-2019 06:25:00 13.9 C 95 % 13.11 C
1519 20-07-2019 06:30:00 13.9 C 95 % 13.11 C
1520 20-07-2019 06:35:00 13.9 C 95 % 13.11 C
1521 20-07-2019 06:40:00 13.9 C 95 % 13.11 C
1522 20-07-2019 06:45:00 14.1 C 95 % 13.31 C
1523 20-07-2019 06:50:00 14.1 C 95 % 13.31 C
1524 20-07-2019 06:55:00 14.2 C 95 % 13.41 C
1525 20-07-2019 07:00:00 14.2 C 95 % 13.41 C
Sensor: Nr:Datum:Temp:Feuchte:Taupunkt:
Aussen-T/F 1526 20-07-2019 07:05:00 14.2 C 95 % 13.41 C
1527 20-07-2019 07:10:00 14.3 C 95 % 13.51 C
1528 20-07-2019 07:15:00 14.4 C 96 % 13.77 C
1529 20-07-2019 07:20:00 14.4 C 96 % 13.77 C
1530 20-07-2019 07:25:00 14.5 C 96 % 13.87 C
1531 20-07-2019 07:30:00 14.6 C 96 % 13.97 C
1532 20-07-2019 07:35:00 14.7 C 96 % 14.07 C
1533 20-07-2019 07:40:00 14.8 C 96 % 14.17 C
1534 20-07-2019 07:45:00 14.8 C 96 % 14.17 C
1535 20-07-2019 07:50:00 14.9 C 96 % 14.27 C
1536 20-07-2019 07:55:00 15 C 96 % 14.37 C
1537 20-07-2019 08:00:00 15.1 C 96 % 14.47 C
1538 20-07-2019 08:05:00 15.3 C 96 % 14.67 C
1539 20-07-2019 08:10:00 15.4 C 96 % 14.77 C
1540 20-07-2019 08:15:00 15.5 C 96 % 14.86 C
1541 20-07-2019 08:20:00 15.7 C 96 % 15.06 C
1542 20-07-2019 08:25:00 15.8 C 96 % 15.16 C
1543 20-07-2019 08:30:00 15.9 C 96 % 15.26 C
1544 20-07-2019 08:35:00 16.1 C 96 % 15.46 C
1545 20-07-2019 08:40:00 16.2 C 96 % 15.56 C
1546 20-07-2019 08:45:00 16.3 C 96 % 15.66 C
1547 20-07-2019 08:50:00 16.5 C 96 % 15.86 C
1548 20-07-2019 08:55:00 16.6 C 96 % 15.96 C
1549 20-07-2019 09:00:00 16.8 C 96 % 16.16 C
1550 20-07-2019 09:05:00 16.9 C 96 % 16.26 C
Sensor: Nr:Datum:Temp:Feuchte:Taupunkt:
Aussen-T/F 1551 20-07-2019 09:10:00 17 C 96 % 16.36 C
1552 20-07-2019 09:15:00 17.2 C 96 % 16.56 C
1553 20-07-2019 09:20:00 17.3 C 96 % 16.66 C
1554 20-07-2019 09:25:00 17.6 C 95 % 16.79 C
1555 20-07-2019 09:30:00 17.8 C 95 % 16.99 C
1556 20-07-2019 09:35:00 17.9 C 95 % 17.09 C
1557 20-07-2019 09:40:00 18.2 C 94 % 17.22 C
1558 20-07-2019 09:45:00 18.4 C 94 % 17.42 C
1559 20-07-2019 09:50:00 18.7 C 93 % 17.54 C
1560 20-07-2019 09:55:00 19 C 92 % 17.67 C
1561 20-07-2019 10:00:00 19.3 C 91 % 17.79 C
1562 20-07-2019 10:05:00 19.8 C 91 % 18.29 C
1563 20-07-2019 10:10:00 20.2 C 89 % 18.33 C
1564 20-07-2019 10:15:00 20.7 C 89 % 18.82 C
1565 20-07-2019 10:20:00 21.1 C 88 % 19.03 C
1566 20-07-2019 10:25:00 21.4 C 88 % 19.33 C
1567 20-07-2019 10:30:00 21.8 C 88 % 19.72 C
1568 20-07-2019 10:35:00 22 C 87 % 19.74 C
1569 20-07-2019 10:40:00 22.3 C 87 % 20.03 C
1570 20-07-2019 10:45:00 22.5 C 86 % 20.04 C
1571 20-07-2019 10:50:00 22.7 C 83 % 19.66 C
1572 20-07-2019 10:55:00 23 C 80 % 19.36 C
1573 20-07-2019 11:00:00 23.3 C 75 % 18.62 C
1574 20-07-2019 11:05:00 23.7 C 73 % 18.57 C
1575 20-07-2019 11:10:00 24.2 C 73 % 19.05 C
Sensor: Nr:Datum:Temp:Feuchte:Taupunkt:
Aussen-T/F 1576 20-07-2019 11:15:00 24.7 C 69 % 18.63 C
1577 20-07-2019 11:20:00 25.3 C 67 % 18.73 C
1578 20-07-2019 11:25:00 25.7 C 64 % 18.38 C
1579 20-07-2019 11:30:00 26.3 C 62 % 18.44 C
1580 20-07-2019 11:35:00 26.8 C 56 % 17.29 C
1581 20-07-2019 11:40:00 27.2 C 55 % 17.37 C
1582 20-07-2019 11:45:00 27.3 C 54 % 17.18 C
1583 20-07-2019 11:50:00 27.4 C 56 % 17.84 C
1584 20-07-2019 11:55:00 27.7 C 55 % 17.84 C
1585 20-07-2019 12:00:00 27.7 C 51 % 16.64 C
1586 20-07-2019 12:05:00 27.7 C 52 % 16.95 C
1587 20-07-2019 12:10:00 27.8 C 53 % 17.34 C
1588 20-07-2019 12:15:00 27.8 C 52 % 17.04 C
1589 20-07-2019 12:20:00 27.8 C 51 % 16.73 C
1590 20-07-2019 12:25:00 27.8 C 51 % 16.73 C
1591 20-07-2019 12:30:00 27.8 C 51 % 16.73 C
1592 20-07-2019 12:35:00 27.8 C 50 % 16.42 C
1593 20-07-2019 12:40:00 27.7 C 53 % 17.25 C
1594 20-07-2019 12:45:00 27.8 C 51 % 16.73 C
1595 20-07-2019 12:50:00 27.8 C 52 % 17.04 C
1596 20-07-2019 12:55:00 27.8 C 50 % 16.42 C
1597 20-07-2019 13:00:00 27.9 C 51 % 16.83 C
1598 20-07-2019 13:05:00 27.9 C 51 % 16.83 C
1599 20-07-2019 13:10:00 28.1 C 51 % 17.01 C
1600 20-07-2019 13:15:00 28.1 C 50 % 16.7 C
Sensor: Nr:Datum:Temp:Feuchte:Taupunkt:
Aussen-T/F 1601 20-07-2019 13:20:00 28 C 51 % 16.92 C
1602 20-07-2019 13:25:00 27.9 C 52 % 17.13 C
1603 20-07-2019 13:30:00 28 C 51 % 16.92 C
1604 20-07-2019 13:35:00 28.1 C 51 % 17.01 C
1605 20-07-2019 13:40:00 28.3 C 51 % 17.19 C
1606 20-07-2019 13:45:00 28.4 C 49 % 16.65 C
1607 20-07-2019 13:50:00 28.6 C 50 % 17.16 C
1608 20-07-2019 13:55:00 28.8 C 48 % 16.69 C
1609 20-07-2019 14:00:00 29.1 C 49 % 17.29 C
1610 20-07-2019 14:05:00 29.4 C 48 % 17.24 C
1611 20-07-2019 14:10:00 29.7 C 46 % 16.84 C
1612 20-07-2019 14:15:00 29.7 C 46 % 16.84 C
1613 20-07-2019 14:20:00 29.7 C 45 % 16.5 C
1614 20-07-2019 14:25:00 29.7 C 46 % 16.84 C
1615 20-07-2019 14:30:00 29.9 C 45 % 16.68 C
1616 20-07-2019 14:35:00 30.1 C 44 % 16.5 C
1617 20-07-2019 14:40:00 30.4 C 44 % 16.77 C
1618 20-07-2019 14:45:00 30.6 C 45 % 17.31 C
1619 20-07-2019 14:50:00 31 C 45 % 17.67 C
1620 20-07-2019 14:55:00 31.2 C 42 % 16.76 C
1621 20-07-2019 15:00:00 31.2 C 43 % 17.13 C
1622 20-07-2019 15:05:00 31.1 C 43 % 17.04 C
1623 20-07-2019 15:10:00 31.1 C 44 % 17.4 C
1624 20-07-2019 15:15:00 31.2 C 44 % 17.49 C
1625 20-07-2019 15:20:00 31.1 C 42 % 16.67 C
Sensor: Nr:Datum:Temp:Feuchte:Taupunkt:
Aussen-T/F 1626 20-07-2019 15:25:00 31 C 44 % 17.31 C
1627 20-07-2019 15:30:00 30.9 C 42 % 16.49 C
1628 20-07-2019 15:35:00 30.8 C 44 % 17.13 C
1629 20-07-2019 15:40:00 30.6 C 44 % 16.95 C
1630 20-07-2019 15:45:00 30.3 C 44 % 16.68 C
1631 20-07-2019 15:50:00 30.2 C 46 % 17.3 C
1632 20-07-2019 15:55:00 30.1 C 45 % 16.86 C
1633 20-07-2019 16:00:00 30.2 C 45 % 16.95 C
1634 20-07-2019 16:05:00 30.4 C 45 % 17.13 C
1635 20-07-2019 16:10:00 30.4 C 48 % 18.15 C
1636 20-07-2019 16:15:00 30.3 C 46 % 17.39 C
1637 20-07-2019 16:20:00 29.6 C 56 % 19.89 C
1638 20-07-2019 16:25:00 28.6 C 70 % 22.59 C
1639 20-07-2019 16:30:00 27.9 C 76 % 23.27 C
1640 20-07-2019 16:35:00 27.9 C 79 % 23.92 C
1641 20-07-2019 16:40:00 28.1 C 80 % 24.32 C
1642 20-07-2019 16:45:00 28.2 C 79 % 24.21 C
1643 20-07-2019 16:50:00 28.1 C 74 % 23.02 C
1644 20-07-2019 16:55:00 27.6 C 75 % 22.76 C
1645 20-07-2019 17:00:00 27.1 C 76 % 22.5 C
1646 20-07-2019 17:05:00 26.8 C 77 % 22.43 C
1647 20-07-2019 17:10:00 27.2 C 76 % 22.6 C
1648 20-07-2019 17:15:00 27.7 C 63 % 20.01 C
1649 20-07-2019 17:20:00 28.7 C 54 % 18.47 C
1650 20-07-2019 17:25:00 29.2 C 64 % 21.68 C
Sensor: Nr:Datum:Temp:Feuchte:Taupunkt:
Aussen-T/F 1651 20-07-2019 17:30:00 28.9 C 52 % 18.05 C
1652 20-07-2019 17:35:00 28.9 C 53 % 18.36 C
1653 20-07-2019 17:40:00 29.1 C 60 % 20.54 C
1654 20-07-2019 17:45:00 29 C 51 % 17.84 C
1655 20-07-2019 17:50:00 28.8 C 49 % 17.02 C
1656 20-07-2019 17:55:00 28.8 C 56 % 19.14 C
1657 20-07-2019 18:00:00 28.9 C 50 % 17.43 C
1658 20-07-2019 18:05:00 29 C 52 % 18.15 C
1659 20-07-2019 18:10:00 28.9 C 50 % 17.43 C
1660 20-07-2019 18:15:00 28.8 C 49 % 17.02 C
1661 20-07-2019 18:20:00 28.8 C 49 % 17.02 C
1662 20-07-2019 18:25:00 28.8 C 48 % 16.69 C
1663 20-07-2019 18:30:00 28.9 C 48 % 16.79 C
1664 20-07-2019 18:35:00 28.9 C 48 % 16.79 C
1665 20-07-2019 18:40:00 28.9 C 52 % 18.05 C
1666 20-07-2019 18:45:00 28.9 C 48 % 16.79 C
1667 20-07-2019 18:50:00 29.1 C 51 % 17.93 C
1668 20-07-2019 18:55:00 29.2 C 47 % 16.73 C
1669 20-07-2019 19:00:00 29.3 C 46 % 16.48 C
1670 20-07-2019 19:05:00 29.3 C 44 % 15.78 C
1671 20-07-2019 19:10:00 29.2 C 47 % 16.73 C
1672 20-07-2019 19:15:00 29.3 C 45 % 16.13 C
1673 20-07-2019 19:20:00 29.3 C 48 % 17.15 C
1674 20-07-2019 19:25:00 29.3 C 44 % 15.78 C
1675 20-07-2019 19:30:00 28.1 C 54 % 17.92 C
Sensor: Nr:Datum:Temp:Feuchte:Taupunkt:
Aussen-T/F 1676 20-07-2019 19:35:00 26.8 C 58 % 17.84 C
1677 20-07-2019 19:40:00 25.7 C 61 % 17.61 C
1678 20-07-2019 19:45:00 25 C 64 % 17.72 C
1679 20-07-2019 19:50:00 24.6 C 66 % 17.83 C
1680 20-07-2019 19:55:00 24.2 C 66 % 17.45 C
1681 20-07-2019 20:00:00 24.1 C 67 % 17.59 C
1682 20-07-2019 20:05:00 23.9 C 68 % 17.63 C
1683 20-07-2019 20:10:00 23.8 C 68 % 17.54 C
1684 20-07-2019 20:15:00 23.7 C 68 % 17.44 C
1685 20-07-2019 20:20:00 23.6 C 69 % 17.58 C
1686 20-07-2019 20:25:00 23.4 C 69 % 17.39 C
1687 20-07-2019 20:30:00 23.3 C 69 % 17.29 C
1688 20-07-2019 20:35:00 23.2 C 69 % 17.2 C
1689 20-07-2019 20:40:00 23.1 C 70 % 17.33 C
1690 20-07-2019 20:45:00 23.1 C 72 % 17.78 C
1691 20-07-2019 20:50:00 23 C 73 % 17.9 C
1692 20-07-2019 20:55:00 22.9 C 73 % 17.8 C
1693 20-07-2019 21:00:00 22.7 C 74 % 17.83 C
1694 20-07-2019 21:05:00 22.5 C 74 % 17.63 C
1695 20-07-2019 21:10:00 22.3 C 74 % 17.44 C
1696 20-07-2019 21:15:00 22.1 C 75 % 17.46 C
1697 20-07-2019 21:20:00 21.8 C 75 % 17.17 C
1698 20-07-2019 21:25:00 21.7 C 76 % 17.28 C
1699 20-07-2019 21:30:00 21.6 C 76 % 17.19 C
1700 20-07-2019 21:35:00 21.4 C 77 % 17.2 C
Sensor: Nr:Datum:Temp:Feuchte:Taupunkt:
Aussen-T/F 1701 20-07-2019 21:40:00 21.3 C 78 % 17.31 C
1702 20-07-2019 21:45:00 21.2 C 78 % 17.21 C
1703 20-07-2019 21:50:00 21.1 C 78 % 17.11 C
1704 20-07-2019 21:55:00 21 C 78 % 17.02 C
1705 20-07-2019 22:00:00 20.9 C 78 % 16.92 C
1706 20-07-2019 22:05:00 20.9 C 78 % 16.92 C
1707 20-07-2019 22:10:00 20.8 C 78 % 16.82 C
1708 20-07-2019 22:15:00 20.8 C 79 % 17.02 C
1709 20-07-2019 22:20:00 20.7 C 80 % 17.13 C
1710 20-07-2019 22:25:00 20.7 C 81 % 17.32 C
1711 20-07-2019 22:30:00 20.6 C 81 % 17.22 C
1712 20-07-2019 22:35:00 20.5 C 81 % 17.13 C
1713 20-07-2019 22:40:00 20.3 C 81 % 16.93 C
1714 20-07-2019 22:45:00 20.3 C 81 % 16.93 C
1715 20-07-2019 22:50:00 20.2 C 81 % 16.84 C
1716 20-07-2019 22:55:00 20.1 C 82 % 16.93 C
1717 20-07-2019 23:00:00 20.1 C 82 % 16.93 C
1718 20-07-2019 23:05:00 20.1 C 83 % 17.12 C
1719 20-07-2019 23:10:00 19.9 C 82 % 16.74 C
1720 20-07-2019 23:15:00 19.9 C 83 % 16.93 C
1721 20-07-2019 23:20:00 19.8 C 83 % 16.83 C
1722 20-07-2019 23:25:00 19.7 C 83 % 16.73 C
1723 20-07-2019 23:30:00 19.7 C 83 % 16.73 C
1724 20-07-2019 23:35:00 19.6 C 84 % 16.82 C
1725 20-07-2019 23:40:00 19.6 C 85 % 17.01 C
Sensor: Nr:Datum:Temp:Feuchte:Taupunkt:
Aussen-T/F 1726 20-07-2019 23:45:00 19.6 C 85 % 17.01 C
1727 20-07-2019 23:50:00 19.5 C 85 % 16.91 C
1728 20-07-2019 23:55:00 19.5 C 85 % 16.91 C
1729 21-07-2019 00:00:00 19.4 C 85 % 16.81 C
1730 21-07-2019 00:05:00 19.4 C 85 % 16.81 C
1731 21-07-2019 00:10:00 19.3 C 85 % 16.72 C
1732 21-07-2019 00:15:00 19.2 C 85 % 16.62 C
1733 21-07-2019 00:20:00 19.2 C 85 % 16.62 C
1734 21-07-2019 00:25:00 19.1 C 86 % 16.7 C
1735 21-07-2019 00:30:00 19 C 86 % 16.6 C
1736 21-07-2019 00:35:00 19 C 86 % 16.6 C
1737 21-07-2019 00:40:00 18.9 C 86 % 16.51 C
1738 21-07-2019 00:45:00 18.9 C 86 % 16.51 C
1739 21-07-2019 00:50:00 18.8 C 86 % 16.41 C
1740 21-07-2019 00:55:00 18.8 C 87 % 16.59 C
1741 21-07-2019 01:00:00 18.7 C 87 % 16.49 C
1742 21-07-2019 01:05:00 18.7 C 87 % 16.49 C
1743 21-07-2019 01:10:00 18.7 C 88 % 16.67 C
1744 21-07-2019 01:15:00 18.7 C 87 % 16.49 C
1745 21-07-2019 01:20:00 18.7 C 88 % 16.67 C
1746 21-07-2019 01:25:00 18.6 C 88 % 16.57 C
1747 21-07-2019 01:30:00 18.6 C 88 % 16.57 C
1748 21-07-2019 01:35:00 18.4 C 88 % 16.38 C
1749 21-07-2019 01:40:00 18.4 C 88 % 16.38 C
1750 21-07-2019 01:45:00 18.4 C 88 % 16.38 C
Sensor: Nr:Datum:Temp:Feuchte:Taupunkt:
Aussen-T/F 1751 21-07-2019 01:50:00 18.5 C 89 % 16.65 C
1752 21-07-2019 01:55:00 18.6 C 89 % 16.75 C
1753 21-07-2019 02:00:00 18.7 C 89 % 16.85 C
1754 21-07-2019 02:05:00 18.8 C 88 % 16.77 C
1755 21-07-2019 02:10:00 18.9 C 88 % 16.87 C
1756 21-07-2019 02:15:00 19 C 88 % 16.97 C
1757 21-07-2019 02:20:00 19 C 87 % 16.79 C
1758 21-07-2019 02:25:00 19 C 87 % 16.79 C
1759 21-07-2019 02:30:00 18.9 C 87 % 16.69 C
1760 21-07-2019 02:35:00 18.9 C 87 % 16.69 C
1761 21-07-2019 02:40:00 18.9 C 88 % 16.87 C
1762 21-07-2019 02:45:00 18.8 C 88 % 16.77 C
1763 21-07-2019 02:50:00 18.8 C 88 % 16.77 C
1764 21-07-2019 02:55:00 18.8 C 88 % 16.77 C
1765 21-07-2019 03:00:00 18.8 C 88 % 16.77 C
1766 21-07-2019 03:05:00 18.7 C 88 % 16.67 C
1767 21-07-2019 03:10:00 18.7 C 88 % 16.67 C
1768 21-07-2019 03:15:00 18.7 C 89 % 16.85 C
1769 21-07-2019 03:20:00 18.7 C 89 % 16.85 C
1770 21-07-2019 03:25:00 18.7 C 89 % 16.85 C
1771 21-07-2019 03:30:00 18.7 C 88 % 16.67 C
1772 21-07-2019 03:35:00 18.7 C 89 % 16.85 C
1773 21-07-2019 03:40:00 18.6 C 89 % 16.75 C
1774 21-07-2019 03:45:00 18.6 C 89 % 16.75 C
1775 21-07-2019 03:50:00 18.5 C 89 % 16.65 C
Sensor: Nr:Datum:Temp:Feuchte:Taupunkt:
Aussen-T/F 1776 21-07-2019 03:55:00 18.4 C 89 % 16.55 C
1777 21-07-2019 04:00:00 18.3 C 89 % 16.46 C
1778 21-07-2019 04:05:00 18.2 C 89 % 16.36 C
1779 21-07-2019 04:10:00 18.2 C 89 % 16.36 C
1780 21-07-2019 04:15:00 18.1 C 89 % 16.26 C
1781 21-07-2019 04:20:00 18 C 89 % 16.16 C
1782 21-07-2019 04:25:00 17.9 C 89 % 16.06 C
1783 21-07-2019 04:30:00 17.9 C 89 % 16.06 C
1784 21-07-2019 04:35:00 17.9 C 90 % 16.24 C
1785 21-07-2019 04:40:00 17.8 C 89 % 15.96 C
1786 21-07-2019 04:45:00 17.7 C 90 % 16.04 C
1787 21-07-2019 04:50:00 17.7 C 90 % 16.04 C
1788 21-07-2019 04:55:00 17.7 C 90 % 16.04 C
1789 21-07-2019 05:00:00 17.6 C 90 % 15.94 C
1790 21-07-2019 05:05:00 17.5 C 90 % 15.84 C
1791 21-07-2019 05:10:00 17.4 C 91 % 15.92 C
1792 21-07-2019 05:15:00 17.4 C 91 % 15.92 C
1793 21-07-2019 05:20:00 17.4 C 91 % 15.92 C
1794 21-07-2019 05:25:00 17.4 C 91 % 15.92 C
1795 21-07-2019 05:30:00 17.4 C 91 % 15.92 C
1796 21-07-2019 05:35:00 17.4 C 91 % 15.92 C
1797 21-07-2019 05:40:00 17.4 C 92 % 16.09 C
1798 21-07-2019 05:45:00 17.5 C 92 % 16.19 C
1799 21-07-2019 05:50:00 17.6 C 92 % 16.28 C
1800 21-07-2019 05:55:00 17.6 C 92 % 16.28 C
Sensor: Nr:Datum:Temp:Feuchte:Taupunkt:
Aussen-T/F 1801 21-07-2019 06:00:00 17.6 C 92 % 16.28 C
1802 21-07-2019 06:05:00 17.6 C 92 % 16.28 C
1803 21-07-2019 06:10:00 17.6 C 92 % 16.28 C
1804 21-07-2019 06:15:00 17.7 C 92 % 16.38 C
1805 21-07-2019 06:20:00 17.7 C 92 % 16.38 C
1806 21-07-2019 06:25:00 17.7 C 92 % 16.38 C
1807 21-07-2019 06:30:00 17.7 C 92 % 16.38 C
1808 21-07-2019 06:35:00 17.8 C 92 % 16.48 C
1809 21-07-2019 06:40:00 17.8 C 91 % 16.31 C
1810 21-07-2019 06:45:00 17.8 C 91 % 16.31 C
1811 21-07-2019 06:50:00 17.9 C 91 % 16.41 C
1812 21-07-2019 06:55:00 17.9 C 91 % 16.41 C
1813 21-07-2019 07:00:00 17.9 C 90 % 16.24 C
1814 21-07-2019 07:05:00 18.1 C 90 % 16.43 C
1815 21-07-2019 07:10:00 18.2 C 90 % 16.53 C
1816 21-07-2019 07:15:00 18.3 C 90 % 16.63 C
1817 21-07-2019 07:20:00 18.4 C 90 % 16.73 C
1818 21-07-2019 07:25:00 18.5 C 90 % 16.83 C
1819 21-07-2019 07:30:00 18.6 C 89 % 16.75 C
1820 21-07-2019 07:35:00 18.7 C 89 % 16.85 C
1821 21-07-2019 07:40:00 18.7 C 89 % 16.85 C
1822 21-07-2019 07:45:00 18.8 C 88 % 16.77 C
1823 21-07-2019 07:50:00 18.9 C 89 % 17.05 C
1824 21-07-2019 07:55:00 18.9 C 86 % 16.51 C
1825 21-07-2019 08:00:00 19 C 84 % 16.24 C
Sensor: Nr:Datum:Temp:Feuchte:Taupunkt:
Aussen-T/F 1826 21-07-2019 08:05:00 19.1 C 82 % 15.96 C
1827 21-07-2019 08:10:00 19.2 C 81 % 15.86 C
1828 21-07-2019 08:15:00 19.3 C 81 % 15.96 C
1829 21-07-2019 08:20:00 19.3 C 81 % 15.96 C
1830 21-07-2019 08:25:00 19.3 C 79 % 15.57 C
1831 21-07-2019 08:30:00 19.3 C 80 % 15.76 C
1832 21-07-2019 08:35:00 19.4 C 79 % 15.66 C
1833 21-07-2019 08:40:00 19.4 C 79 % 15.66 C
1834 21-07-2019 08:45:00 19.5 C 79 % 15.76 C
1835 21-07-2019 08:50:00 19.6 C 80 % 16.06 C
1836 21-07-2019 08:55:00 19.7 C 80 % 16.15 C
1837 21-07-2019 09:00:00 19.8 C 79 % 16.05 C
1838 21-07-2019 09:05:00 19.8 C 78 % 15.85 C
1839 21-07-2019 09:10:00 20.1 C 78 % 16.14 C
1840 21-07-2019 09:15:00 20.1 C 76 % 15.74 C
1841 21-07-2019 09:20:00 20.2 C 74 % 15.42 C
1842 21-07-2019 09:25:00 20.3 C 73 % 15.3 C
1843 21-07-2019 09:30:00 20.4 C 73 % 15.4 C
1844 21-07-2019 09:35:00 20.4 C 73 % 15.4 C
1845 21-07-2019 09:40:00 20.5 C 71 % 15.06 C
1846 21-07-2019 09:45:00 20.6 C 72 % 15.38 C
1847 21-07-2019 09:50:00 20.7 C 70 % 15.03 C
1848 21-07-2019 09:55:00 20.8 C 71 % 15.35 C
1849 21-07-2019 10:00:00 21 C 70 % 15.32 C
1850 21-07-2019 10:05:00 21.1 C 69 % 15.19 C
Sensor: Nr:Datum:Temp:Feuchte:Taupunkt:
Aussen-T/F 1851 21-07-2019 10:10:00 21.2 C 69 % 15.29 C
1852 21-07-2019 10:15:00 21.3 C 68 % 15.16 C
1853 21-07-2019 10:20:00 21.5 C 68 % 15.35 C
1854 21-07-2019 10:25:00 21.7 C 68 % 15.54 C
1855 21-07-2019 10:30:00 21.9 C 67 % 15.5 C
1856 21-07-2019 10:35:00 22.1 C 65 % 15.21 C
1857 21-07-2019 10:40:00 22.3 C 64 % 15.16 C
1858 21-07-2019 10:45:00 22.6 C 64 % 15.45 C
1859 21-07-2019 10:50:00 22.8 C 63 % 15.39 C
1860 21-07-2019 10:55:00 22.8 C 60 % 14.63 C
1861 21-07-2019 11:00:00 22.9 C 60 % 14.73 C
1862 21-07-2019 11:05:00 23.1 C 59 % 14.65 C
1863 21-07-2019 11:10:00 23.4 C 56 % 14.13 C
1864 21-07-2019 11:15:00 23.6 C 54 % 13.75 C
1865 21-07-2019 11:20:00 23.7 C 54 % 13.84 C
1866 21-07-2019 11:25:00 23.8 C 53 % 13.65 C
1867 21-07-2019 11:30:00 24 C 54 % 14.12 C
1868 21-07-2019 11:35:00 24.1 C 52 % 13.63 C
1869 21-07-2019 11:40:00 24.2 C 51 % 13.43 C
1870 21-07-2019 11:45:00 24.2 C 51 % 13.43 C
1871 21-07-2019 11:50:00 24.2 C 51 % 13.43 C
1872 21-07-2019 11:55:00 24.3 C 51 % 13.52 C
1873 21-07-2019 12:00:00 24.4 C 49 % 13 C
1874 21-07-2019 12:05:00 24.6 C 50 % 13.49 C
1875 21-07-2019 12:10:00 24.8 C 51 % 13.98 C
Sensor: Nr:Datum:Temp:Feuchte:Taupunkt:
Aussen-T/F 1876 21-07-2019 12:15:00 24.9 C 49 % 13.46 C
1877 21-07-2019 12:20:00 25.1 C 49 % 13.64 C
1878 21-07-2019 12:25:00 25.2 C 51 % 14.35 C
1879 21-07-2019 12:30:00 25.3 C 52 % 14.74 C
1880 21-07-2019 12:35:00 25.1 C 51 % 14.25 C
1881 21-07-2019 12:40:00 25.1 C 52 % 14.55 C
1882 21-07-2019 12:45:00 25.1 C 53 % 14.85 C
1883 21-07-2019 12:50:00 25.1 C 53 % 14.85 C
1884 21-07-2019 12:55:00 24.9 C 53 % 14.66 C
1885 21-07-2019 13:00:00 24.9 C 53 % 14.66 C
1886 21-07-2019 13:05:00 24.9 C 52 % 14.37 C
1887 21-07-2019 13:10:00 24.8 C 53 % 14.57 C
1888 21-07-2019 13:15:00 24.8 C 53 % 14.57 C
1889 21-07-2019 13:20:00 24.8 C 54 % 14.86 C
1890 21-07-2019 13:25:00 24.8 C 54 % 14.86 C
1891 21-07-2019 13:30:00 24.8 C 54 % 14.86 C
1892 21-07-2019 13:35:00 24.9 C 54 % 14.95 C
1893 21-07-2019 13:40:00 25 C 55 % 15.33 C
1894 21-07-2019 13:45:00 25.2 C 52 % 14.65 C
1895 21-07-2019 13:50:00 25.3 C 53 % 15.03 C
1896 21-07-2019 13:55:00 25.3 C 52 % 14.74 C
1897 21-07-2019 14:00:00 25.4 C 52 % 14.83 C
1898 21-07-2019 14:05:00 25.6 C 55 % 15.89 C
1899 21-07-2019 14:10:00 25.8 C 52 % 15.2 C
1900 21-07-2019 14:15:00 25.9 C 52 % 15.29 C
Sensor: Nr:Datum:Temp:Feuchte:Taupunkt:
Aussen-T/F 1901 21-07-2019 14:20:00 26 C 53 % 15.68 C
1902 21-07-2019 14:25:00 26.2 C 50 % 14.96 C
1903 21-07-2019 14:30:00 26.2 C 48 % 14.32 C
1904 21-07-2019 14:35:00 26.2 C 50 % 14.96 C
1905 21-07-2019 14:40:00 26.2 C 50 % 14.96 C
1906 21-07-2019 14:45:00 26.2 C 51 % 15.27 C
1907 21-07-2019 14:50:00 26.2 C 51 % 15.27 C
1908 21-07-2019 14:55:00 26.3 C 49 % 14.74 C
1909 21-07-2019 15:00:00 26.4 C 50 % 15.14 C
1910 21-07-2019 15:05:00 26.7 C 49 % 15.1 C
1911 21-07-2019 15:10:00 26.7 C 49 % 15.1 C
1912 21-07-2019 15:15:00 26.8 C 48 % 14.87 C
1913 21-07-2019 15:20:00 26.9 C 48 % 14.96 C
1914 21-07-2019 15:25:00 27.2 C 49 % 15.56 C
1915 21-07-2019 15:30:00 27.1 C 47 % 14.82 C
1916 21-07-2019 15:35:00 26.8 C 48 % 14.87 C
1917 21-07-2019 15:40:00 26.7 C 48 % 14.78 C
1918 21-07-2019 15:45:00 26.8 C 49 % 15.19 C
1919 21-07-2019 15:50:00 26.9 C 48 % 14.96 C
1920 21-07-2019 15:55:00 27.1 C 47 % 14.82 C
1921 21-07-2019 16:00:00 27.3 C 46 % 14.67 C
1922 21-07-2019 16:05:00 27.5 C 47 % 15.18 C
1923 21-07-2019 16:10:00 27.6 C 47 % 15.27 C
1924 21-07-2019 16:15:00 27.6 C 46 % 14.94 C
1925 21-07-2019 16:20:00 27.6 C 46 % 14.94 C
Sensor: Nr:Datum:Temp:Feuchte:Taupunkt:
Aussen-T/F 1926 21-07-2019 16:25:00 27.8 C 47 % 15.45 C
1927 21-07-2019 16:30:00 27.9 C 45 % 14.87 C
1928 21-07-2019 16:35:00 27.8 C 45 % 14.78 C
1929 21-07-2019 16:40:00 27.9 C 45 % 14.87 C
1930 21-07-2019 16:45:00 28 C 46 % 15.3 C
1931 21-07-2019 16:50:00 28.1 C 46 % 15.39 C
1932 21-07-2019 16:55:00 28.1 C 45 % 15.05 C
1933 21-07-2019 17:00:00 27.9 C 45 % 14.87 C
1934 21-07-2019 17:05:00 27.8 C 47 % 15.45 C
1935 21-07-2019 17:10:00 27.7 C 46 % 15.03 C
1936 21-07-2019 17:15:00 27.3 C 47 % 15 C
1937 21-07-2019 17:20:00 27.3 C 48 % 15.33 C
1938 21-07-2019 17:25:00 27.3 C 48 % 15.33 C
1939 21-07-2019 17:30:00 27.3 C 48 % 15.33 C
1940 21-07-2019 17:35:00 26.9 C 50 % 15.6 C
1941 21-07-2019 17:40:00 26.8 C 49 % 15.19 C
1942 21-07-2019 17:45:00 26.8 C 49 % 15.19 C
1943 21-07-2019 17:50:00 27 C 47 % 14.73 C
1944 21-07-2019 17:55:00 27.2 C 47 % 14.91 C
1945 21-07-2019 18:00:00 27.2 C 49 % 15.56 C
1946 21-07-2019 18:05:00 27.2 C 48 % 15.24 C
1947 21-07-2019 18:10:00 26.9 C 48 % 14.96 C
1948 21-07-2019 18:15:00 26.7 C 48 % 14.78 C
1949 21-07-2019 18:20:00 26.4 C 48 % 14.51 C
1950 21-07-2019 18:25:00 26.3 C 50 % 15.05 C
Sensor: Nr:Datum:Temp:Feuchte:Taupunkt:
Aussen-T/F 1951 21-07-2019 18:30:00 26.2 C 50 % 14.96 C
1952 21-07-2019 18:35:00 26.2 C 50 % 14.96 C
1953 21-07-2019 18:40:00 26.1 C 50 % 14.87 C
1954 21-07-2019 18:45:00 26 C 50 % 14.77 C
1955 21-07-2019 18:50:00 26 C 50 % 14.77 C
1956 21-07-2019 18:55:00 26.1 C 50 % 14.87 C
1957 21-07-2019 19:00:00 26.3 C 50 % 15.05 C
1958 21-07-2019 19:05:00 26.2 C 50 % 14.96 C
1959 21-07-2019 19:10:00 26.1 C 51 % 15.17 C
1960 21-07-2019 19:15:00 25.9 C 50 % 14.68 C
1961 21-07-2019 19:20:00 25.7 C 52 % 15.11 C
1962 21-07-2019 19:25:00 25.4 C 52 % 14.83 C
1963 21-07-2019 19:30:00 25.2 C 53 % 14.94 C
1964 21-07-2019 19:35:00 25.1 C 53 % 14.85 C
1965 21-07-2019 19:40:00 24.9 C 53 % 14.66 C
1966 21-07-2019 19:45:00 24.8 C 54 % 14.86 C
1967 21-07-2019 19:50:00 24.7 C 54 % 14.77 C
1968 21-07-2019 19:55:00 24.6 C 54 % 14.68 C
1969 21-07-2019 20:00:00 24.5 C 54 % 14.58 C
1970 21-07-2019 20:05:00 24.5 C 54 % 14.58 C
1971 21-07-2019 20:10:00 24.4 C 55 % 14.78 C
1972 21-07-2019 20:15:00 24.4 C 56 % 15.06 C
1973 21-07-2019 20:20:00 24.3 C 55 % 14.68 C
1974 21-07-2019 20:25:00 24.3 C 56 % 14.96 C
1975 21-07-2019 20:30:00 24.4 C 56 % 15.06 C
Sensor: Nr:Datum:Temp:Feuchte:Taupunkt:
Aussen-T/F 1976 21-07-2019 20:35:00 24.5 C 55 % 14.87 C
1977 21-07-2019 20:40:00 24.4 C 54 % 14.49 C
1978 21-07-2019 20:45:00 24.4 C 55 % 14.78 C
1979 21-07-2019 20:50:00 24.4 C 54 % 14.49 C
1980 21-07-2019 20:55:00 24.3 C 54 % 14.4 C
1981 21-07-2019 21:00:00 24.2 C 54 % 14.31 C
1982 21-07-2019 21:05:00 24.1 C 55 % 14.5 C
1983 21-07-2019 21:10:00 23.9 C 58 % 15.14 C
1984 21-07-2019 21:15:00 23.7 C 59 % 15.21 C
1985 21-07-2019 21:20:00 23.3 C 60 % 15.1 C
1986 21-07-2019 21:25:00 22.8 C 61 % 14.89 C
1987 21-07-2019 21:30:00 22.4 C 62 % 14.76 C
1988 21-07-2019 21:35:00 22.1 C 63 % 14.73 C
1989 21-07-2019 21:40:00 21.7 C 64 % 14.6 C
1990 21-07-2019 21:45:00 21.4 C 65 % 14.55 C
1991 21-07-2019 21:50:00 21.2 C 66 % 14.6 C
1992 21-07-2019 21:55:00 20.9 C 67 % 14.55 C
1993 21-07-2019 22:00:00 20.7 C 68 % 14.58 C
1994 21-07-2019 22:05:00 20.5 C 69 % 14.62 C
1995 21-07-2019 22:10:00 20.3 C 70 % 14.65 C
1996 21-07-2019 22:15:00 20.2 C 71 % 14.78 C
1997 21-07-2019 22:20:00 19.9 C 71 % 14.49 C
1998 21-07-2019 22:25:00 19.8 C 71 % 14.39 C
1999 21-07-2019 22:30:00 19.7 C 72 % 14.51 C
2000 21-07-2019 22:35:00 19.6 C 72 % 14.42 C
Sensor: Nr:Datum:Temp:Feuchte:Taupunkt:
Aussen-T/F 2001 21-07-2019 22:40:00 19.6 C 72 % 14.42 C
2002 21-07-2019 22:45:00 19.4 C 73 % 14.44 C
2003 21-07-2019 22:50:00 19.3 C 74 % 14.55 C
2004 21-07-2019 22:55:00 19.2 C 75 % 14.66 C
2005 21-07-2019 23:00:00 19.1 C 76 % 14.77 C
2006 21-07-2019 23:05:00 18.9 C 76 % 14.58 C
2007 21-07-2019 23:10:00 18.8 C 77 % 14.68 C
2008 21-07-2019 23:15:00 18.7 C 77 % 14.59 C
2009 21-07-2019 23:20:00 18.6 C 78 % 14.69 C
2010 21-07-2019 23:25:00 18.3 C 78 % 14.4 C
2011 21-07-2019 23:30:00 18.2 C 79 % 14.5 C
2012 21-07-2019 23:35:00 18.1 C 79 % 14.4 C
2013 21-07-2019 23:40:00 18.1 C 79 % 14.4 C
2014 21-07-2019 23:45:00 17.9 C 79 % 14.21 C
2015 21-07-2019 23:50:00 17.8 C 80 % 14.31 C
2016 21-07-2019 23:55:00 17.7 C 80 % 14.21 C
2017 22-07-2019 00:00:00 17.6 C 80 % 14.11 C
2018 22-07-2019 00:05:00 17.5 C 80 % 14.01 C
2019 22-07-2019 00:10:00 17.4 C 80 % 13.92 C
2020 22-07-2019 00:15:00 17.3 C 80 % 13.82 C
2021 22-07-2019 00:20:00 17.1 C 81 % 13.82 C
2022 22-07-2019 00:25:00 17.1 C 81 % 13.82 C
2023 22-07-2019 00:30:00 16.9 C 81 % 13.62 C
2024 22-07-2019 00:35:00 16.9 C 82 % 13.81 C
2025 22-07-2019 00:40:00 16.9 C 82 % 13.81 C
Sensor: Nr:Datum:Temp:Feuchte:Taupunkt:
Aussen-T/F 2026 22-07-2019 00:45:00 16.8 C 82 % 13.71 C
2027 22-07-2019 00:50:00 16.7 C 82 % 13.61 C
2028 22-07-2019 00:55:00 16.7 C 82 % 13.61 C
2029 22-07-2019 01:00:00 16.5 C 82 % 13.42 C
2030 22-07-2019 01:05:00 16.4 C 83 % 13.51 C
2031 22-07-2019 01:10:00 16.4 C 83 % 13.51 C
2032 22-07-2019 01:15:00 16.3 C 84 % 13.59 C
2033 22-07-2019 01:20:00 16.3 C 84 % 13.59 C
2034 22-07-2019 01:25:00 16.2 C 84 % 13.5 C
2035 22-07-2019 01:30:00 16.2 C 84 % 13.5 C
2036 22-07-2019 01:35:00 16.1 C 85 % 13.58 C
2037 22-07-2019 01:40:00 16 C 85 % 13.48 C
2038 22-07-2019 01:45:00 15.9 C 85 % 13.38 C
2039 22-07-2019 01:50:00 15.8 C 85 % 13.28 C
2040 22-07-2019 01:55:00 15.8 C 86 % 13.46 C
2041 22-07-2019 02:00:00 15.7 C 86 % 13.37 C
2042 22-07-2019 02:05:00 15.7 C 87 % 13.54 C
2043 22-07-2019 02:10:00 15.7 C 87 % 13.54 C
2044 22-07-2019 02:15:00 15.7 C 87 % 13.54 C
2045 22-07-2019 02:20:00 15.7 C 87 % 13.54 C
2046 22-07-2019 02:25:00 15.7 C 87 % 13.54 C
2047 22-07-2019 02:30:00 15.6 C 88 % 13.62 C
2048 22-07-2019 02:35:00 15.6 C 88 % 13.62 C
2049 22-07-2019 02:40:00 15.6 C 88 % 13.62 C
2050 22-07-2019 02:45:00 15.6 C 88 % 13.62 C
Sensor: Nr:Datum:Temp:Feuchte:Taupunkt:
Aussen-T/F 2051 22-07-2019 02:50:00 15.6 C 88 % 13.62 C
2052 22-07-2019 02:55:00 15.5 C 88 % 13.52 C
2053 22-07-2019 03:00:00 15.5 C 88 % 13.52 C
2054 22-07-2019 03:05:00 15.5 C 88 % 13.52 C
2055 22-07-2019 03:10:00 15.5 C 88 % 13.52 C
2056 22-07-2019 03:15:00 15.4 C 88 % 13.42 C
2057 22-07-2019 03:20:00 15.4 C 88 % 13.42 C
2058 22-07-2019 03:25:00 15.4 C 88 % 13.42 C
2059 22-07-2019 03:30:00 15.3 C 88 % 13.33 C
2060 22-07-2019 03:35:00 15.3 C 88 % 13.33 C
2061 22-07-2019 03:40:00 15.2 C 89 % 13.4 C
2062 22-07-2019 03:45:00 15.2 C 89 % 13.4 C
2063 22-07-2019 03:50:00 15.2 C 89 % 13.4 C
2064 22-07-2019 03:55:00 15.1 C 89 % 13.3 C
2065 22-07-2019 04:00:00 15.1 C 89 % 13.3 C
2066 22-07-2019 04:05:00 15 C 89 % 13.2 C
2067 22-07-2019 04:10:00 14.9 C 89 % 13.1 C
2068 22-07-2019 04:15:00 14.8 C 89 % 13.01 C
2069 22-07-2019 04:20:00 14.8 C 89 % 13.01 C
2070 22-07-2019 04:25:00 14.7 C 89 % 12.91 C
2071 22-07-2019 04:30:00 14.7 C 90 % 13.08 C
2072 22-07-2019 04:35:00 14.6 C 90 % 12.98 C
2073 22-07-2019 04:40:00 14.6 C 90 % 12.98 C
2074 22-07-2019 04:45:00 14.6 C 90 % 12.98 C
2075 22-07-2019 04:50:00 14.6 C 90 % 12.98 C
Sensor: Nr:Datum:Temp:Feuchte:Taupunkt:
Aussen-T/F 2076 22-07-2019 04:55:00 14.5 C 90 % 12.88 C
2077 22-07-2019 05:00:00 14.4 C 90 % 12.78 C
2078 22-07-2019 05:05:00 14.4 C 90 % 12.78 C
2079 22-07-2019 05:10:00 14.4 C 91 % 12.95 C
2080 22-07-2019 05:15:00 14.3 C 91 % 12.85 C
2081 22-07-2019 05:20:00 14.4 C 91 % 12.95 C
2082 22-07-2019 05:25:00 14.3 C 91 % 12.85 C
2083 22-07-2019 05:30:00 14.3 C 91 % 12.85 C
2084 22-07-2019 05:35:00 14.3 C 91 % 12.85 C
2085 22-07-2019 05:40:00 14.2 C 91 % 12.75 C
2086 22-07-2019 05:45:00 14.2 C 91 % 12.75 C
2087 22-07-2019 05:50:00 14.2 C 91 % 12.75 C
2088 22-07-2019 05:55:00 14.2 C 92 % 12.92 C
2089 22-07-2019 06:00:00 14.2 C 92 % 12.92 C
2090 22-07-2019 06:05:00 14.2 C 92 % 12.92 C
2091 22-07-2019 06:10:00 14.3 C 92 % 13.02 C
2092 22-07-2019 06:15:00 14.3 C 92 % 13.02 C
2093 22-07-2019 06:20:00 14.2 C 91 % 12.75 C
2094 22-07-2019 06:25:00 14.1 C 91 % 12.65 C
2095 22-07-2019 06:30:00 14.1 C 92 % 12.82 C
2096 22-07-2019 06:35:00 14.1 C 92 % 12.82 C
2097 22-07-2019 06:40:00 14.1 C 92 % 12.82 C
2098 22-07-2019 06:45:00 14.1 C 92 % 12.82 C
2099 22-07-2019 06:50:00 14.2 C 92 % 12.92 C
2100 22-07-2019 06:55:00 14.2 C 92 % 12.92 C
Sensor: Nr:Datum:Temp:Feuchte:Taupunkt:
Aussen-T/F 2101 22-07-2019 07:00:00 14.3 C 93 % 13.18 C
2102 22-07-2019 07:05:00 14.3 C 93 % 13.18 C
2103 22-07-2019 07:10:00 14.3 C 93 % 13.18 C
2104 22-07-2019 07:15:00 14.4 C 93 % 13.28 C
2105 22-07-2019 07:20:00 14.5 C 93 % 13.38 C
2106 22-07-2019 07:25:00 14.7 C 93 % 13.58 C
2107 22-07-2019 07:30:00 14.8 C 93 % 13.68 C
2108 22-07-2019 07:35:00 14.9 C 93 % 13.78 C
2109 22-07-2019 07:40:00 14.9 C 93 % 13.78 C
2110 22-07-2019 07:45:00 15.1 C 92 % 13.81 C
2111 22-07-2019 07:50:00 15.2 C 92 % 13.91 C
2112 22-07-2019 07:55:00 15.3 C 92 % 14.01 C
2113 22-07-2019 08:00:00 15.4 C 92 % 14.11 C
2114 22-07-2019 08:05:00 15.5 C 92 % 14.21 C
2115 22-07-2019 08:10:00 15.6 C 92 % 14.31 C
2116 22-07-2019 08:15:00 15.7 C 91 % 14.24 C
2117 22-07-2019 08:20:00 16 C 91 % 14.53 C
2118 22-07-2019 08:25:00 16.2 C 89 % 14.39 C
2119 22-07-2019 08:30:00 16.4 C 88 % 14.41 C
2120 22-07-2019 08:35:00 16.6 C 88 % 14.6 C
2121 22-07-2019 08:40:00 16.8 C 87 % 14.62 C
2122 22-07-2019 08:45:00 16.9 C 87 % 14.72 C
2123 22-07-2019 08:50:00 17.1 C 87 % 14.92 C
2124 22-07-2019 08:55:00 17.2 C 87 % 15.02 C
2125 22-07-2019 09:00:00 17.3 C 87 % 15.12 C
Sensor: Nr:Datum:Temp:Feuchte:Taupunkt:
Aussen-T/F 2126 22-07-2019 09:05:00 17.4 C 86 % 15.03 C
2127 22-07-2019 09:10:00 17.6 C 85 % 15.05 C
2128 22-07-2019 09:15:00 17.7 C 86 % 15.33 C
2129 22-07-2019 09:20:00 17.9 C 85 % 15.34 C
2130 22-07-2019 09:25:00 18.1 C 83 % 15.17 C
2131 22-07-2019 09:30:00 18.3 C 83 % 15.36 C
2132 22-07-2019 09:35:00 18.6 C 82 % 15.47 C
2133 22-07-2019 09:40:00 18.8 C 83 % 15.85 C
2134 22-07-2019 09:45:00 18.8 C 82 % 15.66 C
2135 22-07-2019 09:50:00 18.9 C 83 % 15.95 C
2136 22-07-2019 09:55:00 19.1 C 82 % 15.96 C
2137 22-07-2019 10:00:00 19.3 C 82 % 16.15 C
2138 22-07-2019 10:05:00 19.5 C 81 % 16.15 C
2139 22-07-2019 10:10:00 19.7 C 79 % 15.96 C
2140 22-07-2019 10:15:00 19.8 C 77 % 15.65 C
2141 22-07-2019 10:20:00 20.2 C 76 % 15.83 C
2142 22-07-2019 10:25:00 20.6 C 76 % 16.22 C
2143 22-07-2019 10:30:00 20.8 C 75 % 16.21 C
2144 22-07-2019 10:35:00 21.2 C 72 % 15.95 C
2145 22-07-2019 10:40:00 21.6 C 71 % 16.12 C
2146 22-07-2019 10:45:00 22 C 72 % 16.72 C
2147 22-07-2019 10:50:00 22.3 C 67 % 15.88 C
2148 22-07-2019 10:55:00 22.7 C 63 % 15.3 C
2149 22-07-2019 11:00:00 23.1 C 60 % 14.91 C
2150 22-07-2019 11:05:00 23.3 C 61 % 15.36 C
Sensor: Nr:Datum:Temp:Feuchte:Taupunkt:
Aussen-T/F 2151 22-07-2019 11:10:00 23.4 C 60 % 15.19 C
2152 22-07-2019 11:15:00 23.6 C 61 % 15.64 C
2153 22-07-2019 11:20:00 23.7 C 59 % 15.21 C
2154 22-07-2019 11:25:00 23.8 C 59 % 15.31 C
2155 22-07-2019 11:30:00 24.1 C 58 % 15.32 C
2156 22-07-2019 11:35:00 24.3 C 57 % 15.24 C
2157 22-07-2019 11:40:00 24.4 C 56 % 15.06 C
2158 22-07-2019 11:45:00 24.6 C 56 % 15.24 C
2159 22-07-2019 11:50:00 24.8 C 55 % 15.15 C
2160 22-07-2019 11:55:00 25 C 54 % 15.05 C
2161 22-07-2019 12:00:00 25.1 C 54 % 15.14 C
2162 22-07-2019 12:05:00 25.3 C 53 % 15.03 C
2163 22-07-2019 12:10:00 25.3 C 53 % 15.03 C
2164 22-07-2019 12:15:00 25.3 C 53 % 15.03 C
2165 22-07-2019 12:20:00 25.4 C 53 % 15.13 C
2166 22-07-2019 12:25:00 25.4 C 53 % 15.13 C
2167 22-07-2019 12:30:00 25.5 C 53 % 15.22 C
2168 22-07-2019 12:35:00 25.7 C 53 % 15.4 C
2169 22-07-2019 12:40:00 25.9 C 52 % 15.29 C
2170 22-07-2019 12:45:00 25.9 C 52 % 15.29 C
2171 22-07-2019 12:50:00 25.9 C 51 % 14.99 C
2172 22-07-2019 12:55:00 26 C 51 % 15.08 C
2173 22-07-2019 13:00:00 26 C 51 % 15.08 C
2174 22-07-2019 13:05:00 26 C 51 % 15.08 C
2175 22-07-2019 13:10:00 26.1 C 51 % 15.17 C
Sensor: Nr:Datum:Temp:Feuchte:Taupunkt:
Aussen-T/F 2176 22-07-2019 13:15:00 26.2 C 51 % 15.27 C
2177 22-07-2019 13:20:00 26.2 C 50 % 14.96 C
2178 22-07-2019 13:25:00 26.3 C 51 % 15.36 C
2179 22-07-2019 13:30:00 26.3 C 51 % 15.36 C
2180 22-07-2019 13:35:00 26.4 C 50 % 15.14 C
2181 22-07-2019 13:40:00 26.6 C 50 % 15.32 C
2182 22-07-2019 13:45:00 26.7 C 50 % 15.42 C
2183 22-07-2019 13:50:00 27 C 49 % 15.38 C
2184 22-07-2019 13:55:00 27.2 C 47 % 14.91 C
2185 22-07-2019 14:00:00 27.2 C 48 % 15.24 C
2186 22-07-2019 14:05:00 27.3 C 47 % 15 C
2187 22-07-2019 14:10:00 27.4 C 46 % 14.76 C
2188 22-07-2019 14:15:00 27.7 C 46 % 15.03 C
2189 22-07-2019 14:20:00 27.7 C 45 % 14.69 C
2190 22-07-2019 14:25:00 27.7 C 45 % 14.69 C
2191 22-07-2019 14:30:00 27.7 C 45 % 14.69 C
2192 22-07-2019 14:35:00 27.8 C 47 % 15.45 C
2193 22-07-2019 14:40:00 28.1 C 46 % 15.39 C
2194 22-07-2019 14:45:00 28.3 C 45 % 15.23 C
2195 22-07-2019 14:50:00 28.2 C 45 % 15.14 C
2196 22-07-2019 14:55:00 28.2 C 44 % 14.79 C
2197 22-07-2019 15:00:00 28.3 C 45 % 15.23 C
2198 22-07-2019 15:05:00 28.4 C 45 % 15.32 C
2199 22-07-2019 15:10:00 28.6 C 45 % 15.5 C
2200 22-07-2019 15:15:00 28.8 C 44 % 15.33 C
Sensor: Nr:Datum:Temp:Feuchte:Taupunkt:
Aussen-T/F 2201 22-07-2019 15:20:00 28.9 C 44 % 15.42 C
2202 22-07-2019 15:25:00 29.1 C 42 % 14.88 C
2203 22-07-2019 15:30:00 29.2 C 42 % 14.97 C
2204 22-07-2019 15:35:00 29.1 C 42 % 14.88 C
2205 22-07-2019 15:40:00 29.2 C 44 % 15.69 C
2206 22-07-2019 15:45:00 29.4 C 42 % 15.15 C
2207 22-07-2019 15:50:00 29.7 C 41 % 15.04 C
2208 22-07-2019 15:55:00 29.9 C 41 % 15.22 C
2209 22-07-2019 16:00:00 30.2 C 41 % 15.49 C
2210 22-07-2019 16:05:00 30.4 C 39 % 14.89 C
2211 22-07-2019 16:10:00 30.7 C 40 % 15.55 C
2212 22-07-2019 16:15:00 30.8 C 39 % 15.24 C
2213 22-07-2019 16:20:00 30.9 C 38 % 14.93 C
2214 22-07-2019 16:25:00 30.8 C 39 % 15.24 C
2215 22-07-2019 16:30:00 30.9 C 38 % 14.93 C
2216 22-07-2019 16:35:00 30.8 C 38 % 14.84 C
2217 22-07-2019 16:40:00 30.7 C 39 % 15.15 C
2218 22-07-2019 16:45:00 31 C 39 % 15.42 C
2219 22-07-2019 16:50:00 31.2 C 38 % 15.19 C
2220 22-07-2019 16:55:00 31.3 C 37 % 14.87 C
2221 22-07-2019 17:00:00 31.4 C 38 % 15.37 C
2222 22-07-2019 17:05:00 31.6 C 37 % 15.13 C
2223 22-07-2019 17:10:00 31.3 C 37 % 14.87 C
2224 22-07-2019 17:15:00 31.2 C 37 % 14.78 C
2225 22-07-2019 17:20:00 31.2 C 37 % 14.78 C
Sensor: Nr:Datum:Temp:Feuchte:Taupunkt:
Aussen-T/F 2226 22-07-2019 17:25:00 31.3 C 37 % 14.87 C
2227 22-07-2019 17:30:00 31.3 C 37 % 14.87 C
2228 22-07-2019 17:35:00 31.4 C 37 % 14.96 C
2229 22-07-2019 17:40:00 31.7 C 37 % 15.22 C
2230 22-07-2019 17:45:00 31.8 C 36 % 14.88 C
2231 22-07-2019 17:50:00 31.9 C 36 % 14.97 C
2232 22-07-2019 17:55:00 32.1 C 36 % 15.15 C
2233 22-07-2019 18:00:00 32.1 C 35 % 14.71 C
2234 22-07-2019 18:05:00 32 C 36 % 15.06 C
2235 22-07-2019 18:10:00 32 C 36 % 15.06 C
2236 22-07-2019 18:15:00 32.1 C 36 % 15.15 C
2237 22-07-2019 18:20:00 32.1 C 36 % 15.15 C
2238 22-07-2019 18:25:00 32.2 C 36 % 15.23 C
2239 22-07-2019 18:30:00 32.3 C 35 % 14.88 C
2240 22-07-2019 18:35:00 32.3 C 35 % 14.88 C
2241 22-07-2019 18:40:00 32.6 C 35 % 15.15 C
2242 22-07-2019 18:45:00 32.7 C 35 % 15.23 C
2243 22-07-2019 18:50:00 32.8 C 34 % 14.87 C
2244 22-07-2019 18:55:00 32.6 C 35 % 15.15 C
2245 22-07-2019 19:00:00 32.3 C 36 % 15.32 C
2246 22-07-2019 19:05:00 32.3 C 35 % 14.88 C
2247 22-07-2019 19:10:00 32.2 C 34 % 14.35 C
2248 22-07-2019 19:15:00 32 C 35 % 14.62 C
2249 22-07-2019 19:20:00 31.9 C 35 % 14.53 C
2250 22-07-2019 19:25:00 31.9 C 36 % 14.97 C
Sensor: Nr:Datum:Temp:Feuchte:Taupunkt:
Aussen-T/F 2251 22-07-2019 19:30:00 31.7 C 36 % 14.79 C
2252 22-07-2019 19:35:00 31.2 C 37 % 14.78 C
2253 22-07-2019 19:40:00 30.8 C 37 % 14.43 C
2254 22-07-2019 19:45:00 30.7 C 38 % 14.75 C
2255 22-07-2019 19:50:00 30.4 C 38 % 14.49 C
2256 22-07-2019 19:55:00 30.3 C 39 % 14.8 C
2257 22-07-2019 20:00:00 30.2 C 40 % 15.1 C
2258 22-07-2019 20:05:00 30.1 C 40 % 15.01 C
2259 22-07-2019 20:10:00 30 C 40 % 14.93 C
2260 22-07-2019 20:15:00 29.9 C 40 % 14.84 C
2261 22-07-2019 20:20:00 29.8 C 40 % 14.75 C
2262 22-07-2019 20:25:00 29.7 C 42 % 15.42 C
2263 22-07-2019 20:30:00 29.4 C 42 % 15.15 C
2264 22-07-2019 20:35:00 29.3 C 43 % 15.42 C
2265 22-07-2019 20:40:00 29.1 C 44 % 15.6 C
2266 22-07-2019 20:45:00 28.8 C 45 % 15.68 C
2267 22-07-2019 20:50:00 28.6 C 48 % 16.51 C
2268 22-07-2019 20:55:00 28.2 C 51 % 17.1 C
2269 22-07-2019 21:00:00 27.9 C 51 % 16.83 C
2270 22-07-2019 21:05:00 27.4 C 52 % 16.67 C
2271 22-07-2019 21:10:00 26.9 C 53 % 16.51 C
2272 22-07-2019 21:15:00 26.4 C 55 % 16.63 C
2273 22-07-2019 21:20:00 26 C 56 % 16.54 C
2274 22-07-2019 21:25:00 25.6 C 57 % 16.45 C
2275 22-07-2019 21:30:00 25.2 C 57 % 16.08 C
Sensor: Nr:Datum:Temp:Feuchte:Taupunkt:
Aussen-T/F 2276 22-07-2019 21:35:00 24.8 C 58 % 15.98 C
2277 22-07-2019 21:40:00 24.6 C 58 % 15.79 C
2278 22-07-2019 21:45:00 24.3 C 60 % 16.04 C
2279 22-07-2019 21:50:00 24.1 C 60 % 15.85 C
2280 22-07-2019 21:55:00 23.9 C 61 % 15.92 C
2281 22-07-2019 22:00:00 23.7 C 61 % 15.73 C
2282 22-07-2019 22:05:00 23.6 C 61 % 15.64 C
2283 22-07-2019 22:10:00 23.4 C 62 % 15.71 C
2284 22-07-2019 22:15:00 23.3 C 62 % 15.61 C
2285 22-07-2019 22:20:00 23.1 C 62 % 15.42 C
2286 22-07-2019 22:25:00 22.9 C 63 % 15.48 C
2287 22-07-2019 22:30:00 22.8 C 64 % 15.64 C
2288 22-07-2019 22:35:00 22.6 C 65 % 15.69 C
2289 22-07-2019 22:40:00 22.4 C 66 % 15.74 C
2290 22-07-2019 22:45:00 22.3 C 66 % 15.64 C
2291 22-07-2019 22:50:00 22.1 C 66 % 15.45 C
2292 22-07-2019 22:55:00 22 C 66 % 15.36 C
2293 22-07-2019 23:00:00 21.9 C 67 % 15.5 C
2294 22-07-2019 23:05:00 21.7 C 68 % 15.54 C
2295 22-07-2019 23:10:00 21.4 C 69 % 15.48 C
2296 22-07-2019 23:15:00 21.2 C 70 % 15.51 C
2297 22-07-2019 23:20:00 21.1 C 70 % 15.42 C
2298 22-07-2019 23:25:00 21 C 71 % 15.54 C
2299 22-07-2019 23:30:00 20.8 C 72 % 15.57 C
2300 22-07-2019 23:35:00 20.7 C 72 % 15.47 C
Sensor: Nr:Datum:Temp:Feuchte:Taupunkt:
Aussen-T/F 2301 22-07-2019 23:40:00 20.5 C 72 % 15.28 C
2302 22-07-2019 23:45:00 20.4 C 73 % 15.4 C
2303 22-07-2019 23:50:00 20.3 C 74 % 15.51 C
2304 22-07-2019 23:55:00 20.1 C 74 % 15.32 C
2305 23-07-2019 00:00:00 20 C 75 % 15.43 C
2306 23-07-2019 00:05:00 19.8 C 75 % 15.24 C
2307 23-07-2019 00:10:00 19.8 C 75 % 15.24 C
2308 23-07-2019 00:15:00 19.6 C 75 % 15.05 C
2309 23-07-2019 00:20:00 19.5 C 76 % 15.16 C
2310 23-07-2019 00:25:00 19.4 C 76 % 15.06 C
2311 23-07-2019 00:30:00 19.3 C 76 % 14.97 C
2312 23-07-2019 00:35:00 19.2 C 77 % 15.07 C
2313 23-07-2019 00:40:00 19.2 C 77 % 15.07 C
2314 23-07-2019 00:45:00 19.1 C 77 % 14.97 C
2315 23-07-2019 00:50:00 19 C 78 % 15.08 C
2316 23-07-2019 00:55:00 18.9 C 78 % 14.98 C
2317 23-07-2019 01:00:00 18.8 C 78 % 14.88 C
2318 23-07-2019 01:05:00 18.8 C 78 % 14.88 C
2319 23-07-2019 01:10:00 18.7 C 79 % 14.99 C
2320 23-07-2019 01:15:00 18.6 C 79 % 14.89 C
2321 23-07-2019 01:20:00 18.5 C 80 % 14.99 C
2322 23-07-2019 01:25:00 18.4 C 80 % 14.89 C
2323 23-07-2019 01:30:00 18.3 C 80 % 14.79 C
2324 23-07-2019 01:35:00 18.2 C 80 % 14.69 C
2325 23-07-2019 01:40:00 18.2 C 81 % 14.89 C
Sensor: Nr:Datum:Temp:Feuchte:Taupunkt:
Aussen-T/F 2326 23-07-2019 01:45:00 18.1 C 81 % 14.79 C
2327 23-07-2019 01:50:00 18 C 81 % 14.69 C
2328 23-07-2019 01:55:00 17.9 C 81 % 14.59 C
2329 23-07-2019 02:00:00 17.9 C 81 % 14.59 C
2330 23-07-2019 02:05:00 17.8 C 82 % 14.69 C
2331 23-07-2019 02:10:00 17.8 C 82 % 14.69 C
2332 23-07-2019 02:15:00 17.7 C 82 % 14.59 C
2333 23-07-2019 02:20:00 17.7 C 82 % 14.59 C
2334 23-07-2019 02:25:00 17.6 C 82 % 14.49 C
2335 23-07-2019 02:30:00 17.5 C 83 % 14.58 C
2336 23-07-2019 02:35:00 17.4 C 83 % 14.48 C
2337 23-07-2019 02:40:00 17.4 C 83 % 14.48 C
2338 23-07-2019 02:45:00 17.3 C 83 % 14.39 C
2339 23-07-2019 02:50:00 17.3 C 83 % 14.39 C
2340 23-07-2019 02:55:00 17.3 C 84 % 14.57 C
2341 23-07-2019 03:00:00 17.2 C 84 % 14.47 C
2342 23-07-2019 03:05:00 17.1 C 84 % 14.38 C
2343 23-07-2019 03:10:00 16.9 C 84 % 14.18 C
2344 23-07-2019 03:15:00 16.9 C 85 % 14.36 C
2345 23-07-2019 03:20:00 16.9 C 85 % 14.36 C
2346 23-07-2019 03:25:00 16.9 C 85 % 14.36 C
2347 23-07-2019 03:30:00 16.8 C 85 % 14.26 C
2348 23-07-2019 03:35:00 16.8 C 85 % 14.26 C
2349 23-07-2019 03:40:00 16.7 C 86 % 14.35 C
2350 23-07-2019 03:45:00 16.7 C 86 % 14.35 C
Sensor: Nr:Datum:Temp:Feuchte:Taupunkt:
Aussen-T/F 2351 23-07-2019 03:50:00 16.6 C 86 % 14.25 C
2352 23-07-2019 03:55:00 16.6 C 86 % 14.25 C
2353 23-07-2019 04:00:00 16.6 C 86 % 14.25 C
2354 23-07-2019 04:05:00 16.5 C 87 % 14.33 C
2355 23-07-2019 04:10:00 16.4 C 87 % 14.23 C
2356 23-07-2019 04:15:00 16.4 C 87 % 14.23 C
2357 23-07-2019 04:20:00 16.3 C 87 % 14.13 C
2358 23-07-2019 04:25:00 16.3 C 87 % 14.13 C
2359 23-07-2019 04:30:00 16.2 C 88 % 14.21 C
2360 23-07-2019 04:35:00 16.2 C 88 % 14.21 C
2361 23-07-2019 04:40:00 16.2 C 88 % 14.21 C
2362 23-07-2019 04:45:00 16.2 C 88 % 14.21 C
2363 23-07-2019 04:50:00 16.1 C 88 % 14.11 C
2364 23-07-2019 04:55:00 16.1 C 88 % 14.11 C
2365 23-07-2019 05:00:00 16.1 C 88 % 14.11 C
2366 23-07-2019 05:05:00 16 C 89 % 14.19 C
2367 23-07-2019 05:10:00 16 C 89 % 14.19 C
2368 23-07-2019 05:15:00 15.9 C 89 % 14.09 C
2369 23-07-2019 05:20:00 15.9 C 89 % 14.09 C
2370 23-07-2019 05:25:00 15.8 C 89 % 13.99 C
2371 23-07-2019 05:30:00 15.8 C 89 % 13.99 C
2372 23-07-2019 05:35:00 15.8 C 89 % 13.99 C
2373 23-07-2019 05:40:00 15.7 C 89 % 13.89 C
2374 23-07-2019 05:45:00 15.7 C 89 % 13.89 C
2375 23-07-2019 05:50:00 15.6 C 90 % 13.97 C
Sensor: Nr:Datum:Temp:Feuchte:Taupunkt:
Aussen-T/F 2376 23-07-2019 05:55:00 15.6 C 90 % 13.97 C
2377 23-07-2019 06:00:00 15.6 C 90 % 13.97 C
2378 23-07-2019 06:05:00 15.6 C 90 % 13.97 C
2379 23-07-2019 06:10:00 15.6 C 91 % 14.14 C
2380 23-07-2019 06:15:00 15.6 C 91 % 14.14 C
2381 23-07-2019 06:20:00 15.6 C 91 % 14.14 C
2382 23-07-2019 06:25:00 15.6 C 91 % 14.14 C
2383 23-07-2019 06:30:00 15.7 C 91 % 14.24 C
2384 23-07-2019 06:35:00 15.7 C 91 % 14.24 C
2385 23-07-2019 06:40:00 15.7 C 91 % 14.24 C
2386 23-07-2019 06:45:00 15.7 C 91 % 14.24 C
2387 23-07-2019 06:50:00 15.7 C 91 % 14.24 C
2388 23-07-2019 06:55:00 15.8 C 91 % 14.33 C
2389 23-07-2019 07:00:00 15.8 C 91 % 14.33 C
2390 23-07-2019 07:05:00 15.9 C 91 % 14.43 C
2391 23-07-2019 07:10:00 16 C 91 % 14.53 C
2392 23-07-2019 07:15:00 16.1 C 91 % 14.63 C
2393 23-07-2019 07:20:00 16.1 C 91 % 14.63 C
2394 23-07-2019 07:25:00 16.1 C 91 % 14.63 C
2395 23-07-2019 07:30:00 16.1 C 91 % 14.63 C
2396 23-07-2019 07:35:00 16.2 C 91 % 14.73 C
2397 23-07-2019 07:40:00 16.2 C 91 % 14.73 C
2398 23-07-2019 07:45:00 16.2 C 91 % 14.73 C
2399 23-07-2019 07:50:00 16.3 C 91 % 14.83 C
2400 23-07-2019 07:55:00 16.3 C 91 % 14.83 C
Sensor: Nr:Datum:Temp:Feuchte:Taupunkt:
Aussen-T/F 2401 23-07-2019 08:00:00 16.4 C 91 % 14.93 C
2402 23-07-2019 08:05:00 16.4 C 91 % 14.93 C
2403 23-07-2019 08:10:00 16.5 C 91 % 15.03 C
2404 23-07-2019 08:15:00 16.6 C 91 % 15.13 C
2405 23-07-2019 08:20:00 16.7 C 91 % 15.22 C
2406 23-07-2019 08:25:00 16.7 C 91 % 15.22 C
2407 23-07-2019 08:30:00 16.8 C 91 % 15.32 C
2408 23-07-2019 08:35:00 16.9 C 90 % 15.25 C
2409 23-07-2019 08:40:00 17.1 C 90 % 15.45 C
2410 23-07-2019 08:45:00 17.2 C 90 % 15.55 C
2411 23-07-2019 08:50:00 17.3 C 90 % 15.64 C
2412 23-07-2019 08:55:00 17.4 C 90 % 15.74 C
2413 23-07-2019 09:00:00 17.6 C 90 % 15.94 C
2414 23-07-2019 09:05:00 17.7 C 89 % 15.86 C
2415 23-07-2019 09:10:00 17.8 C 89 % 15.96 C
2416 23-07-2019 09:15:00 18.1 C 89 % 16.26 C
2417 23-07-2019 09:20:00 18.3 C 88 % 16.28 C
2418 23-07-2019 09:25:00 18.6 C 88 % 16.57 C
2419 23-07-2019 09:30:00 18.8 C 87 % 16.59 C
2420 23-07-2019 09:35:00 19 C 87 % 16.79 C
2421 23-07-2019 09:40:00 19.2 C 86 % 16.8 C
2422 23-07-2019 09:45:00 19.5 C 85 % 16.91 C
2423 23-07-2019 09:50:00 19.8 C 84 % 17.02 C
2424 23-07-2019 09:55:00 20.1 C 83 % 17.12 C
2425 23-07-2019 10:00:00 20.4 C 83 % 17.42 C
Sensor: Nr:Datum:Temp:Feuchte:Taupunkt:
Aussen-T/F 2426 23-07-2019 10:05:00 20.7 C 81 % 17.32 C
2427 23-07-2019 10:10:00 21.1 C 80 % 17.51 C
2428 23-07-2019 10:15:00 21.3 C 79 % 17.51 C
2429 23-07-2019 10:20:00 21.6 C 79 % 17.8 C
2430 23-07-2019 10:25:00 21.9 C 77 % 17.68 C
2431 23-07-2019 10:30:00 22.3 C 77 % 18.07 C
2432 23-07-2019 10:35:00 22.7 C 76 % 18.25 C
2433 23-07-2019 10:40:00 23.2 C 73 % 18.09 C
2434 23-07-2019 10:45:00 23.8 C 66 % 17.07 C
2435 23-07-2019 10:50:00 24.8 C 66 % 18.01 C
2436 23-07-2019 10:55:00 25.3 C 63 % 17.75 C
2437 23-07-2019 11:00:00 25.6 C 61 % 17.52 C
2438 23-07-2019 11:05:00 25.9 C 58 % 17 C
2439 23-07-2019 11:10:00 26.4 C 57 % 17.19 C
2440 23-07-2019 11:15:00 26.9 C 57 % 17.66 C
2441 23-07-2019 11:20:00 27.1 C 57 % 17.85 C
2442 23-07-2019 11:25:00 27.1 C 53 % 16.7 C
2443 23-07-2019 11:30:00 27.4 C 53 % 16.97 C
2444 23-07-2019 11:35:00 27.8 C 51 % 16.73 C
2445 23-07-2019 11:40:00 28.1 C 49 % 16.38 C
2446 23-07-2019 11:45:00 28.4 C 48 % 16.33 C
2447 23-07-2019 11:50:00 28.7 C 47 % 16.27 C
2448 23-07-2019 11:55:00 28.8 C 49 % 17.02 C
2449 23-07-2019 12:00:00 28.9 C 47 % 16.45 C
2450 23-07-2019 12:05:00 29.1 C 45 % 15.95 C
Sensor: Nr:Datum:Temp:Feuchte:Taupunkt:
Aussen-T/F 2451 23-07-2019 12:10:00 29.2 C 46 % 16.39 C
2452 23-07-2019 12:15:00 29.3 C 45 % 16.13 C
2453 23-07-2019 12:20:00 29.4 C 46 % 16.57 C
2454 23-07-2019 12:25:00 29.5 C 44 % 15.96 C
2455 23-07-2019 12:30:00 29.6 C 44 % 16.05 C
2456 23-07-2019 12:35:00 29.8 C 42 % 15.51 C
2457 23-07-2019 12:40:00 29.9 C 43 % 15.96 C
2458 23-07-2019 12:45:00 30 C 42 % 15.69 C
2459 23-07-2019 12:50:00 30.2 C 43 % 16.23 C
2460 23-07-2019 12:55:00 30.2 C 41 % 15.49 C
2461 23-07-2019 13:00:00 30.3 C 41 % 15.58 C
2462 23-07-2019 13:05:00 30.3 C 42 % 15.95 C
2463 23-07-2019 13:10:00 30.4 C 41 % 15.67 C
2464 23-07-2019 13:15:00 30.6 C 40 % 15.46 C
2465 23-07-2019 13:20:00 30.6 C 40 % 15.46 C
2466 23-07-2019 13:25:00 30.7 C 40 % 15.55 C
2467 23-07-2019 13:30:00 30.8 C 40 % 15.64 C
2468 23-07-2019 13:35:00 30.9 C 39 % 15.33 C
2469 23-07-2019 13:40:00 31.1 C 38 % 15.1 C
2470 23-07-2019 13:45:00 31.2 C 40 % 15.99 C
2471 23-07-2019 13:50:00 31.2 C 40 % 15.99 C
2472 23-07-2019 13:55:00 31.3 C 38 % 15.28 C
2473 23-07-2019 14:00:00 31.3 C 39 % 15.69 C
2474 23-07-2019 14:05:00 31.4 C 38 % 15.37 C
2475 23-07-2019 14:10:00 31.7 C 39 % 16.04 C
Sensor: Nr:Datum:Temp:Feuchte:Taupunkt:
Aussen-T/F 2476 23-07-2019 14:15:00 31.9 C 38 % 15.81 C
2477 23-07-2019 14:20:00 32.1 C 38 % 15.99 C
2478 23-07-2019 14:25:00 32.2 C 37 % 15.66 C
2479 23-07-2019 14:30:00 32.3 C 36 % 15.32 C
2480 23-07-2019 14:35:00 32.3 C 36 % 15.32 C
2481 23-07-2019 14:40:00 32.4 C 36 % 15.41 C
2482 23-07-2019 14:45:00 32.5 C 36 % 15.5 C
2483 23-07-2019 14:50:00 32.6 C 37 % 16.01 C
2484 23-07-2019 14:55:00 32.7 C 36 % 15.67 C
2485 23-07-2019 15:00:00 32.8 C 37 % 16.19 C
2486 23-07-2019 15:05:00 33.1 C 38 % 16.87 C
2487 23-07-2019 15:10:00 33.2 C 37 % 16.54 C
2488 23-07-2019 15:15:00 33.4 C 36 % 16.29 C
2489 23-07-2019 15:20:00 33.6 C 36 % 16.46 C
2490 23-07-2019 15:25:00 33.8 C 34 % 15.74 C
2491 23-07-2019 15:30:00 33.8 C 34 % 15.74 C
2492 23-07-2019 15:35:00 34 C 34 % 15.92 C
2493 23-07-2019 15:40:00 34.4 C 34 % 16.26 C
2494 23-07-2019 15:45:00 34.7 C 34 % 16.53 C
2495 23-07-2019 15:50:00 34.9 C 33 % 16.23 C
2496 23-07-2019 15:55:00 35.2 C 34 % 16.96 C
2497 23-07-2019 16:00:00 35.5 C 32 % 16.27 C
2498 23-07-2019 16:05:00 35.6 C 32 % 16.35 C
2499 23-07-2019 16:10:00 35.6 C 30 % 15.34 C
2500 23-07-2019 16:15:00 35.6 C 33 % 16.84 C
Sensor: Nr:Datum:Temp:Feuchte:Taupunkt:
Aussen-T/F 2501 23-07-2019 16:20:00 35.8 C 31 % 16.03 C
2502 23-07-2019 16:25:00 35.9 C 31 % 16.11 C
2503 23-07-2019 16:30:00 36.1 C 30 % 15.77 C
2504 23-07-2019 16:35:00 36 C 31 % 16.2 C
2505 23-07-2019 16:40:00 35.8 C 31 % 16.03 C
2506 23-07-2019 16:45:00 35.8 C 30 % 15.52 C
2507 23-07-2019 16:50:00 35.8 C 30 % 15.52 C
2508 23-07-2019 16:55:00 36.1 C 30 % 15.77 C
2509 23-07-2019 17:00:00 36.1 C 29 % 15.24 C
2510 23-07-2019 17:05:00 36.3 C 30 % 15.94 C
2511 23-07-2019 17:10:00 36.4 C 29 % 15.5 C
2512 23-07-2019 17:15:00 36.3 C 28 % 14.87 C
2513 23-07-2019 17:20:00 36.3 C 29 % 15.41 C
2514 23-07-2019 17:25:00 36.4 C 29 % 15.5 C
2515 23-07-2019 17:30:00 36.4 C 29 % 15.5 C
2516 23-07-2019 17:35:00 36.5 C 28 % 15.04 C
2517 23-07-2019 17:40:00 36.6 C 28 % 15.12 C
2518 23-07-2019 17:45:00 36.6 C 28 % 15.12 C
2519 23-07-2019 17:50:00 36.3 C 28 % 14.87 C
2520 23-07-2019 17:55:00 36.4 C 29 % 15.5 C
2521 23-07-2019 18:00:00 36.7 C 30 % 16.29 C
2522 23-07-2019 18:05:00 36.8 C 28 % 15.29 C
2523 23-07-2019 18:10:00 36.8 C 28 % 15.29 C
2524 23-07-2019 18:15:00 36.7 C 29 % 15.76 C
2525 23-07-2019 18:20:00 37 C 28 % 15.46 C
Sensor: Nr:Datum:Temp:Feuchte:Taupunkt:
Aussen-T/F 2526 23-07-2019 18:25:00 36.9 C 27 % 14.81 C
2527 23-07-2019 18:30:00 36.8 C 28 % 15.29 C
2528 23-07-2019 18:35:00 36.8 C 29 % 15.84 C
2529 23-07-2019 18:40:00 36.9 C 29 % 15.93 C
2530 23-07-2019 18:45:00 36.9 C 27 % 14.81 C
2531 23-07-2019 18:50:00 36.6 C 29 % 15.67 C
2532 23-07-2019 18:55:00 36.3 C 29 % 15.41 C
2533 23-07-2019 19:00:00 36.2 C 29 % 15.33 C
2534 23-07-2019 19:05:00 36.2 C 29 % 15.33 C
2535 23-07-2019 19:10:00 36.3 C 29 % 15.41 C
2536 23-07-2019 19:15:00 36.3 C 30 % 15.94 C
2537 23-07-2019 19:20:00 36.1 C 28 % 14.7 C
2538 23-07-2019 19:25:00 35.8 C 31 % 16.03 C
2539 23-07-2019 19:30:00 35.6 C 30 % 15.34 C
2540 23-07-2019 19:35:00 35.4 C 31 % 15.68 C
2541 23-07-2019 19:40:00 35.2 C 30 % 15 C
2542 23-07-2019 19:45:00 35 C 33 % 16.32 C
2543 23-07-2019 19:50:00 34.9 C 36 % 17.6 C
2544 23-07-2019 19:55:00 34.7 C 34 % 16.53 C
2545 23-07-2019 20:00:00 34.5 C 33 % 15.88 C
2546 23-07-2019 20:05:00 34.3 C 35 % 16.63 C
2547 23-07-2019 20:10:00 34.2 C 38 % 17.84 C
2548 23-07-2019 20:15:00 33.9 C 39 % 17.99 C
2549 23-07-2019 20:20:00 33.6 C 39 % 17.73 C
2550 23-07-2019 20:25:00 33.3 C 40 % 17.86 C
Sensor: Nr:Datum:Temp:Feuchte:Taupunkt:
Aussen-T/F 2551 23-07-2019 20:30:00 32.8 C 45 % 19.3 C
2552 23-07-2019 20:35:00 32.3 C 42 % 17.74 C
2553 23-07-2019 20:40:00 31.7 C 42 % 17.21 C
2554 23-07-2019 20:45:00 31.2 C 44 % 17.49 C
2555 23-07-2019 20:50:00 30.7 C 45 % 17.4 C
2556 23-07-2019 20:55:00 30.2 C 46 % 17.3 C
2557 23-07-2019 21:00:00 29.7 C 47 % 17.18 C
2558 23-07-2019 21:05:00 29.4 C 48 % 17.24 C
2559 23-07-2019 21:10:00 29.1 C 48 % 16.97 C
2560 23-07-2019 21:15:00 28.8 C 49 % 17.02 C
2561 23-07-2019 21:20:00 28.4 C 50 % 16.97 C
2562 23-07-2019 21:25:00 28.1 C 50 % 16.7 C
2563 23-07-2019 21:30:00 27.7 C 51 % 16.64 C
2564 23-07-2019 21:35:00 27.4 C 52 % 16.67 C
2565 23-07-2019 21:40:00 27.2 C 52 % 16.49 C
2566 23-07-2019 21:45:00 26.9 C 52 % 16.21 C
2567 23-07-2019 21:50:00 26.8 C 53 % 16.42 C
2568 23-07-2019 21:55:00 26.6 C 52 % 15.94 C
2569 23-07-2019 22:00:00 26.5 C 53 % 16.14 C
2570 23-07-2019 22:05:00 26.4 C 53 % 16.05 C
2571 23-07-2019 22:10:00 26.2 C 54 % 16.16 C
2572 23-07-2019 22:15:00 25.8 C 56 % 16.36 C
2573 23-07-2019 22:20:00 25.6 C 57 % 16.45 C
2574 23-07-2019 22:25:00 25.2 C 57 % 16.08 C
2575 23-07-2019 22:30:00 25 C 58 % 16.16 C
Sensor: Nr:Datum:Temp:Feuchte:Taupunkt:
Aussen-T/F 2576 23-07-2019 22:35:00 24.8 C 60 % 16.51 C
2577 23-07-2019 22:40:00 24.6 C 60 % 16.32 C
2578 23-07-2019 22:45:00 24.3 C 61 % 16.3 C
2579 23-07-2019 22:50:00 24.1 C 62 % 16.37 C
2580 23-07-2019 22:55:00 23.9 C 63 % 16.43 C
2581 23-07-2019 23:00:00 23.7 C 63 % 16.24 C
2582 23-07-2019 23:05:00 23.5 C 64 % 16.3 C
2583 23-07-2019 23:10:00 23.3 C 65 % 16.35 C
2584 23-07-2019 23:15:00 23.2 C 65 % 16.26 C
2585 23-07-2019 23:20:00 23.1 C 66 % 16.4 C
2586 23-07-2019 23:25:00 23 C 66 % 16.31 C
2587 23-07-2019 23:30:00 22.9 C 66 % 16.21 C
2588 23-07-2019 23:35:00 22.8 C 66 % 16.12 C
2589 23-07-2019 23:40:00 22.7 C 67 % 16.26 C
2590 23-07-2019 23:45:00 22.5 C 68 % 16.3 C
2591 23-07-2019 23:50:00 22.3 C 68 % 16.11 C
2592 23-07-2019 23:55:00 22.2 C 68 % 16.01 C
2593 24-07-2019 00:00:00 22.1 C 69 % 16.15 C
2594 24-07-2019 00:05:00 21.9 C 70 % 16.18 C
2595 24-07-2019 00:10:00 21.8 C 70 % 16.09 C
2596 24-07-2019 00:15:00 21.7 C 70 % 15.99 C
2597 24-07-2019 00:20:00 21.6 C 71 % 16.12 C
2598 24-07-2019 00:25:00 21.4 C 71 % 15.93 C
2599 24-07-2019 00:30:00 21.4 C 72 % 16.14 C
2600 24-07-2019 00:35:00 21.3 C 72 % 16.05 C
Sensor: Nr:Datum:Temp:Feuchte:Taupunkt:
Aussen-T/F 2601 24-07-2019 00:40:00 21.2 C 73 % 16.17 C
2602 24-07-2019 00:45:00 21.1 C 73 % 16.07 C
2603 24-07-2019 00:50:00 20.9 C 73 % 15.88 C
2604 24-07-2019 00:55:00 20.9 C 74 % 16.09 C
2605 24-07-2019 01:00:00 20.8 C 74 % 16 C
2606 24-07-2019 01:05:00 20.7 C 76 % 16.32 C
2607 24-07-2019 01:10:00 20.7 C 76 % 16.32 C
2608 24-07-2019 01:15:00 20.6 C 76 % 16.22 C
2609 24-07-2019 01:20:00 20.6 C 76 % 16.22 C
2610 24-07-2019 01:25:00 20.4 C 76 % 16.03 C
2611 24-07-2019 01:30:00 20.3 C 77 % 16.14 C
2612 24-07-2019 01:35:00 20.2 C 77 % 16.04 C
2613 24-07-2019 01:40:00 20.1 C 77 % 15.94 C
2614 24-07-2019 01:45:00 19.9 C 77 % 15.75 C
2615 24-07-2019 01:50:00 19.8 C 77 % 15.65 C
2616 24-07-2019 01:55:00 19.7 C 78 % 15.76 C
2617 24-07-2019 02:00:00 19.7 C 78 % 15.76 C
2618 24-07-2019 02:05:00 19.6 C 78 % 15.66 C
2619 24-07-2019 02:10:00 19.5 C 78 % 15.56 C
2620 24-07-2019 02:15:00 19.5 C 78 % 15.56 C
2621 24-07-2019 02:20:00 19.4 C 78 % 15.47 C
2622 24-07-2019 02:25:00 19.4 C 79 % 15.66 C
2623 24-07-2019 02:30:00 19.3 C 79 % 15.57 C
2624 24-07-2019 02:35:00 19.2 C 79 % 15.47 C
2625 24-07-2019 02:40:00 19.1 C 80 % 15.57 C
Sensor: Nr:Datum:Temp:Feuchte:Taupunkt:
Aussen-T/F 2626 24-07-2019 02:45:00 19.1 C 80 % 15.57 C
2627 24-07-2019 02:50:00 19 C 80 % 15.47 C
2628 24-07-2019 02:55:00 18.9 C 81 % 15.57 C
2629 24-07-2019 03:00:00 18.9 C 81 % 15.57 C
2630 24-07-2019 03:05:00 19.1 C 81 % 15.76 C
2631 24-07-2019 03:10:00 19.1 C 80 % 15.57 C
2632 24-07-2019 03:15:00 18.9 C 80 % 15.38 C
2633 24-07-2019 03:20:00 18.8 C 80 % 15.28 C
2634 24-07-2019 03:25:00 18.7 C 81 % 15.37 C
2635 24-07-2019 03:30:00 18.6 C 82 % 15.47 C
2636 24-07-2019 03:35:00 18.5 C 83 % 15.56 C
2637 24-07-2019 03:40:00 18.4 C 83 % 15.46 C
2638 24-07-2019 03:45:00 18.3 C 83 % 15.36 C
2639 24-07-2019 03:50:00 18.2 C 83 % 15.27 C
2640 24-07-2019 03:55:00 18.1 C 84 % 15.35 C
2641 24-07-2019 04:00:00 18.1 C 84 % 15.35 C
2642 24-07-2019 04:05:00 18 C 84 % 15.26 C
2643 24-07-2019 04:10:00 17.9 C 84 % 15.16 C
2644 24-07-2019 04:15:00 17.9 C 84 % 15.16 C
2645 24-07-2019 04:20:00 17.8 C 84 % 15.06 C
2646 24-07-2019 04:25:00 17.8 C 84 % 15.06 C
2647 24-07-2019 04:30:00 17.8 C 85 % 15.25 C
2648 24-07-2019 04:35:00 17.7 C 85 % 15.15 C
2649 24-07-2019 04:40:00 17.7 C 85 % 15.15 C
2650 24-07-2019 04:45:00 17.6 C 85 % 15.05 C
Sensor: Nr:Datum:Temp:Feuchte:Taupunkt:
Aussen-T/F 2651 24-07-2019 04:50:00 17.5 C 85 % 14.95 C
2652 24-07-2019 04:55:00 17.4 C 86 % 15.03 C
2653 24-07-2019 05:00:00 17.4 C 86 % 15.03 C
2654 24-07-2019 05:05:00 17.4 C 86 % 15.03 C
2655 24-07-2019 05:10:00 17.3 C 86 % 14.94 C
2656 24-07-2019 05:15:00 17.3 C 87 % 15.12 C
2657 24-07-2019 05:20:00 17.3 C 87 % 15.12 C
2658 24-07-2019 05:25:00 17.2 C 87 % 15.02 C
2659 24-07-2019 05:30:00 17.2 C 87 % 15.02 C
2660 24-07-2019 05:35:00 17.2 C 88 % 15.2 C
2661 24-07-2019 05:40:00 17.2 C 88 % 15.2 C
2662 24-07-2019 05:45:00 17.1 C 88 % 15.1 C
2663 24-07-2019 05:50:00 17.1 C 87 % 14.92 C
2664 24-07-2019 05:55:00 17.1 C 88 % 15.1 C
2665 24-07-2019 06:00:00 17.1 C 88 % 15.1 C
2666 24-07-2019 06:05:00 17.1 C 88 % 15.1 C
2667 24-07-2019 06:10:00 17.1 C 88 % 15.1 C
2668 24-07-2019 06:15:00 17.1 C 88 % 15.1 C
2669 24-07-2019 06:20:00 17 C 88 % 15 C
2670 24-07-2019 06:25:00 17.1 C 88 % 15.1 C
2671 24-07-2019 06:30:00 17.1 C 88 % 15.1 C
2672 24-07-2019 06:35:00 17 C 88 % 15 C
2673 24-07-2019 06:40:00 17 C 88 % 15 C
2674 24-07-2019 06:45:00 17.1 C 89 % 15.27 C
2675 24-07-2019 06:50:00 17.1 C 89 % 15.27 C
Sensor: Nr:Datum:Temp:Feuchte:Taupunkt:
Aussen-T/F 2676 24-07-2019 06:55:00 17.1 C 89 % 15.27 C
2677 24-07-2019 07:00:00 17.1 C 90 % 15.45 C
2678 24-07-2019 07:05:00 17.1 C 90 % 15.45 C
2679 24-07-2019 07:10:00 17.1 C 90 % 15.45 C
2680 24-07-2019 07:15:00 17.1 C 90 % 15.45 C
2681 24-07-2019 07:20:00 17.2 C 90 % 15.55 C
2682 24-07-2019 07:25:00 17.2 C 90 % 15.55 C
2683 24-07-2019 07:30:00 17.3 C 90 % 15.64 C
2684 24-07-2019 07:35:00 17.3 C 90 % 15.64 C
2685 24-07-2019 07:40:00 17.3 C 90 % 15.64 C
2686 24-07-2019 07:45:00 17.4 C 90 % 15.74 C
2687 24-07-2019 07:50:00 17.5 C 90 % 15.84 C
2688 24-07-2019 07:55:00 17.6 C 90 % 15.94 C
2689 24-07-2019 08:00:00 17.6 C 90 % 15.94 C
2690 24-07-2019 08:05:00 17.7 C 90 % 16.04 C
2691 24-07-2019 08:10:00 17.8 C 90 % 16.14 C
2692 24-07-2019 08:15:00 18 C 89 % 16.16 C
2693 24-07-2019 08:20:00 18.2 C 89 % 16.36 C
2694 24-07-2019 08:25:00 18.3 C 89 % 16.46 C
2695 24-07-2019 08:30:00 18.4 C 89 % 16.55 C
2696 24-07-2019 08:35:00 18.5 C 88 % 16.48 C
2697 24-07-2019 08:40:00 18.6 C 88 % 16.57 C
2698 24-07-2019 08:45:00 18.8 C 88 % 16.77 C
2699 24-07-2019 08:50:00 18.9 C 88 % 16.87 C
2700 24-07-2019 08:55:00 19.1 C 88 % 17.07 C
Sensor: Nr:Datum:Temp:Feuchte:Taupunkt:
Aussen-T/F 2701 24-07-2019 09:00:00 19.2 C 88 % 17.16 C
2702 24-07-2019 09:05:00 19.3 C 88 % 17.26 C
2703 24-07-2019 09:10:00 19.5 C 88 % 17.46 C
2704 24-07-2019 09:15:00 19.6 C 87 % 17.38 C
2705 24-07-2019 09:20:00 19.8 C 87 % 17.57 C
2706 24-07-2019 09:25:00 20.1 C 86 % 17.68 C
2707 24-07-2019 09:30:00 20.3 C 86 % 17.88 C
2708 24-07-2019 09:35:00 20.5 C 85 % 17.89 C
2709 24-07-2019 09:40:00 20.7 C 84 % 17.9 C
2710 24-07-2019 09:45:00 20.9 C 83 % 17.9 C
2711 24-07-2019 09:50:00 21.3 C 82 % 18.1 C
2712 24-07-2019 09:55:00 21.6 C 80 % 18 C
2713 24-07-2019 10:00:00 21.9 C 78 % 17.89 C
2714 24-07-2019 10:05:00 22.3 C 79 % 18.48 C
2715 24-07-2019 10:10:00 22.6 C 77 % 18.36 C
2716 24-07-2019 10:15:00 22.8 C 75 % 18.14 C
2717 24-07-2019 10:20:00 23.1 C 74 % 18.21 C
2718 24-07-2019 10:25:00 23.6 C 73 % 18.48 C
2719 24-07-2019 10:30:00 24 C 72 % 18.64 C
2720 24-07-2019 10:35:00 24.3 C 71 % 18.7 C
2721 24-07-2019 10:40:00 24.6 C 69 % 18.53 C
2722 24-07-2019 10:45:00 24.9 C 67 % 18.35 C
2723 24-07-2019 10:50:00 25.3 C 67 % 18.73 C
2724 24-07-2019 10:55:00 25.6 C 67 % 19.01 C
2725 24-07-2019 11:00:00 25.8 C 67 % 19.2 C
Sensor: Nr:Datum:Temp:Feuchte:Taupunkt:
Aussen-T/F 2726 24-07-2019 11:05:00 26 C 64 % 18.66 C
2727 24-07-2019 11:10:00 26.3 C 66 % 19.44 C
2728 24-07-2019 11:15:00 26.6 C 65 % 19.48 C
2729 24-07-2019 11:20:00 26.8 C 60 % 18.38 C
2730 24-07-2019 11:25:00 27.1 C 60 % 18.66 C
2731 24-07-2019 11:30:00 27.4 C 59 % 18.68 C
2732 24-07-2019 11:35:00 27.9 C 58 % 18.87 C
2733 24-07-2019 11:40:00 28.3 C 55 % 18.39 C
2734 24-07-2019 11:45:00 28.6 C 54 % 18.38 C
2735 24-07-2019 11:50:00 29 C 53 % 18.45 C
2736 24-07-2019 11:55:00 29.4 C 53 % 18.82 C
2737 24-07-2019 12:00:00 29.8 C 53 % 19.19 C
2738 24-07-2019 12:05:00 30.3 C 48 % 18.06 C
2739 24-07-2019 12:10:00 30.7 C 47 % 18.09 C
2740 24-07-2019 12:15:00 31.2 C 44 % 17.49 C
2741 24-07-2019 12:20:00 31.7 C 42 % 17.21 C
2742 24-07-2019 12:25:00 32.1 C 43 % 17.94 C
2743 24-07-2019 12:30:00 32.4 C 38 % 16.25 C
2744 24-07-2019 12:35:00 32.8 C 37 % 16.19 C
2745 24-07-2019 12:40:00 33 C 37 % 16.36 C
2746 24-07-2019 12:45:00 33.3 C 38 % 17.05 C
2747 24-07-2019 12:50:00 33.5 C 37 % 16.81 C
2748 24-07-2019 12:55:00 33.7 C 36 % 16.55 C
2749 24-07-2019 13:00:00 33.8 C 34 % 15.74 C
2750 24-07-2019 13:05:00 33.9 C 31 % 14.39 C
Sensor: Nr:Datum:Temp:Feuchte:Taupunkt:
Aussen-T/F 2751 24-07-2019 13:10:00 33.9 C 30 % 13.89 C
2752 24-07-2019 13:15:00 33.9 C 31 % 14.39 C
2753 24-07-2019 13:20:00 34 C 30 % 13.97 C
2754 24-07-2019 13:25:00 34.1 C 29 % 13.54 C
2755 24-07-2019 13:30:00 34.2 C 28 % 13.08 C
2756 24-07-2019 13:35:00 34.3 C 29 % 13.71 C
2757 24-07-2019 13:40:00 34.3 C 27 % 12.61 C
2758 24-07-2019 13:45:00 34.4 C 27 % 12.7 C
2759 24-07-2019 13:50:00 34.6 C 27 % 12.87 C
2760 24-07-2019 13:55:00 34.7 C 26 % 12.38 C
2761 24-07-2019 14:00:00 34.8 C 27 % 13.04 C
2762 24-07-2019 14:05:00 34.8 C 26 % 12.46 C
2763 24-07-2019 14:10:00 34.9 C 27 % 13.12 C
2764 24-07-2019 14:15:00 35 C 27 % 13.21 C
2765 24-07-2019 14:20:00 35.1 C 26 % 12.71 C
2766 24-07-2019 14:25:00 35.3 C 27 % 13.46 C
2767 24-07-2019 14:30:00 35.3 C 26 % 12.88 C
2768 24-07-2019 14:35:00 35.5 C 26 % 13.05 C
2769 24-07-2019 14:40:00 35.6 C 28 % 14.27 C
2770 24-07-2019 14:45:00 35.8 C 27 % 13.88 C
2771 24-07-2019 14:50:00 35.8 C 27 % 13.88 C
2772 24-07-2019 14:55:00 35.9 C 28 % 14.53 C
2773 24-07-2019 15:00:00 35.9 C 28 % 14.53 C
2774 24-07-2019 15:05:00 36.1 C 30 % 15.77 C
2775 24-07-2019 15:10:00 36.2 C 28 % 14.78 C
Sensor: Nr:Datum:Temp:Feuchte:Taupunkt:
Aussen-T/F 2776 24-07-2019 15:15:00 36.3 C 27 % 14.31 C
2777 24-07-2019 15:20:00 36.3 C 26 % 13.72 C
2778 24-07-2019 15:25:00 36.4 C 25 % 13.21 C
2779 24-07-2019 15:30:00 36.8 C 25 % 13.54 C
2780 24-07-2019 15:35:00 37.2 C 23 % 12.6 C
2781 24-07-2019 15:40:00 37.4 C 24 % 13.42 C
2782 24-07-2019 15:45:00 37.9 C 26 % 15.07 C
2783 24-07-2019 15:50:00 38.4 C 25 % 14.88 C
2784 24-07-2019 15:55:00 38.8 C 25 % 15.22 C
2785 24-07-2019 16:00:00 39.2 C 23 % 14.26 C
2786 24-07-2019 16:05:00 39.3 C 22 % 13.65 C
2787 24-07-2019 16:10:00 39.4 C 23 % 14.42 C
2788 24-07-2019 16:15:00 39.4 C 25 % 15.72 C
2789 24-07-2019 16:20:00 39.5 C 25 % 15.8 C
2790 24-07-2019 16:25:00 39.7 C 24 % 15.33 C
2791 24-07-2019 16:30:00 39.8 C 22 % 14.06 C
2792 24-07-2019 16:35:00 39.7 C 22 % 13.98 C
2793 24-07-2019 16:40:00 39.6 C 22 % 13.9 C
2794 24-07-2019 16:45:00 39.7 C 23 % 14.67 C
2795 24-07-2019 16:50:00 39.9 C 22 % 14.15 C
2796 24-07-2019 16:55:00 39.9 C 24 % 15.5 C
2797 24-07-2019 17:00:00 39.9 C 23 % 14.83 C
2798 24-07-2019 17:05:00 40.1 C 27 % 17.52 C
2799 24-07-2019 17:10:00 39.9 C 21 % 13.43 C
2800 24-07-2019 17:15:00 39.9 C 23 % 14.83 C
Sensor: Nr:Datum:Temp:Feuchte:Taupunkt:
Aussen-T/F 2801 24-07-2019 17:20:00 40 C 22 % 14.23 C
2802 24-07-2019 17:25:00 39.9 C 22 % 14.15 C
2803 24-07-2019 17:30:00 39.8 C 22 % 14.06 C
2804 24-07-2019 17:35:00 39.5 C 23 % 14.5 C
2805 24-07-2019 17:40:00 39.3 C 22 % 13.65 C
2806 24-07-2019 17:45:00 39 C 23 % 14.09 C
2807 24-07-2019 17:50:00 38.9 C 23 % 14.01 C
2808 24-07-2019 17:55:00 39.1 C 24 % 14.83 C
2809 24-07-2019 18:00:00 39.4 C 23 % 14.42 C
2810 24-07-2019 18:05:00 39.6 C 24 % 15.25 C
2811 24-07-2019 18:10:00 39.8 C 22 % 14.06 C
2812 24-07-2019 18:15:00 39.8 C 22 % 14.06 C
2813 24-07-2019 18:20:00 39.4 C 22 % 13.74 C
2814 24-07-2019 18:25:00 39.2 C 23 % 14.26 C
2815 24-07-2019 18:30:00 39.2 C 22 % 13.57 C
2816 24-07-2019 18:35:00 39.2 C 23 % 14.26 C
2817 24-07-2019 18:40:00 39.1 C 23 % 14.17 C
2818 24-07-2019 18:45:00 39.1 C 22 % 13.49 C
2819 24-07-2019 18:50:00 39.1 C 23 % 14.17 C
2820 24-07-2019 18:55:00 38.9 C 23 % 14.01 C
2821 24-07-2019 19:00:00 38.8 C 22 % 13.24 C
2822 24-07-2019 19:05:00 38.7 C 23 % 13.84 C
2823 24-07-2019 19:10:00 38.6 C 27 % 16.25 C
2824 24-07-2019 19:15:00 38.7 C 26 % 15.74 C
2825 24-07-2019 19:20:00 38.8 C 23 % 13.92 C
Sensor: Nr:Datum:Temp:Feuchte:Taupunkt:
Aussen-T/F 2826 24-07-2019 19:25:00 38.8 C 28 % 16.99 C
2827 24-07-2019 19:30:00 38.7 C 29 % 17.46 C
2828 24-07-2019 19:35:00 38.7 C 30 % 18 C
2829 24-07-2019 19:40:00 38.4 C 31 % 18.26 C
2830 24-07-2019 19:45:00 38.2 C 30 % 17.57 C
2831 24-07-2019 19:50:00 37.9 C 31 % 17.83 C
2832 24-07-2019 19:55:00 37.6 C 31 % 17.58 C
2833 24-07-2019 20:00:00 37.1 C 34 % 18.61 C
2834 24-07-2019 20:05:00 36.4 C 33 % 17.53 C
2835 24-07-2019 20:10:00 35.6 C 34 % 17.31 C
2836 24-07-2019 20:15:00 34.8 C 35 % 17.07 C
2837 24-07-2019 20:20:00 33.9 C 38 % 17.58 C
2838 24-07-2019 20:25:00 33.1 C 40 % 17.68 C
2839 24-07-2019 20:30:00 32.4 C 42 % 17.83 C
2840 24-07-2019 20:35:00 31.7 C 44 % 17.94 C
2841 24-07-2019 20:40:00 31.2 C 44 % 17.49 C
2842 24-07-2019 20:45:00 30.8 C 45 % 17.49 C
2843 24-07-2019 20:50:00 30.4 C 45 % 17.13 C
2844 24-07-2019 20:55:00 30.2 C 46 % 17.3 C
2845 24-07-2019 21:00:00 29.9 C 47 % 17.36 C
2846 24-07-2019 21:05:00 29.7 C 47 % 17.18 C
2847 24-07-2019 21:10:00 29.4 C 48 % 17.24 C
2848 24-07-2019 21:15:00 29.2 C 48 % 17.06 C
2849 24-07-2019 21:20:00 29 C 49 % 17.2 C
2850 24-07-2019 21:25:00 28.8 C 49 % 17.02 C
Sensor: Nr:Datum:Temp:Feuchte:Taupunkt:
Aussen-T/F 2851 24-07-2019 21:30:00 28.7 C 49 % 16.93 C
2852 24-07-2019 21:35:00 28.5 C 50 % 17.06 C
2853 24-07-2019 21:40:00 28.3 C 49 % 16.56 C
2854 24-07-2019 21:45:00 28.2 C 50 % 16.79 C
2855 24-07-2019 21:50:00 28.1 C 50 % 16.7 C
2856 24-07-2019 21:55:00 28.1 C 50 % 16.7 C
2857 24-07-2019 22:00:00 27.9 C 50 % 16.51 C
2858 24-07-2019 22:05:00 27.8 C 51 % 16.73 C
2859 24-07-2019 22:10:00 27.8 C 51 % 16.73 C
2860 24-07-2019 22:15:00 27.7 C 51 % 16.64 C
2861 24-07-2019 22:20:00 27.6 C 51 % 16.55 C
2862 24-07-2019 22:25:00 27.4 C 52 % 16.67 C
2863 24-07-2019 22:30:00 27.3 C 52 % 16.58 C
2864 24-07-2019 22:35:00 27.2 C 53 % 16.79 C
2865 24-07-2019 22:40:00 27.1 C 53 % 16.7 C
2866 24-07-2019 22:45:00 27 C 53 % 16.6 C
2867 24-07-2019 22:50:00 26.9 C 53 % 16.51 C
2868 24-07-2019 22:55:00 26.8 C 54 % 16.71 C
2869 24-07-2019 23:00:00 26.8 C 54 % 16.71 C
2870 24-07-2019 23:05:00 26.6 C 55 % 16.82 C
2871 24-07-2019 23:10:00 26.4 C 56 % 16.92 C
2872 24-07-2019 23:15:00 26.2 C 57 % 17.01 C
2873 24-07-2019 23:20:00 25.9 C 58 % 17 C
2874 24-07-2019 23:25:00 25.7 C 58 % 16.82 C
2875 24-07-2019 23:30:00 25.4 C 58 % 16.54 C
Sensor: Nr:Datum:Temp:Feuchte:Taupunkt:
Aussen-T/F 2876 24-07-2019 23:35:00 25.2 C 58 % 16.35 C
2877 24-07-2019 23:40:00 25 C 60 % 16.7 C
2878 24-07-2019 23:45:00 24.8 C 61 % 16.77 C
2879 24-07-2019 23:50:00 24.6 C 62 % 16.84 C
2880 24-07-2019 23:55:00 24.4 C 63 % 16.9 C
2881 25-07-2019 00:00:00 24.3 C 62 % 16.55 C
2882 25-07-2019 00:05:00 24 C 61 % 16.02 C
2883 25-07-2019 00:10:00 23.9 C 63 % 16.43 C
2884 25-07-2019 00:15:00 23.9 C 63 % 16.43 C
2885 25-07-2019 00:20:00 23.8 C 63 % 16.33 C
2886 25-07-2019 00:25:00 23.7 C 62 % 15.99 C
2887 25-07-2019 00:30:00 23.6 C 62 % 15.89 C
2888 25-07-2019 00:35:00 23.6 C 64 % 16.39 C
2889 25-07-2019 00:40:00 23.4 C 64 % 16.2 C
2890 25-07-2019 00:45:00 23.3 C 63 % 15.86 C
2891 25-07-2019 00:50:00 23.4 C 64 % 16.2 C
2892 25-07-2019 00:55:00 23.3 C 66 % 16.59 C
2893 25-07-2019 01:00:00 23.2 C 65 % 16.26 C
2894 25-07-2019 01:05:00 23.1 C 65 % 16.16 C
2895 25-07-2019 01:10:00 22.9 C 66 % 16.21 C
2896 25-07-2019 01:15:00 22.7 C 66 % 16.02 C
2897 25-07-2019 01:20:00 22.6 C 67 % 16.16 C
2898 25-07-2019 01:25:00 22.4 C 66 % 15.74 C
2899 25-07-2019 01:30:00 22.3 C 67 % 15.88 C
2900 25-07-2019 01:35:00 22.3 C 65 % 15.4 C
Sensor: Nr:Datum:Temp:Feuchte:Taupunkt:
Aussen-T/F 2901 25-07-2019 01:40:00 22.3 C 68 % 16.11 C
2902 25-07-2019 01:45:00 22.3 C 68 % 16.11 C
2903 25-07-2019 01:50:00 22.2 C 68 % 16.01 C
2904 25-07-2019 01:55:00 22.1 C 68 % 15.92 C
2905 25-07-2019 02:00:00 22 C 69 % 16.05 C
2906 25-07-2019 02:05:00 21.9 C 70 % 16.18 C
2907 25-07-2019 02:10:00 21.8 C 70 % 16.09 C
2908 25-07-2019 02:15:00 21.7 C 70 % 15.99 C
2909 25-07-2019 02:20:00 21.7 C 70 % 15.99 C
2910 25-07-2019 02:25:00 21.7 C 71 % 16.21 C
2911 25-07-2019 02:30:00 21.6 C 70 % 15.89 C
2912 25-07-2019 02:35:00 21.5 C 70 % 15.8 C
2913 25-07-2019 02:40:00 21.4 C 71 % 15.93 C
2914 25-07-2019 02:45:00 21.4 C 71 % 15.93 C
2915 25-07-2019 02:50:00 21.3 C 72 % 16.05 C
2916 25-07-2019 02:55:00 21.2 C 72 % 15.95 C
2917 25-07-2019 03:00:00 21.2 C 72 % 15.95 C
2918 25-07-2019 03:05:00 21.2 C 73 % 16.17 C
2919 25-07-2019 03:10:00 21.2 C 73 % 16.17 C
2920 25-07-2019 03:15:00 21.1 C 73 % 16.07 C
2921 25-07-2019 03:20:00 20.9 C 74 % 16.09 C
2922 25-07-2019 03:25:00 20.8 C 74 % 16 C
2923 25-07-2019 03:30:00 20.8 C 74 % 16 C
2924 25-07-2019 03:35:00 20.8 C 74 % 16 C
2925 25-07-2019 03:40:00 20.8 C 74 % 16 C
Sensor: Nr:Datum:Temp:Feuchte:Taupunkt:
Aussen-T/F 2926 25-07-2019 03:45:00 20.7 C 75 % 16.11 C
2927 25-07-2019 03:50:00 20.6 C 75 % 16.01 C
2928 25-07-2019 03:55:00 20.6 C 76 % 16.22 C
2929 25-07-2019 04:00:00 20.4 C 76 % 16.03 C
2930 25-07-2019 04:05:00 20.3 C 76 % 15.93 C
2931 25-07-2019 04:10:00 20.2 C 77 % 16.04 C
2932 25-07-2019 04:15:00 20.1 C 77 % 15.94 C
2933 25-07-2019 04:20:00 19.9 C 78 % 15.95 C
2934 25-07-2019 04:25:00 20.1 C 78 % 16.14 C
2935 25-07-2019 04:30:00 20.1 C 78 % 16.14 C
2936 25-07-2019 04:35:00 20.1 C 78 % 16.14 C
2937 25-07-2019 04:40:00 20.1 C 78 % 16.14 C
2938 25-07-2019 04:45:00 19.9 C 79 % 16.15 C
2939 25-07-2019 04:50:00 19.9 C 79 % 16.15 C
2940 25-07-2019 04:55:00 19.8 C 79 % 16.05 C
2941 25-07-2019 05:00:00 19.7 C 79 % 15.96 C
2942 25-07-2019 05:05:00 19.6 C 79 % 15.86 C
2943 25-07-2019 05:10:00 19.6 C 80 % 16.06 C
2944 25-07-2019 05:15:00 19.4 C 80 % 15.86 C
2945 25-07-2019 05:20:00 19.4 C 80 % 15.86 C
2946 25-07-2019 05:25:00 19.3 C 80 % 15.76 C
2947 25-07-2019 05:30:00 19.3 C 80 % 15.76 C
2948 25-07-2019 05:35:00 19.3 C 80 % 15.76 C
2949 25-07-2019 05:40:00 19.2 C 80 % 15.67 C
2950 25-07-2019 05:45:00 19.2 C 80 % 15.67 C
Sensor: Nr:Datum:Temp:Feuchte:Taupunkt:
Aussen-T/F 2951 25-07-2019 05:50:00 19.2 C 81 % 15.86 C
2952 25-07-2019 05:55:00 19.1 C 81 % 15.76 C
2953 25-07-2019 06:00:00 19.1 C 82 % 15.96 C
2954 25-07-2019 06:05:00 19.1 C 82 % 15.96 C
2955 25-07-2019 06:10:00 19.1 C 82 % 15.96 C
2956 25-07-2019 06:15:00 19.2 C 82 % 16.05 C
2957 25-07-2019 06:20:00 19.2 C 82 % 16.05 C
2958 25-07-2019 06:25:00 19.1 C 82 % 15.96 C
2959 25-07-2019 06:30:00 19.2 C 82 % 16.05 C
2960 25-07-2019 06:35:00 19.2 C 82 % 16.05 C
2961 25-07-2019 06:40:00 19.2 C 82 % 16.05 C
2962 25-07-2019 06:45:00 19.3 C 83 % 16.34 C
2963 25-07-2019 06:50:00 19.3 C 83 % 16.34 C
2964 25-07-2019 06:55:00 19.3 C 83 % 16.34 C
2965 25-07-2019 07:00:00 19.3 C 83 % 16.34 C
2966 25-07-2019 07:05:00 19.3 C 83 % 16.34 C
2967 25-07-2019 07:10:00 19.4 C 84 % 16.63 C
2968 25-07-2019 07:15:00 19.4 C 84 % 16.63 C
2969 25-07-2019 07:20:00 19.4 C 84 % 16.63 C
2970 25-07-2019 07:25:00 19.5 C 84 % 16.72 C
2971 25-07-2019 07:30:00 19.6 C 84 % 16.82 C
2972 25-07-2019 07:35:00 19.6 C 84 % 16.82 C
2973 25-07-2019 07:40:00 19.7 C 84 % 16.92 C
2974 25-07-2019 07:45:00 19.8 C 84 % 17.02 C
2975 25-07-2019 07:50:00 19.8 C 84 % 17.02 C
Sensor: Nr:Datum:Temp:Feuchte:Taupunkt:
Aussen-T/F 2976 25-07-2019 07:55:00 19.9 C 84 % 17.12 C
2977 25-07-2019 08:00:00 20 C 83 % 17.02 C
2978 25-07-2019 08:05:00 20.1 C 84 % 17.31 C
2979 25-07-2019 08:10:00 20.2 C 83 % 17.22 C
2980 25-07-2019 08:15:00 20.3 C 82 % 17.13 C
2981 25-07-2019 08:20:00 20.5 C 83 % 17.51 C
2982 25-07-2019 08:25:00 20.7 C 83 % 17.71 C
2983 25-07-2019 08:30:00 20.8 C 83 % 17.81 C
2984 25-07-2019 08:35:00 20.9 C 82 % 17.71 C
2985 25-07-2019 08:40:00 21.1 C 83 % 18.1 C
2986 25-07-2019 08:45:00 21.2 C 83 % 18.2 C
2987 25-07-2019 08:50:00 21.4 C 82 % 18.2 C
2988 25-07-2019 08:55:00 21.6 C 82 % 18.39 C
2989 25-07-2019 09:00:00 21.7 C 81 % 18.3 C
2990 25-07-2019 09:05:00 21.8 C 79 % 18 C
2991 25-07-2019 09:10:00 22.1 C 81 % 18.69 C
2992 25-07-2019 09:15:00 22.2 C 81 % 18.78 C
2993 25-07-2019 09:20:00 22.3 C 78 % 18.28 C
2994 25-07-2019 09:25:00 22.6 C 78 % 18.57 C
2995 25-07-2019 09:30:00 22.8 C 77 % 18.56 C
2996 25-07-2019 09:35:00 23.1 C 77 % 18.85 C
2997 25-07-2019 09:40:00 23.3 C 75 % 18.62 C
2998 25-07-2019 09:45:00 23.5 C 74 % 18.6 C
2999 25-07-2019 09:50:00 23.7 C 72 % 18.35 C
3000 25-07-2019 09:55:00 24 C 70 % 18.19 C
Sensor: Nr:Datum:Temp:Feuchte:Taupunkt:
Aussen-T/F 3001 25-07-2019 10:00:00 24.3 C 70 % 18.48 C
3002 25-07-2019 10:05:00 24.6 C 71 % 18.99 C
3003 25-07-2019 10:10:00 24.9 C 70 % 19.05 C
3004 25-07-2019 10:15:00 25.1 C 69 % 19.01 C
3005 25-07-2019 10:20:00 25.3 C 68 % 18.97 C
3006 25-07-2019 10:25:00 25.6 C 69 % 19.49 C
3007 25-07-2019 10:30:00 25.9 C 67 % 19.3 C
3008 25-07-2019 10:35:00 26.2 C 65 % 19.1 C
3009 25-07-2019 10:40:00 26.6 C 63 % 18.97 C
3010 25-07-2019 10:45:00 26.9 C 62 % 19 C
3011 25-07-2019 10:50:00 27.2 C 63 % 19.54 C
3012 25-07-2019 10:55:00 27.5 C 63 % 19.82 C
3013 25-07-2019 11:00:00 27.8 C 61 % 19.59 C
3014 25-07-2019 11:05:00 28.2 C 60 % 19.69 C
3015 25-07-2019 11:10:00 28.6 C 56 % 18.96 C
3016 25-07-2019 11:15:00 29.1 C 58 % 19.99 C
3017 25-07-2019 11:20:00 29.4 C 54 % 19.12 C
3018 25-07-2019 11:25:00 29.8 C 55 % 19.78 C
3019 25-07-2019 11:30:00 30.1 C 54 % 19.76 C
3020 25-07-2019 11:35:00 30.5 C 53 % 19.83 C
3021 25-07-2019 11:40:00 30.8 C 50 % 19.17 C
3022 25-07-2019 11:45:00 31.2 C 48 % 18.88 C
3023 25-07-2019 11:50:00 31.6 C 47 % 18.91 C
3024 25-07-2019 11:55:00 32.1 C 44 % 18.3 C
3025 25-07-2019 12:00:00 32.6 C 41 % 17.63 C
Sensor: Nr:Datum:Temp:Feuchte:Taupunkt:
Aussen-T/F 3026 25-07-2019 12:05:00 33 C 40 % 17.59 C
3027 25-07-2019 12:10:00 33.4 C 38 % 17.14 C
3028 25-07-2019 12:15:00 33.8 C 38 % 17.49 C
3029 25-07-2019 12:20:00 34.3 C 35 % 16.63 C
3030 25-07-2019 12:25:00 34.7 C 35 % 16.98 C
3031 25-07-2019 12:30:00 34.9 C 35 % 17.16 C
3032 25-07-2019 12:35:00 35.2 C 33 % 16.49 C
3033 25-07-2019 12:40:00 35.3 C 33 % 16.58 C
3034 25-07-2019 12:45:00 35.5 C 33 % 16.75 C
3035 25-07-2019 12:50:00 35.7 C 33 % 16.92 C
3036 25-07-2019 12:55:00 35.9 C 31 % 16.11 C
3037 25-07-2019 13:00:00 36 C 32 % 16.7 C
3038 25-07-2019 13:05:00 36.1 C 32 % 16.79 C
3039 25-07-2019 13:10:00 36.2 C 32 % 16.87 C
3040 25-07-2019 13:15:00 36.3 C 32 % 16.96 C
3041 25-07-2019 13:20:00 36.3 C 30 % 15.94 C
3042 25-07-2019 13:25:00 36.4 C 31 % 16.54 C
3043 25-07-2019 13:30:00 36.4 C 31 % 16.54 C
3044 25-07-2019 13:35:00 36.6 C 31 % 16.72 C
3045 25-07-2019 13:40:00 36.7 C 31 % 16.8 C
3046 25-07-2019 13:45:00 36.8 C 30 % 16.37 C
3047 25-07-2019 13:50:00 36.9 C 31 % 16.97 C
3048 25-07-2019 13:55:00 36.9 C 29 % 15.93 C
3049 25-07-2019 14:00:00 36.9 C 30 % 16.46 C
3050 25-07-2019 14:05:00 37.1 C 30 % 16.63 C
Sensor: Nr:Datum:Temp:Feuchte:Taupunkt:
Aussen-T/F 3051 25-07-2019 14:10:00 37.2 C 29 % 16.18 C
3052 25-07-2019 14:15:00 37.3 C 30 % 16.8 C
3053 25-07-2019 14:20:00 37.4 C 29 % 16.35 C
3054 25-07-2019 14:25:00 37.4 C 27 % 15.24 C
3055 25-07-2019 14:30:00 37.4 C 30 % 16.89 C
3056 25-07-2019 14:35:00 37.6 C 28 % 15.97 C
3057 25-07-2019 14:40:00 37.6 C 29 % 16.52 C
3058 25-07-2019 14:45:00 37.7 C 27 % 15.49 C
3059 25-07-2019 14:50:00 37.7 C 29 % 16.61 C
3060 25-07-2019 14:55:00 37.8 C 28 % 16.14 C
3061 25-07-2019 15:00:00 37.9 C 28 % 16.23 C
3062 25-07-2019 15:05:00 38.2 C 28 % 16.48 C
3063 25-07-2019 15:10:00 38.3 C 28 % 16.57 C
3064 25-07-2019 15:15:00 38.5 C 27 % 16.16 C
3065 25-07-2019 15:20:00 38.7 C 26 % 15.74 C
3066 25-07-2019 15:25:00 38.8 C 26 % 15.83 C
3067 25-07-2019 15:30:00 38.9 C 26 % 15.91 C
3068 25-07-2019 15:35:00 38.7 C 26 % 15.74 C
3069 25-07-2019 15:40:00 38.8 C 26 % 15.83 C
3070 25-07-2019 15:45:00 39.2 C 25 % 15.55 C
3071 25-07-2019 15:50:00 39.6 C 26 % 16.5 C
3072 25-07-2019 15:55:00 39.9 C 24 % 15.5 C
3073 25-07-2019 16:00:00 40.1 C 23 % 15 C
3074 25-07-2019 16:05:00 40.2 C 24 % 15.75 C
3075 25-07-2019 16:10:00 40.2 C 25 % 16.39 C
Sensor: Nr:Datum:Temp:Feuchte:Taupunkt:
Aussen-T/F 3076 25-07-2019 16:15:00 40.3 C 23 % 15.17 C
3077 25-07-2019 16:20:00 40.4 C 24 % 15.91 C
3078 25-07-2019 16:25:00 40.4 C 25 % 16.55 C
3079 25-07-2019 16:30:00 40.4 C 23 % 15.25 C
3080 25-07-2019 16:35:00 40.3 C 23 % 15.17 C
3081 25-07-2019 16:40:00 40 C 23 % 14.92 C
3082 25-07-2019 16:45:00 39.9 C 23 % 14.83 C
3083 25-07-2019 16:50:00 39.9 C 25 % 16.13 C
3084 25-07-2019 16:55:00 39.7 C 23 % 14.67 C
3085 25-07-2019 17:00:00 39.8 C 24 % 15.41 C
3086 25-07-2019 17:05:00 39.9 C 24 % 15.5 C
3087 25-07-2019 17:10:00 40.3 C 23 % 15.17 C
3088 25-07-2019 17:15:00 40.3 C 22 % 14.48 C
3089 25-07-2019 17:20:00 40.1 C 22 % 14.31 C
3090 25-07-2019 17:25:00 39.9 C 22 % 14.15 C
3091 25-07-2019 17:30:00 39.6 C 22 % 13.9 C
3092 25-07-2019 17:35:00 39.5 C 22 % 13.82 C
3093 25-07-2019 17:40:00 39.5 C 22 % 13.82 C
3094 25-07-2019 17:45:00 39.5 C 22 % 13.82 C
3095 25-07-2019 17:50:00 39.6 C 23 % 14.59 C
3096 25-07-2019 17:55:00 39.7 C 23 % 14.67 C
3097 25-07-2019 18:00:00 39.6 C 23 % 14.59 C
3098 25-07-2019 18:05:00 39.4 C 23 % 14.42 C
3099 25-07-2019 18:10:00 39.4 C 22 % 13.74 C
3100 25-07-2019 18:15:00 39.4 C 23 % 14.42 C
Sensor: Nr:Datum:Temp:Feuchte:Taupunkt:
Aussen-T/F 3101 25-07-2019 18:20:00 39.3 C 22 % 13.65 C
3102 25-07-2019 18:25:00 39.3 C 23 % 14.34 C
3103 25-07-2019 18:30:00 39.2 C 23 % 14.26 C
3104 25-07-2019 18:35:00 39.1 C 23 % 14.17 C
3105 25-07-2019 18:40:00 38.8 C 23 % 13.92 C
3106 25-07-2019 18:45:00 38.6 C 24 % 14.42 C
3107 25-07-2019 18:50:00 38.6 C 24 % 14.42 C
3108 25-07-2019 18:55:00 38.4 C 29 % 17.2 C
3109 25-07-2019 19:00:00 38.3 C 25 % 14.8 C
3110 25-07-2019 19:05:00 38.2 C 31 % 18.09 C
3111 25-07-2019 19:10:00 38 C 28 % 16.31 C
3112 25-07-2019 19:15:00 37.8 C 33 % 18.74 C
3113 25-07-2019 19:20:00 37.4 C 32 % 17.91 C
3114 25-07-2019 19:25:00 37 C 33 % 18.05 C
3115 25-07-2019 19:30:00 36.6 C 33 % 17.7 C
3116 25-07-2019 19:35:00 36.2 C 35 % 18.29 C
3117 25-07-2019 19:40:00 35.7 C 36 % 18.3 C
3118 25-07-2019 19:45:00 35.3 C 39 % 19.23 C
3119 25-07-2019 19:50:00 34.9 C 38 % 18.46 C
3120 25-07-2019 19:55:00 34.6 C 38 % 18.2 C
3121 25-07-2019 20:00:00 34.3 C 41 % 19.15 C
3122 25-07-2019 20:05:00 33.9 C 41 % 18.79 C
3123 25-07-2019 20:10:00 33.7 C 40 % 18.22 C
3124 25-07-2019 20:15:00 33.4 C 40 % 17.95 C
3125 25-07-2019 20:20:00 33.2 C 42 % 18.55 C
Sensor: Nr:Datum:Temp:Feuchte:Taupunkt:
Aussen-T/F 3126 25-07-2019 20:25:00 32.9 C 41 % 17.9 C
3127 25-07-2019 20:30:00 32.7 C 42 % 18.1 C
3128 25-07-2019 20:35:00 32.4 C 42 % 17.83 C
3129 25-07-2019 20:40:00 32.2 C 43 % 18.03 C
3130 25-07-2019 20:45:00 31.9 C 43 % 17.76 C
3131 25-07-2019 20:50:00 31.7 C 44 % 17.94 C
3132 25-07-2019 20:55:00 31.5 C 43 % 17.4 C
3133 25-07-2019 21:00:00 31.3 C 44 % 17.58 C
3134 25-07-2019 21:05:00 31.1 C 44 % 17.4 C
3135 25-07-2019 21:10:00 30.9 C 45 % 17.58 C
3136 25-07-2019 21:15:00 30.7 C 44 % 17.04 C
3137 25-07-2019 21:20:00 30.5 C 44 % 16.86 C
3138 25-07-2019 21:25:00 30.3 C 45 % 17.04 C
3139 25-07-2019 21:30:00 30.2 C 45 % 16.95 C
3140 25-07-2019 21:35:00 30.1 C 45 % 16.86 C
3141 25-07-2019 21:40:00 29.9 C 45 % 16.68 C
3142 25-07-2019 21:45:00 29.8 C 45 % 16.59 C
3143 25-07-2019 21:50:00 29.7 C 45 % 16.5 C
3144 25-07-2019 21:55:00 29.6 C 45 % 16.41 C
3145 25-07-2019 22:00:00 29.4 C 45 % 16.23 C
3146 25-07-2019 22:05:00 29.3 C 46 % 16.48 C
3147 25-07-2019 22:10:00 29.2 C 46 % 16.39 C
3148 25-07-2019 22:15:00 29.1 C 47 % 16.64 C
3149 25-07-2019 22:20:00 28.9 C 46 % 16.12 C
3150 25-07-2019 22:25:00 28.8 C 48 % 16.69 C
Sensor: Nr:Datum:Temp:Feuchte:Taupunkt:
Aussen-T/F 3151 25-07-2019 22:30:00 28.7 C 48 % 16.6 C
3152 25-07-2019 22:35:00 28.5 C 48 % 16.42 C
3153 25-07-2019 22:40:00 28.4 C 48 % 16.33 C
3154 25-07-2019 22:45:00 28.3 C 48 % 16.24 C
3155 25-07-2019 22:50:00 28.3 C 49 % 16.56 C
3156 25-07-2019 22:55:00 28.2 C 48 % 16.15 C
3157 25-07-2019 23:00:00 28.1 C 49 % 16.38 C
3158 25-07-2019 23:05:00 28 C 48 % 15.97 C
3159 25-07-2019 23:10:00 27.9 C 49 % 16.2 C
3160 25-07-2019 23:15:00 27.8 C 48 % 15.78 C
3161 25-07-2019 23:20:00 27.8 C 49 % 16.11 C
3162 25-07-2019 23:25:00 27.7 C 50 % 16.33 C
3163 25-07-2019 23:30:00 27.6 C 49 % 15.92 C
3164 25-07-2019 23:35:00 27.4 C 50 % 16.06 C
3165 25-07-2019 23:40:00 27.3 C 50 % 15.97 C
3166 25-07-2019 23:45:00 27.2 C 50 % 15.87 C
3167 25-07-2019 23:50:00 27.1 C 51 % 16.09 C
3168 25-07-2019 23:55:00 26.9 C 53 % 16.51 C
3169 26-07-2019 00:00:00 26.8 C 53 % 16.42 C
3170 26-07-2019 00:05:00 26.7 C 53 % 16.33 C
3171 26-07-2019 00:10:00 26.5 C 52 % 15.84 C
3172 26-07-2019 00:15:00 26.4 C 53 % 16.05 C
3173 26-07-2019 00:20:00 26.3 C 53 % 15.96 C
3174 26-07-2019 00:25:00 26.2 C 54 % 16.16 C
3175 26-07-2019 00:30:00 26.1 C 54 % 16.07 C
Sensor: Nr:Datum:Temp:Feuchte:Taupunkt:
Aussen-T/F 3176 26-07-2019 00:35:00 26 C 53 % 15.68 C
3177 26-07-2019 00:40:00 25.9 C 54 % 15.88 C
3178 26-07-2019 00:45:00 25.9 C 54 % 15.88 C
3179 26-07-2019 00:50:00 25.8 C 54 % 15.79 C
3180 26-07-2019 00:55:00 25.7 C 54 % 15.7 C
3181 26-07-2019 01:00:00 25.6 C 54 % 15.6 C
3182 26-07-2019 01:05:00 25.5 C 55 % 15.8 C
3183 26-07-2019 01:10:00 25.4 C 54 % 15.42 C
3184 26-07-2019 01:15:00 25.3 C 56 % 15.89 C
3185 26-07-2019 01:20:00 25.2 C 56 % 15.8 C
3186 26-07-2019 01:25:00 25.2 C 57 % 16.08 C
3187 26-07-2019 01:30:00 25.1 C 56 % 15.71 C
3188 26-07-2019 01:35:00 24.9 C 58 % 16.07 C
3189 26-07-2019 01:40:00 24.8 C 59 % 16.24 C
3190 26-07-2019 01:45:00 24.6 C 60 % 16.32 C
3191 26-07-2019 01:50:00 24.3 C 60 % 16.04 C
3192 26-07-2019 01:55:00 24.1 C 60 % 15.85 C
3193 26-07-2019 02:00:00 23.8 C 62 % 16.08 C
3194 26-07-2019 02:05:00 23.6 C 64 % 16.39 C
3195 26-07-2019 02:10:00 23.3 C 65 % 16.35 C
3196 26-07-2019 02:15:00 23 C 66 % 16.31 C
3197 26-07-2019 02:20:00 22.8 C 67 % 16.35 C
3198 26-07-2019 02:25:00 22.6 C 68 % 16.39 C
3199 26-07-2019 02:30:00 22.3 C 69 % 16.34 C
3200 26-07-2019 02:35:00 22.2 C 69 % 16.24 C
Sensor: Nr:Datum:Temp:Feuchte:Taupunkt:
Aussen-T/F 3201 26-07-2019 02:40:00 21.9 C 69 % 15.96 C
3202 26-07-2019 02:45:00 21.7 C 68 % 15.54 C
3203 26-07-2019 02:50:00 21.6 C 69 % 15.67 C
3204 26-07-2019 02:55:00 21.4 C 68 % 15.25 C
3205 26-07-2019 03:00:00 21.3 C 70 % 15.61 C
3206 26-07-2019 03:05:00 21.2 C 71 % 15.73 C
3207 26-07-2019 03:10:00 21.2 C 71 % 15.73 C
3208 26-07-2019 03:15:00 21.1 C 70 % 15.42 C
3209 26-07-2019 03:20:00 21.1 C 71 % 15.64 C
3210 26-07-2019 03:25:00 21 C 71 % 15.54 C
3211 26-07-2019 03:30:00 21 C 72 % 15.76 C
3212 26-07-2019 03:35:00 20.9 C 72 % 15.66 C
3213 26-07-2019 03:40:00 20.8 C 72 % 15.57 C
3214 26-07-2019 03:45:00 20.8 C 72 % 15.57 C
3215 26-07-2019 03:50:00 20.8 C 74 % 16 C
3216 26-07-2019 03:55:00 20.7 C 74 % 15.9 C
3217 26-07-2019 04:00:00 20.7 C 74 % 15.9 C
3218 26-07-2019 04:05:00 20.6 C 75 % 16.01 C
3219 26-07-2019 04:10:00 20.4 C 75 % 15.82 C
3220 26-07-2019 04:15:00 20.3 C 75 % 15.72 C
3221 26-07-2019 04:20:00 20.3 C 76 % 15.93 C
3222 26-07-2019 04:25:00 20.2 C 77 % 16.04 C
3223 26-07-2019 04:30:00 20.1 C 77 % 15.94 C
3224 26-07-2019 04:35:00 19.9 C 77 % 15.75 C
3225 26-07-2019 04:40:00 19.9 C 78 % 15.95 C
Sensor: Nr:Datum:Temp:Feuchte:Taupunkt:
Aussen-T/F 3226 26-07-2019 04:45:00 19.8 C 78 % 15.85 C
3227 26-07-2019 04:50:00 19.7 C 78 % 15.76 C
3228 26-07-2019 04:55:00 19.6 C 79 % 15.86 C
3229 26-07-2019 05:00:00 19.6 C 79 % 15.86 C
3230 26-07-2019 05:05:00 19.5 C 78 % 15.56 C
3231 26-07-2019 05:10:00 19.4 C 78 % 15.47 C
3232 26-07-2019 05:15:00 19.3 C 78 % 15.37 C
3233 26-07-2019 05:20:00 19.3 C 79 % 15.57 C
3234 26-07-2019 05:25:00 19.3 C 78 % 15.37 C
3235 26-07-2019 05:30:00 19.3 C 80 % 15.76 C
3236 26-07-2019 05:35:00 19.3 C 80 % 15.76 C
3237 26-07-2019 05:40:00 19.2 C 80 % 15.67 C
3238 26-07-2019 05:45:00 19.2 C 80 % 15.67 C
3239 26-07-2019 05:50:00 19.1 C 79 % 15.37 C
3240 26-07-2019 05:55:00 19 C 79 % 15.28 C
3241 26-07-2019 06:00:00 18.9 C 80 % 15.38 C
3242 26-07-2019 06:05:00 19 C 79 % 15.28 C
3243 26-07-2019 06:10:00 19 C 79 % 15.28 C
3244 26-07-2019 06:15:00 18.9 C 80 % 15.38 C
3245 26-07-2019 06:20:00 18.9 C 80 % 15.38 C
3246 26-07-2019 06:25:00 18.9 C 80 % 15.38 C
3247 26-07-2019 06:30:00 18.9 C 80 % 15.38 C
3248 26-07-2019 06:35:00 18.9 C 81 % 15.57 C
3249 26-07-2019 06:40:00 18.9 C 81 % 15.57 C
3250 26-07-2019 06:45:00 19 C 81 % 15.67 C
Sensor: Nr:Datum:Temp:Feuchte:Taupunkt:
Aussen-T/F 3251 26-07-2019 06:50:00 19.1 C 81 % 15.76 C
3252 26-07-2019 06:55:00 19.1 C 82 % 15.96 C
3253 26-07-2019 07:00:00 19.2 C 83 % 16.24 C
3254 26-07-2019 07:05:00 19.3 C 83 % 16.34 C
3255 26-07-2019 07:10:00 19.3 C 83 % 16.34 C
3256 26-07-2019 07:15:00 19.4 C 83 % 16.44 C
3257 26-07-2019 07:20:00 19.4 C 82 % 16.25 C
3258 26-07-2019 07:25:00 19.5 C 83 % 16.54 C
3259 26-07-2019 07:30:00 19.6 C 83 % 16.63 C
3260 26-07-2019 07:35:00 19.7 C 83 % 16.73 C
3261 26-07-2019 07:40:00 19.8 C 83 % 16.83 C
3262 26-07-2019 07:45:00 19.9 C 82 % 16.74 C
3263 26-07-2019 07:50:00 20.1 C 81 % 16.74 C
3264 26-07-2019 07:55:00 20.2 C 81 % 16.84 C
3265 26-07-2019 08:00:00 20.4 C 81 % 17.03 C
3266 26-07-2019 08:05:00 20.5 C 82 % 17.32 C
3267 26-07-2019 08:10:00 20.6 C 81 % 17.22 C
3268 26-07-2019 08:15:00 20.7 C 82 % 17.52 C
3269 26-07-2019 08:20:00 20.8 C 81 % 17.42 C
3270 26-07-2019 08:25:00 20.9 C 80 % 17.32 C
3271 26-07-2019 08:30:00 21.1 C 79 % 17.32 C
3272 26-07-2019 08:35:00 21.3 C 79 % 17.51 C
3273 26-07-2019 08:40:00 21.5 C 78 % 17.5 C
3274 26-07-2019 08:45:00 21.7 C 79 % 17.9 C
3275 26-07-2019 08:50:00 21.9 C 80 % 18.29 C
Sensor: Nr:Datum:Temp:Feuchte:Taupunkt:
Aussen-T/F 3276 26-07-2019 08:55:00 21.9 C 78 % 17.89 C
3277 26-07-2019 09:00:00 22.1 C 76 % 17.67 C
3278 26-07-2019 09:05:00 22.3 C 76 % 17.86 C
3279 26-07-2019 09:10:00 22.4 C 74 % 17.54 C
3280 26-07-2019 09:15:00 22.7 C 73 % 17.61 C
3281 26-07-2019 09:20:00 22.9 C 74 % 18.02 C
3282 26-07-2019 09:25:00 23.1 C 70 % 17.33 C
3283 26-07-2019 09:30:00 23.4 C 70 % 17.62 C
3284 26-07-2019 09:35:00 23.7 C 67 % 17.21 C
3285 26-07-2019 09:40:00 24.2 C 67 % 17.68 C
3286 26-07-2019 09:45:00 24.6 C 66 % 17.83 C
3287 26-07-2019 09:50:00 25 C 58 % 16.16 C
3288 26-07-2019 09:55:00 25.7 C 60 % 17.35 C
3289 26-07-2019 10:00:00 25.9 C 60 % 17.54 C
3290 26-07-2019 10:05:00 26.3 C 58 % 17.38 C
3291 26-07-2019 10:10:00 26.4 C 57 % 17.19 C
3292 26-07-2019 10:15:00 26.8 C 55 % 17 C
3293 26-07-2019 10:20:00 27.2 C 54 % 17.08 C
3294 26-07-2019 10:25:00 27.6 C 48 % 15.6 C
3295 26-07-2019 10:30:00 28.4 C 46 % 15.66 C
3296 26-07-2019 10:35:00 29.1 C 46 % 16.3 C
3297 26-07-2019 10:40:00 29.6 C 44 % 16.05 C
3298 26-07-2019 10:45:00 30.1 C 43 % 16.14 C
3299 26-07-2019 10:50:00 30.5 C 42 % 16.13 C
3300 26-07-2019 10:55:00 30.8 C 41 % 16.02 C
Sensor: Nr:Datum:Temp:Feuchte:Taupunkt:
Aussen-T/F 3301 26-07-2019 11:00:00 31 C 39 % 15.42 C
3302 26-07-2019 11:05:00 31.2 C 39 % 15.6 C
3303 26-07-2019 11:10:00 31.4 C 41 % 16.56 C
3304 26-07-2019 11:15:00 31.5 C 40 % 16.26 C
3305 26-07-2019 11:20:00 31.7 C 39 % 16.04 C
3306 26-07-2019 11:25:00 31.9 C 40 % 16.62 C
3307 26-07-2019 11:30:00 32.1 C 38 % 15.99 C
3308 26-07-2019 11:35:00 32.3 C 40 % 16.97 C
3309 26-07-2019 11:40:00 32.6 C 39 % 16.84 C
3310 26-07-2019 11:45:00 32.8 C 37 % 16.19 C
3311 26-07-2019 11:50:00 32.9 C 37 % 16.28 C
3312 26-07-2019 11:55:00 33.2 C 37 % 16.54 C
3313 26-07-2019 12:00:00 33.4 C 36 % 16.29 C
3314 26-07-2019 12:05:00 33.6 C 35 % 16.02 C
3315 26-07-2019 12:10:00 33.7 C 37 % 16.98 C
3316 26-07-2019 12:15:00 33.8 C 35 % 16.19 C
3317 26-07-2019 12:20:00 34.1 C 35 % 16.46 C
3318 26-07-2019 12:25:00 34.2 C 36 % 16.99 C
3319 26-07-2019 12:30:00 34.3 C 34 % 16.18 C
3320 26-07-2019 12:35:00 34.5 C 34 % 16.35 C
3321 26-07-2019 12:40:00 34.8 C 34 % 16.61 C
3322 26-07-2019 12:45:00 35.1 C 33 % 16.4 C
3323 26-07-2019 12:50:00 35.3 C 33 % 16.58 C
3324 26-07-2019 12:55:00 35.4 C 32 % 16.18 C
3325 26-07-2019 13:00:00 35.5 C 32 % 16.27 C
Sensor: Nr:Datum:Temp:Feuchte:Taupunkt:
Aussen-T/F 3326 26-07-2019 13:05:00 35.6 C 31 % 15.86 C
3327 26-07-2019 13:10:00 35.7 C 31 % 15.94 C
3328 26-07-2019 13:15:00 35.7 C 32 % 16.44 C
3329 26-07-2019 13:20:00 35.8 C 32 % 16.53 C
3330 26-07-2019 13:25:00 35.8 C 31 % 16.03 C
3331 26-07-2019 13:30:00 35.9 C 30 % 15.6 C
3332 26-07-2019 13:35:00 36.1 C 31 % 16.29 C
3333 26-07-2019 13:40:00 36.2 C 31 % 16.37 C
3334 26-07-2019 13:45:00 36.4 C 31 % 16.54 C
3335 26-07-2019 13:50:00 36.6 C 30 % 16.2 C
3336 26-07-2019 13:55:00 36.8 C 29 % 15.84 C
3337 26-07-2019 14:00:00 36.9 C 29 % 15.93 C
3338 26-07-2019 14:05:00 36.9 C 28 % 15.38 C
3339 26-07-2019 14:10:00 36.8 C 28 % 15.29 C
3340 26-07-2019 14:15:00 36.9 C 28 % 15.38 C
3341 26-07-2019 14:20:00 37.1 C 29 % 16.1 C
3342 26-07-2019 14:25:00 37.4 C 27 % 15.24 C
3343 26-07-2019 14:30:00 37.6 C 26 % 14.82 C
3344 26-07-2019 14:35:00 37.8 C 26 % 14.99 C
3345 26-07-2019 14:40:00 37.8 C 26 % 14.99 C
3346 26-07-2019 14:45:00 37.7 C 24 % 13.67 C
3347 26-07-2019 14:50:00 37.7 C 26 % 14.9 C
3348 26-07-2019 14:55:00 37.7 C 24 % 13.67 C
3349 26-07-2019 15:00:00 38.1 C 25 % 14.63 C
3350 26-07-2019 15:05:00 38.3 C 25 % 14.8 C
Sensor: Nr:Datum:Temp:Feuchte:Taupunkt:
Aussen-T/F 3351 26-07-2019 15:10:00 38.6 C 24 % 14.42 C
3352 26-07-2019 15:15:00 38.7 C 25 % 15.13 C
3353 26-07-2019 15:20:00 38.3 C 27 % 16 C
3354 26-07-2019 15:25:00 37.3 C 30 % 16.8 C
3355 26-07-2019 15:30:00 36.8 C 30 % 16.37 C
3356 26-07-2019 15:35:00 36.3 C 31 % 16.46 C
3357 26-07-2019 15:40:00 35.9 C 31 % 16.11 C
3358 26-07-2019 15:45:00 35.6 C 32 % 16.35 C
3359 26-07-2019 15:50:00 35.7 C 30 % 15.43 C
3360 26-07-2019 15:55:00 35.6 C 30 % 15.34 C
3361 26-07-2019 16:00:00 35.4 C 31 % 15.68 C
3362 26-07-2019 16:05:00 35.3 C 32 % 16.09 C
3363 26-07-2019 16:10:00 35.4 C 32 % 16.18 C
3364 26-07-2019 16:15:00 35.4 C 31 % 15.68 C
3365 26-07-2019 16:20:00 35.5 C 32 % 16.27 C
3366 26-07-2019 16:25:00 35.6 C 37 % 18.65 C
3367 26-07-2019 16:30:00 35.6 C 39 % 19.5 C
3368 26-07-2019 16:35:00 35.6 C 40 % 19.91 C
3369 26-07-2019 16:40:00 35.3 C 32 % 16.09 C
3370 26-07-2019 16:45:00 34.9 C 34 % 16.7 C
3371 26-07-2019 16:50:00 34.8 C 35 % 17.07 C
3372 26-07-2019 16:55:00 34.6 C 33 % 15.97 C
3373 26-07-2019 17:00:00 34.2 C 35 % 16.54 C
3374 26-07-2019 17:05:00 34.1 C 42 % 19.35 C
3375 26-07-2019 17:10:00 33.5 C 39 % 17.64 C
Sensor: Nr:Datum:Temp:Feuchte:Taupunkt:
Aussen-T/F 3376 26-07-2019 17:15:00 32.9 C 40 % 17.51 C
3377 26-07-2019 17:20:00 32.6 C 42 % 18.01 C
3378 26-07-2019 17:25:00 32.4 C 44 % 18.57 C
3379 26-07-2019 17:30:00 32.2 C 45 % 18.75 C
3380 26-07-2019 17:35:00 31.9 C 46 % 18.83 C
3381 26-07-2019 17:40:00 31.8 C 43 % 17.67 C
3382 26-07-2019 17:45:00 31.7 C 44 % 17.94 C
3383 26-07-2019 17:50:00 31.4 C 45 % 18.03 C
3384 26-07-2019 17:55:00 31.3 C 44 % 17.58 C
3385 26-07-2019 18:00:00 31.2 C 45 % 17.85 C
3386 26-07-2019 18:05:00 31.1 C 45 % 17.76 C
3387 26-07-2019 18:10:00 30.9 C 44 % 17.22 C
3388 26-07-2019 18:15:00 30.9 C 44 % 17.22 C
3389 26-07-2019 18:20:00 30.8 C 44 % 17.13 C
3390 26-07-2019 18:25:00 30.7 C 45 % 17.4 C
3391 26-07-2019 18:30:00 30.6 C 45 % 17.31 C
3392 26-07-2019 18:35:00 30.3 C 46 % 17.39 C
3393 26-07-2019 18:40:00 30.1 C 46 % 17.2 C
3394 26-07-2019 18:45:00 29.7 C 46 % 16.84 C
3395 26-07-2019 18:50:00 29.6 C 48 % 17.42 C
3396 26-07-2019 18:55:00 29.4 C 48 % 17.24 C
3397 26-07-2019 19:00:00 29.3 C 49 % 17.48 C
3398 26-07-2019 19:05:00 29.3 C 50 % 17.8 C
3399 26-07-2019 19:10:00 29.2 C 50 % 17.71 C
3400 26-07-2019 19:15:00 29.1 C 50 % 17.61 C
Sensor: Nr:Datum:Temp:Feuchte:Taupunkt:
Aussen-T/F 3401 26-07-2019 19:20:00 29.1 C 52 % 18.24 C
3402 26-07-2019 19:25:00 28.9 C 51 % 17.74 C
3403 26-07-2019 19:30:00 28.8 C 53 % 18.26 C
3404 26-07-2019 19:35:00 28.7 C 53 % 18.17 C
3405 26-07-2019 19:40:00 28.6 C 54 % 18.38 C
3406 26-07-2019 19:45:00 28.4 C 54 % 18.19 C
3407 26-07-2019 19:50:00 28.3 C 54 % 18.1 C
3408 26-07-2019 19:55:00 28.2 C 56 % 18.59 C
3409 26-07-2019 20:00:00 28.1 C 56 % 18.49 C
3410 26-07-2019 20:05:00 28 C 56 % 18.4 C
3411 26-07-2019 20:10:00 27.9 C 57 % 18.59 C
3412 26-07-2019 20:15:00 27.8 C 57 % 18.5 C
3413 26-07-2019 20:20:00 27.7 C 58 % 18.68 C
3414 26-07-2019 20:25:00 27.6 C 57 % 18.31 C
3415 26-07-2019 20:30:00 27.5 C 59 % 18.77 C
3416 26-07-2019 20:35:00 27.4 C 57 % 18.13 C
3417 26-07-2019 20:40:00 27.2 C 59 % 18.49 C
3418 26-07-2019 20:45:00 27.1 C 59 % 18.4 C
3419 26-07-2019 20:50:00 27.1 C 59 % 18.4 C
3420 26-07-2019 20:55:00 26.9 C 59 % 18.21 C
3421 26-07-2019 21:00:00 26.8 C 59 % 18.11 C
3422 26-07-2019 21:05:00 26.7 C 59 % 18.02 C
3423 26-07-2019 21:10:00 26.7 C 59 % 18.02 C
3424 26-07-2019 21:15:00 26.6 C 60 % 18.2 C
3425 26-07-2019 21:20:00 26.4 C 59 % 17.74 C
Sensor: Nr:Datum:Temp:Feuchte:Taupunkt:
Aussen-T/F 3426 26-07-2019 21:25:00 26.3 C 59 % 17.65 C
3427 26-07-2019 21:30:00 26.2 C 59 % 17.55 C
3428 26-07-2019 21:35:00 26.2 C 59 % 17.55 C
3429 26-07-2019 21:40:00 26.1 C 59 % 17.46 C
3430 26-07-2019 21:45:00 26.1 C 60 % 17.73 C
3431 26-07-2019 21:50:00 26 C 60 % 17.63 C
3432 26-07-2019 21:55:00 25.9 C 60 % 17.54 C
3433 26-07-2019 22:00:00 25.9 C 60 % 17.54 C
3434 26-07-2019 22:05:00 25.8 C 61 % 17.71 C
3435 26-07-2019 22:10:00 25.7 C 61 % 17.61 C
3436 26-07-2019 22:15:00 25.7 C 61 % 17.61 C
3437 26-07-2019 22:20:00 25.7 C 62 % 17.87 C
3438 26-07-2019 22:25:00 25.7 C 62 % 17.87 C
3439 26-07-2019 22:30:00 25.6 C 63 % 18.03 C
3440 26-07-2019 22:35:00 25.4 C 63 % 17.84 C
3441 26-07-2019 22:40:00 25.3 C 62 % 17.5 C
3442 26-07-2019 22:45:00 25.2 C 63 % 17.65 C
3443 26-07-2019 22:50:00 25.1 C 63 % 17.56 C
3444 26-07-2019 22:55:00 24.9 C 64 % 17.62 C
3445 26-07-2019 23:00:00 24.8 C 65 % 17.77 C
3446 26-07-2019 23:05:00 24.8 C 65 % 17.77 C
3447 26-07-2019 23:10:00 24.7 C 66 % 17.92 C
3448 26-07-2019 23:15:00 24.6 C 66 % 17.83 C
3449 26-07-2019 23:20:00 24.5 C 67 % 17.97 C
3450 26-07-2019 23:25:00 24.4 C 67 % 17.87 C
Sensor: Nr:Datum:Temp:Feuchte:Taupunkt:
Aussen-T/F 3451 26-07-2019 23:30:00 24.3 C 67 % 17.78 C
3452 26-07-2019 23:35:00 24.2 C 67 % 17.68 C
3453 26-07-2019 23:40:00 24.2 C 67 % 17.68 C
3454 26-07-2019 23:45:00 24.1 C 68 % 17.82 C
3455 26-07-2019 23:50:00 23.9 C 68 % 17.63 C
3456 26-07-2019 23:55:00 23.8 C 68 % 17.54 C
3457 27-07-2019 00:00:00 23.6 C 69 % 17.58 C
3458 27-07-2019 00:05:00 23.4 C 69 % 17.39 C
3459 27-07-2019 00:10:00 23.3 C 69 % 17.29 C
3460 27-07-2019 00:15:00 23.3 C 70 % 17.52 C
3461 27-07-2019 00:20:00 23.2 C 70 % 17.42 C
3462 27-07-2019 00:25:00 23.2 C 70 % 17.42 C
3463 27-07-2019 00:30:00 23.1 C 70 % 17.33 C
3464 27-07-2019 00:35:00 23.1 C 71 % 17.55 C
3465 27-07-2019 00:40:00 23 C 71 % 17.46 C
3466 27-07-2019 00:45:00 22.9 C 71 % 17.36 C
3467 27-07-2019 00:50:00 22.9 C 71 % 17.36 C
3468 27-07-2019 00:55:00 22.8 C 72 % 17.49 C
3469 27-07-2019 01:00:00 22.8 C 72 % 17.49 C
3470 27-07-2019 01:05:00 22.7 C 72 % 17.39 C
3471 27-07-2019 01:10:00 22.7 C 73 % 17.61 C
3472 27-07-2019 01:15:00 22.6 C 73 % 17.51 C
3473 27-07-2019 01:20:00 22.7 C 74 % 17.83 C
3474 27-07-2019 01:25:00 22.7 C 73 % 17.61 C
3475 27-07-2019 01:30:00 22.7 C 73 % 17.61 C
Sensor: Nr:Datum:Temp:Feuchte:Taupunkt:
Aussen-T/F 3476 27-07-2019 01:35:00 22.7 C 73 % 17.61 C
3477 27-07-2019 01:40:00 22.7 C 74 % 17.83 C
3478 27-07-2019 01:45:00 22.6 C 74 % 17.73 C
3479 27-07-2019 01:50:00 22.4 C 74 % 17.54 C
3480 27-07-2019 01:55:00 22.3 C 74 % 17.44 C
3481 27-07-2019 02:00:00 22.3 C 74 % 17.44 C
3482 27-07-2019 02:05:00 22.3 C 73 % 17.23 C
3483 27-07-2019 02:10:00 22.3 C 73 % 17.23 C
3484 27-07-2019 02:15:00 22.3 C 75 % 17.65 C
3485 27-07-2019 02:20:00 22.4 C 75 % 17.75 C
3486 27-07-2019 02:25:00 22.4 C 76 % 17.96 C
3487 27-07-2019 02:30:00 22.4 C 76 % 17.96 C
3488 27-07-2019 02:35:00 22.4 C 76 % 17.96 C
3489 27-07-2019 02:40:00 22.3 C 76 % 17.86 C
3490 27-07-2019 02:45:00 22.3 C 76 % 17.86 C
3491 27-07-2019 02:50:00 22.3 C 76 % 17.86 C
3492 27-07-2019 02:55:00 22.3 C 76 % 17.86 C
3493 27-07-2019 03:00:00 22.3 C 76 % 17.86 C
3494 27-07-2019 03:05:00 22.3 C 76 % 17.86 C
3495 27-07-2019 03:10:00 22.3 C 74 % 17.44 C
3496 27-07-2019 03:15:00 22.4 C 74 % 17.54 C
3497 27-07-2019 03:20:00 22.5 C 73 % 17.42 C
3498 27-07-2019 03:25:00 22.6 C 72 % 17.3 C
3499 27-07-2019 03:30:00 22.6 C 71 % 17.07 C
3500 27-07-2019 03:35:00 22.8 C 69 % 16.82 C
Sensor: Nr:Datum:Temp:Feuchte:Taupunkt:
Aussen-T/F 3501 27-07-2019 03:40:00 23.2 C 75 % 18.52 C
3502 27-07-2019 03:45:00 23.1 C 78 % 19.05 C
3503 27-07-2019 03:50:00 22.7 C 79 % 18.87 C
3504 27-07-2019 03:55:00 22.3 C 80 % 18.68 C
3505 27-07-2019 04:00:00 21.9 C 83 % 18.88 C
3506 27-07-2019 04:05:00 21.7 C 84 % 18.88 C
3507 27-07-2019 04:10:00 21.4 C 85 % 18.77 C
3508 27-07-2019 04:15:00 21.1 C 85 % 18.48 C
3509 27-07-2019 04:20:00 20.9 C 86 % 18.47 C
3510 27-07-2019 04:25:00 20.8 C 87 % 18.56 C
3511 27-07-2019 04:30:00 20.7 C 87 % 18.46 C
3512 27-07-2019 04:35:00 20.6 C 87 % 18.36 C
3513 27-07-2019 04:40:00 20.5 C 88 % 18.44 C
3514 27-07-2019 04:45:00 20.4 C 88 % 18.34 C
3515 27-07-2019 04:50:00 20.4 C 88 % 18.34 C
3516 27-07-2019 04:55:00 20.4 C 89 % 18.53 C
3517 27-07-2019 05:00:00 20.4 C 88 % 18.34 C
3518 27-07-2019 05:05:00 20.4 C 88 % 18.34 C
3519 27-07-2019 05:10:00 20.3 C 89 % 18.43 C
3520 27-07-2019 05:15:00 20.3 C 89 % 18.43 C
3521 27-07-2019 05:20:00 20.3 C 89 % 18.43 C
3522 27-07-2019 05:25:00 20.3 C 89 % 18.43 C
3523 27-07-2019 05:30:00 20.2 C 89 % 18.33 C
3524 27-07-2019 05:35:00 20.3 C 89 % 18.43 C
3525 27-07-2019 05:40:00 20.2 C 89 % 18.33 C
Sensor: Nr:Datum:Temp:Feuchte:Taupunkt:
Aussen-T/F 3526 27-07-2019 05:45:00 20.2 C 89 % 18.33 C
3527 27-07-2019 05:50:00 20.2 C 89 % 18.33 C
3528 27-07-2019 05:55:00 20.2 C 88 % 18.15 C
3529 27-07-2019 06:00:00 20.2 C 88 % 18.15 C
3530 27-07-2019 06:05:00 20.3 C 89 % 18.43 C
3531 27-07-2019 06:10:00 20.3 C 88 % 18.25 C
3532 27-07-2019 06:15:00 20.3 C 89 % 18.43 C
3533 27-07-2019 06:20:00 20.3 C 88 % 18.25 C
3534 27-07-2019 06:25:00 20.4 C 89 % 18.53 C
3535 27-07-2019 06:30:00 20.6 C 89 % 18.72 C
3536 27-07-2019 06:35:00 20.7 C 89 % 18.82 C
3537 27-07-2019 06:40:00 20.7 C 88 % 18.64 C
3538 27-07-2019 06:45:00 20.8 C 88 % 18.74 C
3539 27-07-2019 06:50:00 20.8 C 89 % 18.92 C
3540 27-07-2019 06:55:00 20.9 C 89 % 19.02 C
3541 27-07-2019 07:00:00 20.9 C 89 % 19.02 C
3542 27-07-2019 07:05:00 21 C 89 % 19.12 C
3543 27-07-2019 07:10:00 20.9 C 88 % 18.84 C
3544 27-07-2019 07:15:00 21 C 89 % 19.12 C
3545 27-07-2019 07:20:00 21.1 C 88 % 19.03 C
3546 27-07-2019 07:25:00 21.2 C 88 % 19.13 C
3547 27-07-2019 07:30:00 21.3 C 89 % 19.41 C
3548 27-07-2019 07:35:00 21.4 C 89 % 19.51 C
3549 27-07-2019 07:40:00 21.4 C 88 % 19.33 C
3550 27-07-2019 07:45:00 21.5 C 88 % 19.43 C
Sensor: Nr:Datum:Temp:Feuchte:Taupunkt:
Aussen-T/F 3551 27-07-2019 07:50:00 21.6 C 87 % 19.34 C
3552 27-07-2019 07:55:00 21.7 C 86 % 19.25 C
3553 27-07-2019 08:00:00 21.8 C 86 % 19.35 C
3554 27-07-2019 08:05:00 21.9 C 86 % 19.45 C
3555 27-07-2019 08:10:00 22.1 C 86 % 19.65 C
3556 27-07-2019 08:15:00 22.1 C 84 % 19.27 C
3557 27-07-2019 08:20:00 22.2 C 83 % 19.17 C
3558 27-07-2019 08:25:00 22.3 C 82 % 19.08 C
3559 27-07-2019 08:30:00 22.5 C 81 % 19.08 C
3560 27-07-2019 08:35:00 22.8 C 80 % 19.17 C
3561 27-07-2019 08:40:00 23 C 78 % 18.96 C
3562 27-07-2019 08:45:00 23.2 C 78 % 19.15 C
3563 27-07-2019 08:50:00 23.4 C 77 % 19.14 C
3564 27-07-2019 08:55:00 23.6 C 76 % 19.12 C
3565 27-07-2019 09:00:00 23.8 C 76 % 19.31 C
3566 27-07-2019 09:05:00 24.1 C 76 % 19.6 C
3567 27-07-2019 09:10:00 24.3 C 76 % 19.8 C
3568 27-07-2019 09:15:00 24.4 C 74 % 19.46 C
3569 27-07-2019 09:20:00 24.6 C 73 % 19.44 C
3570 27-07-2019 09:25:00 24.8 C 73 % 19.63 C
3571 27-07-2019 09:30:00 24.9 C 73 % 19.72 C
3572 27-07-2019 09:35:00 25.1 C 73 % 19.92 C
3573 27-07-2019 09:40:00 25.1 C 72 % 19.69 C
3574 27-07-2019 09:45:00 25.2 C 72 % 19.79 C
3575 27-07-2019 09:50:00 25.2 C 72 % 19.79 C
Sensor: Nr:Datum:Temp:Feuchte:Taupunkt:
Aussen-T/F 3576 27-07-2019 09:55:00 25.2 C 72 % 19.79 C
3577 27-07-2019 10:00:00 25.2 C 72 % 19.79 C
3578 27-07-2019 10:05:00 25.3 C 71 % 19.66 C
3579 27-07-2019 10:10:00 25.3 C 71 % 19.66 C
3580 27-07-2019 10:15:00 25.3 C 80 % 21.6 C
3581 27-07-2019 10:20:00 25 C 82 % 21.71 C
3582 27-07-2019 10:25:00 24.7 C 84 % 21.81 C
3583 27-07-2019 10:30:00 24.4 C 85 % 21.71 C
3584 27-07-2019 10:35:00 24.2 C 86 % 21.71 C
3585 27-07-2019 10:40:00 24.1 C 87 % 21.8 C
3586 27-07-2019 10:45:00 24.1 C 88 % 21.99 C
3587 27-07-2019 10:50:00 24.1 C 87 % 21.8 C
3588 27-07-2019 10:55:00 24 C 87 % 21.7 C
3589 27-07-2019 11:00:00 24 C 88 % 21.89 C
3590 27-07-2019 11:05:00 24.1 C 88 % 21.99 C
3591 27-07-2019 11:10:00 24.1 C 88 % 21.99 C
3592 27-07-2019 11:15:00 24.1 C 88 % 21.99 C
3593 27-07-2019 11:20:00 24.2 C 88 % 22.08 C
3594 27-07-2019 11:25:00 24.2 C 88 % 22.08 C
3595 27-07-2019 11:30:00 24.2 C 87 % 21.9 C
3596 27-07-2019 11:35:00 24 C 85 % 21.32 C
3597 27-07-2019 11:40:00 23.9 C 85 % 21.22 C
3598 27-07-2019 11:45:00 23.7 C 85 % 21.03 C
3599 27-07-2019 11:50:00 23.5 C 84 % 20.64 C
3600 27-07-2019 11:55:00 23.3 C 85 % 20.63 C
Sensor: Nr:Datum:Temp:Feuchte:Taupunkt:
Aussen-T/F 3601 27-07-2019 12:00:00 23.2 C 85 % 20.54 C
3602 27-07-2019 12:05:00 23.2 C 87 % 20.91 C
3603 27-07-2019 12:10:00 23.2 C 88 % 21.1 C
3604 27-07-2019 12:15:00 23.2 C 88 % 21.1 C
3605 27-07-2019 12:20:00 23.2 C 86 % 20.73 C
3606 27-07-2019 12:25:00 23.3 C 85 % 20.63 C
3607 27-07-2019 12:30:00 23.5 C 84 % 20.64 C
3608 27-07-2019 12:35:00 23.8 C 81 % 20.34 C
3609 27-07-2019 12:40:00 24.1 C 80 % 20.43 C
3610 27-07-2019 12:45:00 24.4 C 82 % 21.12 C
3611 27-07-2019 12:50:00 24.8 C 78 % 20.7 C
3612 27-07-2019 12:55:00 25.1 C 78 % 20.99 C
3613 27-07-2019 13:00:00 25.3 C 75 % 20.55 C
3614 27-07-2019 13:05:00 25.5 C 76 % 20.95 C
3615 27-07-2019 13:10:00 25.7 C 74 % 20.71 C
3616 27-07-2019 13:15:00 26 C 75 % 21.22 C
3617 27-07-2019 13:20:00 26.2 C 74 % 21.2 C
3618 27-07-2019 13:25:00 26.2 C 74 % 21.2 C
3619 27-07-2019 13:30:00 26.1 C 75 % 21.32 C
3620 27-07-2019 13:35:00 26.2 C 75 % 21.41 C
3621 27-07-2019 13:40:00 26.2 C 74 % 21.2 C
3622 27-07-2019 13:45:00 26.2 C 72 % 20.75 C
3623 27-07-2019 13:50:00 26.2 C 70 % 20.29 C
3624 27-07-2019 13:55:00 26.2 C 72 % 20.75 C
3625 27-07-2019 14:00:00 26.2 C 69 % 20.06 C
Sensor: Nr:Datum:Temp:Feuchte:Taupunkt:
Aussen-T/F 3626 27-07-2019 14:05:00 26.1 C 70 % 20.2 C
3627 27-07-2019 14:10:00 25.9 C 70 % 20.01 C
3628 27-07-2019 14:15:00 25.9 C 68 % 19.54 C
3629 27-07-2019 14:20:00 25.8 C 70 % 19.91 C
3630 27-07-2019 14:25:00 25.7 C 69 % 19.58 C
3631 27-07-2019 14:30:00 25.6 C 71 % 19.95 C
3632 27-07-2019 14:35:00 25.5 C 71 % 19.85 C
3633 27-07-2019 14:40:00 25.5 C 73 % 20.3 C
3634 27-07-2019 14:45:00 25.5 C 73 % 20.3 C
3635 27-07-2019 14:50:00 25.5 C 75 % 20.74 C
3636 27-07-2019 14:55:00 25.5 C 74 % 20.52 C
3637 27-07-2019 15:00:00 25.3 C 74 % 20.33 C
3638 27-07-2019 15:05:00 25.1 C 74 % 20.14 C
3639 27-07-2019 15:10:00 24.8 C 74 % 19.85 C
3640 27-07-2019 15:15:00 24.7 C 75 % 19.97 C
3641 27-07-2019 15:20:00 24.7 C 75 % 19.97 C
3642 27-07-2019 15:25:00 24.8 C 75 % 20.06 C
3643 27-07-2019 15:30:00 24.8 C 74 % 19.85 C
3644 27-07-2019 15:35:00 25 C 74 % 20.04 C
3645 27-07-2019 15:40:00 25.1 C 74 % 20.14 C
3646 27-07-2019 15:45:00 25.2 C 73 % 20.01 C
3647 27-07-2019 15:50:00 25.4 C 73 % 20.21 C
3648 27-07-2019 15:55:00 25.6 C 74 % 20.62 C
3649 27-07-2019 16:00:00 25.8 C 72 % 20.37 C
3650 27-07-2019 16:05:00 26.1 C 70 % 20.2 C
Sensor: Nr:Datum:Temp:Feuchte:Taupunkt:
Aussen-T/F 3651 27-07-2019 16:10:00 26.2 C 68 % 19.82 C
3652 27-07-2019 16:15:00 26.2 C 67 % 19.59 C
3653 27-07-2019 16:20:00 26.2 C 68 % 19.82 C
3654 27-07-2019 16:25:00 26.3 C 68 % 19.92 C
3655 27-07-2019 16:30:00 26.3 C 67 % 19.68 C
3656 27-07-2019 16:35:00 26.2 C 67 % 19.59 C
3657 27-07-2019 16:40:00 25.9 C 68 % 19.54 C
3658 27-07-2019 16:45:00 25.7 C 67 % 19.11 C
3659 27-07-2019 16:50:00 25.5 C 69 % 19.39 C
3660 27-07-2019 16:55:00 25.2 C 71 % 19.56 C
3661 27-07-2019 17:00:00 24.9 C 73 % 19.72 C
3662 27-07-2019 17:05:00 24.6 C 74 % 19.66 C
3663 27-07-2019 17:10:00 24.5 C 76 % 19.99 C
3664 27-07-2019 17:15:00 24.5 C 77 % 20.2 C
3665 27-07-2019 17:20:00 24.5 C 77 % 20.2 C
3666 27-07-2019 17:25:00 24.5 C 77 % 20.2 C
3667 27-07-2019 17:30:00 24.4 C 76 % 19.89 C
3668 27-07-2019 17:35:00 24.4 C 76 % 19.89 C
3669 27-07-2019 17:40:00 24.4 C 77 % 20.1 C
3670 27-07-2019 17:45:00 24.4 C 76 % 19.89 C
3671 27-07-2019 17:50:00 24.4 C 76 % 19.89 C
3672 27-07-2019 17:55:00 24.4 C 76 % 19.89 C
3673 27-07-2019 18:00:00 24.4 C 77 % 20.1 C
3674 27-07-2019 18:05:00 24.4 C 77 % 20.1 C
3675 27-07-2019 18:10:00 24.4 C 76 % 19.89 C
Sensor: Nr:Datum:Temp:Feuchte:Taupunkt:
Aussen-T/F 3676 27-07-2019 18:15:00 24.6 C 77 % 20.3 C
3677 27-07-2019 18:20:00 24.8 C 76 % 20.28 C
3678 27-07-2019 18:25:00 25.1 C 75 % 20.35 C
3679 27-07-2019 18:30:00 25.4 C 75 % 20.64 C
3680 27-07-2019 18:35:00 25.3 C 75 % 20.55 C
3681 27-07-2019 18:40:00 25.3 C 75 % 20.55 C
3682 27-07-2019 18:45:00 25.2 C 75 % 20.45 C
3683 27-07-2019 18:50:00 25.1 C 75 % 20.35 C
3684 27-07-2019 18:55:00 24.9 C 76 % 20.38 C
3685 27-07-2019 19:00:00 24.7 C 77 % 20.39 C
3686 27-07-2019 19:05:00 24.5 C 77 % 20.2 C
3687 27-07-2019 19:10:00 24.3 C 76 % 19.8 C
3688 27-07-2019 19:15:00 24.1 C 77 % 19.81 C
3689 27-07-2019 19:20:00 23.9 C 79 % 20.03 C
3690 27-07-2019 19:25:00 23.8 C 81 % 20.34 C
3691 27-07-2019 19:30:00 23.7 C 82 % 20.44 C
3692 27-07-2019 19:35:00 23.6 C 83 % 20.54 C
3693 27-07-2019 19:40:00 23.4 C 84 % 20.54 C
3694 27-07-2019 19:45:00 23.4 C 84 % 20.54 C
3695 27-07-2019 19:50:00 23.4 C 85 % 20.73 C
3696 27-07-2019 19:55:00 23.3 C 84 % 20.44 C
3697 27-07-2019 20:00:00 23.2 C 84 % 20.34 C
3698 27-07-2019 20:05:00 23.1 C 85 % 20.44 C
3699 27-07-2019 20:10:00 23.1 C 85 % 20.44 C
3700 27-07-2019 20:15:00 23 C 85 % 20.34 C
Sensor: Nr:Datum:Temp:Feuchte:Taupunkt:
Aussen-T/F 3701 27-07-2019 20:20:00 23 C 85 % 20.34 C
3702 27-07-2019 20:25:00 22.9 C 85 % 20.24 C
3703 27-07-2019 20:30:00 22.8 C 85 % 20.14 C
3704 27-07-2019 20:35:00 22.8 C 85 % 20.14 C
3705 27-07-2019 20:40:00 22.8 C 85 % 20.14 C
3706 27-07-2019 20:45:00 22.7 C 85 % 20.05 C
3707 27-07-2019 20:50:00 22.6 C 85 % 19.95 C
3708 27-07-2019 20:55:00 22.6 C 85 % 19.95 C
3709 27-07-2019 21:00:00 22.4 C 85 % 19.75 C
3710 27-07-2019 21:05:00 22.4 C 85 % 19.75 C
3711 27-07-2019 21:10:00 22.3 C 85 % 19.65 C
3712 27-07-2019 21:15:00 22.3 C 85 % 19.65 C
3713 27-07-2019 21:20:00 22.2 C 86 % 19.75 C
3714 27-07-2019 21:25:00 22.1 C 86 % 19.65 C
3715 27-07-2019 21:30:00 22.1 C 86 % 19.65 C
3716 27-07-2019 21:35:00 21.9 C 86 % 19.45 C
3717 27-07-2019 21:40:00 21.9 C 86 % 19.45 C
3718 27-07-2019 21:45:00 21.8 C 86 % 19.35 C
3719 27-07-2019 21:50:00 21.8 C 86 % 19.35 C
3720 27-07-2019 21:55:00 21.7 C 86 % 19.25 C
3721 27-07-2019 22:00:00 21.7 C 86 % 19.25 C
3722 27-07-2019 22:05:00 21.6 C 87 % 19.34 C
3723 27-07-2019 22:10:00 21.6 C 87 % 19.34 C
3724 27-07-2019 22:15:00 21.6 C 87 % 19.34 C
3725 27-07-2019 22:20:00 21.5 C 87 % 19.24 C
Sensor: Nr:Datum:Temp:Feuchte:Taupunkt:
Aussen-T/F 3726 27-07-2019 22:25:00 21.4 C 87 % 19.15 C
3727 27-07-2019 22:30:00 21.4 C 87 % 19.15 C
3728 27-07-2019 22:35:00 21.4 C 87 % 19.15 C
3729 27-07-2019 22:40:00 21.3 C 87 % 19.05 C
3730 27-07-2019 22:45:00 21.3 C 88 % 19.23 C
3731 27-07-2019 22:50:00 21.3 C 88 % 19.23 C
3732 27-07-2019 22:55:00 21.3 C 88 % 19.23 C
3733 27-07-2019 23:00:00 21.3 C 88 % 19.23 C
3734 27-07-2019 23:05:00 21.2 C 88 % 19.13 C
3735 27-07-2019 23:10:00 21.2 C 88 % 19.13 C
3736 27-07-2019 23:15:00 21.2 C 89 % 19.31 C
3737 27-07-2019 23:20:00 21.2 C 89 % 19.31 C
3738 27-07-2019 23:25:00 21.2 C 89 % 19.31 C
3739 27-07-2019 23:30:00 21.1 C 89 % 19.22 C
3740 27-07-2019 23:35:00 21.1 C 89 % 19.22 C
3741 27-07-2019 23:40:00 21.1 C 89 % 19.22 C
3742 27-07-2019 23:45:00 21.1 C 89 % 19.22 C
3743 27-07-2019 23:50:00 21 C 89 % 19.12 C
3744 27-07-2019 23:55:00 21 C 89 % 19.12 C
3745 28-07-2019 00:00:00 20.9 C 89 % 19.02 C
3746 28-07-2019 00:05:00 20.9 C 90 % 19.2 C
3747 28-07-2019 00:10:00 20.9 C 90 % 19.2 C
3748 28-07-2019 00:15:00 20.9 C 90 % 19.2 C
3749 28-07-2019 00:20:00 20.8 C 90 % 19.1 C
3750 28-07-2019 00:25:00 20.8 C 90 % 19.1 C
Sensor: Nr:Datum:Temp:Feuchte:Taupunkt:
Aussen-T/F 3751 28-07-2019 00:30:00 20.8 C 90 % 19.1 C
3752 28-07-2019 00:35:00 20.8 C 90 % 19.1 C
3753 28-07-2019 00:40:00 20.8 C 90 % 19.1 C
3754 28-07-2019 00:45:00 20.8 C 90 % 19.1 C
3755 28-07-2019 00:50:00 20.8 C 90 % 19.1 C
3756 28-07-2019 00:55:00 20.8 C 90 % 19.1 C
3757 28-07-2019 01:00:00 20.8 C 90 % 19.1 C
3758 28-07-2019 01:05:00 20.7 C 90 % 19 C
3759 28-07-2019 01:10:00 20.7 C 90 % 19 C
3760 28-07-2019 01:15:00 20.7 C 90 % 19 C
3761 28-07-2019 01:20:00 20.7 C 90 % 19 C
3762 28-07-2019 01:25:00 20.7 C 90 % 19 C
3763 28-07-2019 01:30:00 20.7 C 90 % 19 C
3764 28-07-2019 01:35:00 20.7 C 90 % 19 C
3765 28-07-2019 01:40:00 20.7 C 90 % 19 C
3766 28-07-2019 01:45:00 20.7 C 90 % 19 C
3767 28-07-2019 01:50:00 20.7 C 90 % 19 C
3768 28-07-2019 01:55:00 20.7 C 90 % 19 C
3769 28-07-2019 02:00:00 20.7 C 90 % 19 C
3770 28-07-2019 02:05:00 20.7 C 90 % 19 C
3771 28-07-2019 02:10:00 20.7 C 90 % 19 C
3772 28-07-2019 02:15:00 20.7 C 90 % 19 C
3773 28-07-2019 02:20:00 20.7 C 90 % 19 C
3774 28-07-2019 02:25:00 20.7 C 90 % 19 C
3775 28-07-2019 02:30:00 20.7 C 90 % 19 C
Sensor: Nr:Datum:Temp:Feuchte:Taupunkt:
Aussen-T/F 3776 28-07-2019 02:35:00 20.7 C 90 % 19 C
3777 28-07-2019 02:40:00 20.7 C 90 % 19 C
3778 28-07-2019 02:45:00 20.7 C 90 % 19 C
3779 28-07-2019 02:50:00 20.7 C 90 % 19 C
3780 28-07-2019 02:55:00 20.7 C 90 % 19 C
3781 28-07-2019 03:00:00 20.7 C 90 % 19 C
3782 28-07-2019 03:05:00 20.7 C 90 % 19 C
3783 28-07-2019 03:10:00 20.7 C 90 % 19 C
3784 28-07-2019 03:15:00 20.7 C 90 % 19 C
3785 28-07-2019 03:20:00 20.7 C 90 % 19 C
3786 28-07-2019 03:25:00 20.7 C 90 % 19 C
3787 28-07-2019 03:30:00 20.7 C 90 % 19 C
3788 28-07-2019 03:35:00 20.7 C 90 % 19 C
3789 28-07-2019 03:40:00 20.7 C 90 % 19 C
3790 28-07-2019 03:45:00 20.7 C 90 % 19 C
3791 28-07-2019 03:50:00 20.6 C 90 % 18.9 C
3792 28-07-2019 03:55:00 20.6 C 90 % 18.9 C
3793 28-07-2019 04:00:00 20.7 C 90 % 19 C
3794 28-07-2019 04:05:00 20.6 C 90 % 18.9 C
3795 28-07-2019 04:10:00 20.6 C 91 % 19.08 C
3796 28-07-2019 04:15:00 20.6 C 91 % 19.08 C
3797 28-07-2019 04:20:00 20.6 C 91 % 19.08 C
3798 28-07-2019 04:25:00 20.6 C 91 % 19.08 C
3799 28-07-2019 04:30:00 20.6 C 91 % 19.08 C
3800 28-07-2019 04:35:00 20.6 C 91 % 19.08 C
Sensor: Nr:Datum:Temp:Feuchte:Taupunkt:
Aussen-T/F 3801 28-07-2019 04:40:00 20.6 C 91 % 19.08 C
3802 28-07-2019 04:45:00 20.6 C 91 % 19.08 C
3803 28-07-2019 04:50:00 20.6 C 91 % 19.08 C
3804 28-07-2019 04:55:00 20.6 C 91 % 19.08 C
3805 28-07-2019 05:00:00 20.6 C 91 % 19.08 C
3806 28-07-2019 05:05:00 20.6 C 91 % 19.08 C
3807 28-07-2019 05:10:00 20.6 C 91 % 19.08 C
3808 28-07-2019 05:15:00 20.6 C 91 % 19.08 C
3809 28-07-2019 05:20:00 20.6 C 91 % 19.08 C
3810 28-07-2019 05:25:00 20.6 C 91 % 19.08 C
3811 28-07-2019 05:30:00 20.5 C 91 % 18.98 C
3812 28-07-2019 05:35:00 20.5 C 91 % 18.98 C
3813 28-07-2019 05:40:00 20.5 C 91 % 18.98 C
3814 28-07-2019 05:45:00 20.5 C 91 % 18.98 C
3815 28-07-2019 05:50:00 20.5 C 91 % 18.98 C
3816 28-07-2019 05:55:00 20.5 C 91 % 18.98 C
3817 28-07-2019 06:00:00 20.5 C 91 % 18.98 C
3818 28-07-2019 06:05:00 20.5 C 91 % 18.98 C
3819 28-07-2019 06:10:00 20.5 C 91 % 18.98 C
3820 28-07-2019 06:15:00 20.5 C 91 % 18.98 C
3821 28-07-2019 06:20:00 20.5 C 91 % 18.98 C
3822 28-07-2019 06:25:00 20.5 C 91 % 18.98 C
3823 28-07-2019 06:30:00 20.5 C 91 % 18.98 C
3824 28-07-2019 06:35:00 20.6 C 91 % 19.08 C
3825 28-07-2019 06:40:00 20.6 C 91 % 19.08 C
Sensor: Nr:Datum:Temp:Feuchte:Taupunkt:
Aussen-T/F 3826 28-07-2019 06:45:00 20.6 C 91 % 19.08 C
3827 28-07-2019 06:50:00 20.6 C 91 % 19.08 C
3828 28-07-2019 06:55:00 20.6 C 91 % 19.08 C
3829 28-07-2019 07:00:00 20.6 C 91 % 19.08 C
3830 28-07-2019 07:05:00 20.7 C 91 % 19.18 C
3831 28-07-2019 07:10:00 20.7 C 91 % 19.18 C
3832 28-07-2019 07:15:00 20.7 C 90 % 19 C
3833 28-07-2019 07:20:00 20.7 C 90 % 19 C
3834 28-07-2019 07:25:00 20.7 C 90 % 19 C
3835 28-07-2019 07:30:00 20.7 C 90 % 19 C
3836 28-07-2019 07:35:00 20.7 C 90 % 19 C
3837 28-07-2019 07:40:00 20.7 C 90 % 19 C
3838 28-07-2019 07:45:00 20.7 C 89 % 18.82 C
3839 28-07-2019 07:50:00 20.7 C 89 % 18.82 C
3840 28-07-2019 07:55:00 20.7 C 89 % 18.82 C
3841 28-07-2019 08:00:00 20.7 C 89 % 18.82 C
3842 28-07-2019 08:05:00 20.7 C 89 % 18.82 C
3843 28-07-2019 08:10:00 20.8 C 89 % 18.92 C
3844 28-07-2019 08:15:00 20.8 C 89 % 18.92 C
3845 28-07-2019 08:20:00 20.7 C 89 % 18.82 C
3846 28-07-2019 08:25:00 20.7 C 89 % 18.82 C
3847 28-07-2019 08:30:00 20.7 C 89 % 18.82 C
3848 28-07-2019 08:35:00 20.7 C 89 % 18.82 C
3849 28-07-2019 08:40:00 20.7 C 89 % 18.82 C
3850 28-07-2019 08:45:00 20.7 C 89 % 18.82 C
Sensor: Nr:Datum:Temp:Feuchte:Taupunkt:
Aussen-T/F 3851 28-07-2019 08:50:00 20.7 C 89 % 18.82 C
3852 28-07-2019 08:55:00 20.7 C 90 % 19 C
3853 28-07-2019 09:00:00 20.6 C 90 % 18.9 C
3854 28-07-2019 09:05:00 20.6 C 90 % 18.9 C
3855 28-07-2019 09:10:00 20.6 C 90 % 18.9 C
3856 28-07-2019 09:15:00 20.6 C 90 % 18.9 C
3857 28-07-2019 09:20:00 20.5 C 90 % 18.8 C
3858 28-07-2019 09:25:00 20.4 C 90 % 18.7 C
3859 28-07-2019 09:30:00 20.4 C 90 % 18.7 C
3860 28-07-2019 09:35:00 20.3 C 90 % 18.61 C
3861 28-07-2019 09:40:00 20.3 C 91 % 18.78 C
3862 28-07-2019 09:45:00 20.3 C 91 % 18.78 C
3863 28-07-2019 09:50:00 20.3 C 91 % 18.78 C
3864 28-07-2019 09:55:00 20.2 C 91 % 18.68 C
3865 28-07-2019 10:00:00 20.2 C 91 % 18.68 C
3866 28-07-2019 10:05:00 20.2 C 91 % 18.68 C
3867 28-07-2019 10:10:00 20.2 C 91 % 18.68 C
3868 28-07-2019 10:15:00 20.2 C 91 % 18.68 C
3869 28-07-2019 10:20:00 20.1 C 91 % 18.58 C
3870 28-07-2019 10:25:00 20.1 C 92 % 18.76 C
3871 28-07-2019 10:30:00 19.9 C 92 % 18.56 C
3872 28-07-2019 10:35:00 19.9 C 92 % 18.56 C
3873 28-07-2019 10:40:00 19.9 C 92 % 18.56 C
3874 28-07-2019 10:45:00 19.9 C 93 % 18.73 C
3875 28-07-2019 10:50:00 19.8 C 93 % 18.63 C
Sensor: Nr:Datum:Temp:Feuchte:Taupunkt:
Aussen-T/F 3876 28-07-2019 10:55:00 19.9 C 93 % 18.73 C
3877 28-07-2019 11:00:00